ftp/pub/palmer/observations_modified/2019/August/AR190817_BASE.txt

Download

Sample DateTime	Unit Id	WS Avg 2min	WD Avg 2min	WGS 10min	WGD 10min	Air Temp	Rel Humidity	Dew Point	Pyranometer	Quantum	Air Pressure	Snow Level	Rainfall	PW Current	Visibility	CBase 1	CBase 2	CBase 3	Vert Vis
2019/08/17  00:00:03  BASE  1.15836  327  3.59856  6    -7.8  61    -13.9 0     0     1007.2   NA       0.0000   9999     0     0     0    
2019/08/17  00:01:02  BASE  0.86436  315  3.59856  6    -7.7  61    -14.0 0     0     1007.2   NA       0.0000   9999     0     0     0    
2019/08/17  00:02:03  BASE  1.34652  324  3.59856  6    -7.9  60    -14.2 0     0     1007.2   NA       0.0000   9999     0     0     0    
2019/08/17  00:03:03  BASE  1.8522   332  3.59856  6    -8.0  60    -14.4 0     0     1007.2   NA       0.0000   9999     0     0     0    
2019/08/17  00:04:04  BASE  2.08152  335  3.59856  6    -8.2  61    -14.4 0     0     1007.2   NA       0.0000   9999     0     0     0    
2019/08/17  00:05:02  BASE  2.32848  341  3.59856  6    -8.3  61    -14.4 0     0     1007.2   NA       0.0000   9999     0     0     0    
2019/08/17  00:06:03  BASE  2.46372  344  3.1164   355  -8.4  62    -14.4 0     0     1007.2   NA       0.0000   9999     0     0     0    
2019/08/17  00:07:03  BASE  2.4696   344  2.81064  345  -8.4  63    -14.3 0     0     1007.2   NA       0.0000   9999     0     0     0    
2019/08/17  00:08:03  BASE  2.793    347  3.29868  349  -8.4  63    -14.2 0     0     1007.2   NA       0.0000   9999     0     0     0    
2019/08/17  00:09:03  BASE  3.0576   351  3.32808  347  -8.4  64    -14.0 0     0     1007.2   NA       0.0000   9999     0     0     0    
2019/08/17  00:10:03  BASE  2.69304  351  3.32808  347  -8.3  64    -13.8 0     0     1007.2   NA       0.0000   9999     0     0     0    
2019/08/17  00:11:03  BASE  2.53428  347  3.32808  347  -8.2  65    -13.7 0     0     1007.2   NA       0.0000   9999     0     0     0    
2019/08/17  00:12:03  BASE  2.80476  345  3.32808  347  -8.1  65    -13.6 0     0     1007.3   NA       0.0000   9999     0     0     0    
2019/08/17  00:13:03  BASE  2.95764  350  3.32808  347  -8.1  65    -13.4 0     0     1007.3   NA       0.0000   9999     0     0     0    
2019/08/17  00:14:03  BASE  2.86944  357  3.32808  347  -8.0  65    -13.4 0     0     1007.3   NA       0.0000   9999     0     0     0    
2019/08/17  00:15:03  BASE  2.51664  358  3.32808  347  -8.3  65    -13.6 0     0     1007.3   NA       0.0000   9999     0     0     0    
2019/08/17  00:16:03  BASE  2.05212  358  3.32808  347  -8.5  66    -13.8 0     0     1007.3   NA       0.0000   9999     0     0     0    
2019/08/17  00:17:03  BASE  1.9698   4    3.32808  347  -8.6  66    -13.7 0     0     1007.3   NA       0.0000   9999     0     0     0    
2019/08/17  00:18:02  BASE  1.92864  1    3.32808  347  -8.7  67    -13.7 0     0     1007.5   NA       0.0000   9999     0     0     0    
2019/08/17  00:19:03  BASE  1.71696  3    3.29868  354  -8.8  68    -13.7 0     0     1007.5   NA       0.0000   9999     0     0     0    
2019/08/17  00:20:03  BASE  1.71696  7    3.29868  354  -8.7  69    -13.4 0     0     1007.6   NA       0.0000   9999     0     0     0    
2019/08/17  00:21:03  BASE  1.93452  5    3.29868  354  -8.6  69    -13.2 0     0     1007.6   NA       0.0000   9999     0     0     0    
2019/08/17  00:22:03  BASE  2.29908  5    3.29868  354  -8.7  70    -13.2 0     0     1007.6   NA       0.0000   9999     0     0     0    
2019/08/17  00:23:03  BASE  2.2638   8    2.96352  3    -8.6  70    -13.1 0     0     1007.6   NA       0.0000   9999     0     0     0    
2019/08/17  00:24:03  BASE  2.24028  9    2.56956  1    -8.6  70    -13.1 0     0     1007.6   NA       0.0000   9999     0     0     0    
2019/08/17  00:25:03  BASE  2.2638   6    2.56956  1    -8.7  70    -13.1 0     0     1007.6   NA       0.0000   9999     0     0     0    
2019/08/17  00:26:03  BASE  2.08152  10   2.56956  1    -8.7  70    -13.2 0     0     1007.6   NA       0.0000   9999     0     0     0    
2019/08/17  00:27:03  BASE  1.9404   14   2.56956  1    -8.8  70    -13.2 0     0     1007.6   NA       0.0000   9999     0     0     0    
2019/08/17  00:28:03  BASE  2.01684  13   2.56956  1    -8.8  70    -13.2 0     0     1007.6   NA       0.0000   9999     0     0     0    
2019/08/17  00:29:03  BASE  2.07564  15   2.56956  1    -8.8  70    -13.2 0     0     1007.6   NA       0.0000   9999     0     0     0    
2019/08/17  00:30:03  BASE  2.04036  20   2.56956  1    -8.7  70    -13.2 0     0     1007.6   NA       0.0000   9999     0     0     0    
2019/08/17  00:31:03  BASE  2.09916  23   2.56956  1    -8.7  70    -13.1 0     0     1007.6   NA       0.0000   9999     0     0     0    
2019/08/17  00:32:03  BASE  2.13444  21   2.90472  8    -8.6  70    -13.1 0     0     1007.7   NA       0.0000   9999     0     0     0    
2019/08/17  00:33:02  BASE  1.86984  27   2.90472  8    -8.6  70    -13.2 0     0     1007.7   NA       0.0000   9999     0     0     0    
2019/08/17  00:34:02  BASE  1.56408  45   2.90472  8    -8.6  69    -13.2 0     0     1007.7   NA       0.0000   9999     0     0     0    
2019/08/17  00:35:03  BASE  1.81692  51   2.90472  8    -8.5  69    -13.2 0     0     1007.7   NA       0.0000   9999     0     0     0    
2019/08/17  00:36:03  BASE  2.34024  44   2.90472  8    -8.4  69    -13.2 0     0     1007.7   NA       0.0000   9999     0     0     0    
2019/08/17  00:37:03  BASE  2.49312  40   2.90472  8    -8.3  68    -13.2 0     0     1007.7   NA       0.0000   9999     0     0     0    
2019/08/17  00:38:03  BASE  2.43432  42   2.90472  8    -8.2  68    -13.2 0     0     1007.7   NA       0.0000   9999     0     0     0    
2019/08/17  00:39:02  BASE  2.53428  39   2.96352  29   -8.2  67    -13.3 0     0     1007.7   NA       0.0000   9999     0     0     0    
2019/08/17  00:40:02  BASE  2.39316  38   2.96352  29   -8.2  66    -13.3 0     0     1007.7   NA       0.0000   9999     0     0     0    
2019/08/17  00:41:03  BASE  1.98156  36   2.96352  29   -8.2  66    -13.4 0     0     1007.7   NA       0.0000   9999     0     0     0    
2019/08/17  00:42:03  BASE  1.79928  29   2.96352  29   -8.2  65    -13.6 0     0     1007.8   NA       0.0000   9999     0     0     0    
2019/08/17  00:43:02  BASE  1.80516  29   2.96352  29   -8.3  65    -13.6 0     0     1007.8   NA       0.0000   9999     0     0     0    
2019/08/17  00:44:03  BASE  1.9698   21   2.96352  29   -8.3  65    -13.7 0     0     1007.7   NA       0.0000   9999     0     0     0    
2019/08/17  00:45:02  BASE  2.15796  14   2.96352  29   -8.3  65    -13.7 0     0     1007.7   NA       0.0000   9999     0     0     0    
2019/08/17  00:46:03  BASE  2.24616  14   2.96352  29   -8.3  65    -13.7 0     0     1007.7   NA       0.0000   9999     0     0     0    
2019/08/17  00:47:02  BASE  2.05212  15   2.96352  29   -8.3  65    -13.7 0     0     1007.7   NA       0.0000   9999     0     0     0    
2019/08/17  00:48:03  BASE  1.62876  24   2.96352  29   -8.4  65    -13.7 0     0     1007.7   NA       0.0000   9999     0     0     0    
2019/08/17  00:49:03  BASE  1.51116  23   2.56956  23   -8.4  65    -13.7 0     0     1007.8   NA       0.0000   9999     0     0     0    
2019/08/17  00:50:02  BASE  1.48176  15   2.56956  23   -8.4  65    -13.7 0     0     1007.8   NA       0.0000   9999     0     0     0    
2019/08/17  00:51:03  BASE  1.31712  11   2.56956  23   -8.4  66    -13.7 0     0     1007.8   NA       0.0000   9999     0     0     0    
2019/08/17  00:52:03  BASE  1.08192  8    2.56956  23   -8.3  66    -13.6 0     0     1007.8   NA       0.0000   9999     0     0     0    
2019/08/17  00:53:03  BASE  1.12896  13   2.56956  23   -8.3  66    -13.5 0     0     1007.8   NA       0.0000   9999     0     0     0    
2019/08/17  00:54:02  BASE  1.14072  23   2.56956  23   -8.2  66    -13.4 0     0     1007.8   NA       0.0000   9999     0     0     0    
2019/08/17  00:55:03  BASE  0.9114   37   2.56956  23   -8.1  66    -13.4 0     0     1007.8   NA       0.0000   9999     0     0     0    
2019/08/17  00:56:03  BASE  0.90552  44   2.0286   9    -8.1  66    -13.4 0     0     1007.8   NA       0.0000   9999     0     0     0    
2019/08/17  00:57:04  BASE  1.42296  37   2.0874   26   -8.1  66    -13.4 0     0     1007.8   NA       0.0000   9999     0     0     0    
2019/08/17  00:58:03  BASE  2.01096  21   2.29908  8    -8.2  65    -13.5 0     0     1007.8   NA       0.0000   9999     0     0     0    
2019/08/17  00:59:03  BASE  1.98156  14   2.29908  8    -8.2  65    -13.6 0     0     1007.8   NA       0.0000   9999     0     0     0    
2019/08/17  01:00:02  BASE  1.71696  25   2.29908  8    -8.3  65    -13.7 0     0     1007.8   NA       0.0000   9999     0     0     0    
2019/08/17  01:01:02  BASE  1.59348  42   2.29908  8    -8.4  65    -13.8 0     0     1007.8   NA       0.0000   9999     0     0     0    
2019/08/17  01:02:03  BASE  1.86396  46   2.35788  46   -8.5  65    -13.9 0     0     1007.8   NA       0.0000   9999     0     0     0    
2019/08/17  01:03:03  BASE  2.55192  53   3.44568  65   -8.5  65    -13.9 0     0     1007.8   NA       0.0000   9999     0     0     0    
2019/08/17  01:04:04  BASE  2.69892  59   3.44568  65   -8.6  65    -14.0 0     0     1007.8   NA       0.0000   9999     0     0     0    
2019/08/17  01:05:03  BASE  2.48724  59   3.44568  65   -8.6  65    -14.0 0     0     1007.8   NA       0.0000   9999     0     0     0    
2019/08/17  01:06:03  BASE  2.7342   60   3.44568  65   -8.7  65    -14.0 0     0     1007.8   NA       0.0000   9999     0     0     0    
2019/08/17  01:07:02  BASE  2.87532  57   3.44568  65   -8.7  65    -14.1 0     0     1007.8   NA       0.0000   9999     0     0     0    
2019/08/17  01:08:02  BASE  2.8518   57   3.44568  65   -8.7  65    -14.1 0     0     1007.8   NA       0.0000   9999     0     0     0    
2019/08/17  01:09:03  BASE  2.62836  55   3.44568  65   -8.7  66    -14.0 0     0     1007.8   NA       0.0000   9999     0     0     0    
2019/08/17  01:10:03  BASE  2.3226   52   3.44568  65   -8.7  65    -14.0 0     0     1007.9   NA       0.0000   9999     0     0     0    
2019/08/17  01:11:02  BASE  2.07564  49   3.44568  65   -8.6  65    -13.9 0     0     1007.9   NA       0.0000   9999     0     0     0    
2019/08/17  01:12:03  BASE  1.89924  39   3.44568  65   -8.5  65    -13.9 0     0     1007.9   NA       0.0000   9999     0     0     0    
2019/08/17  01:13:02  BASE  1.75224  30   3.1164   56   -8.5  65    -13.8 0     0     1007.9   NA       0.0000   9999     0     0     0    
2019/08/17  01:14:03  BASE  1.59936  31   3.1164   56   -8.4  65    -13.8 0     0     1008.0   NA       0.0000   9999     0     0     0    
2019/08/17  01:15:03  BASE  1.57584  32   3.1164   56   -8.3  65    -13.8 0     0     1008.0   NA       0.0000   9999     0     0     0    
2019/08/17  01:16:02  BASE  1.57584  28   3.1164   56   -8.3  65    -13.7 0     0     1008.1   NA       0.0000   9999     0     0     0    
2019/08/17  01:17:02  BASE  1.68756  31   3.1164   56   -8.2  64    -13.7 0     0     1008.2   NA       0.0000   9999     0     0     0    
2019/08/17  01:18:08  BASE  1.9404   36   2.93412  47   -8.2  64    -13.7 0     0     1008.2   NA       0.0000   9999     0     0     0    
2019/08/17  01:19:00  BASE  2.42844  42   3.2046   47   -8.2  64    -13.8 0     0     1008.3   NA       0.0000   9999     0     0     0    
2019/08/17  01:20:03  BASE  2.71068  48   3.2046   47   -8.3  64    -13.9 0     0     1008.3   NA       0.0000   9999     0     0     0    
2019/08/17  01:21:02  BASE  2.68128  54   3.2046   47   -8.4  64    -14.0 0     0     1008.3   NA       0.0000   9999     0     0     0    
2019/08/17  01:22:03  BASE  2.62248  55   3.2046   47   -8.5  64    -14.1 0     0     1008.4   NA       0.0000   9999     0     0     0    
2019/08/17  01:23:03  BASE  2.63424  52   3.2046   47   -8.7  65    -14.2 0     0     1008.4   NA       0.0000   9999     0     0     0    
2019/08/17  01:24:03  BASE  3.09288  46   3.65736  40   -8.8  65    -14.1 0     0     1008.3   NA       0.0000   9999     0     0     0    
2019/08/17  01:25:02  BASE  3.36336  42   3.96312  44   -8.9  66    -14.1 0     0     1008.3   NA       0.0000   9999     0     0     0    
2019/08/17  01:26:02  BASE  2.8812   45   3.96312  44   -9.0  67    -14.0 0     0     1008.3   NA       0.0000   9999     0     0     0    
2019/08/17  01:27:03  BASE  2.32848  41   3.96312  44   -8.9  68    -13.8 0     0     1008.4   NA       0.0000   9999     0     0     0    
2019/08/17  01:28:03  BASE  2.12856  44   3.96312  44   -8.9  68    -13.8 0     0     1008.4   NA       0.0000   9999     0     0     0    
2019/08/17  01:29:02  BASE  2.11092  48   3.96312  44   -9.0  68    -13.8 0     0     1008.4   NA       0.0000   9999     0     0     0    
2019/08/17  01:30:03  BASE  2.14032  47   3.96312  44   -9.0  68    -13.7 0     0     1008.4   NA       0.0000   9999     0     0     0    
2019/08/17  01:31:02  BASE  2.56956  53   3.96312  44   -9.1  68    -13.9 0     0     1008.4   NA       0.0000   9999     0     0     0    
2019/08/17  01:32:02  BASE  3.11052  44   3.96312  44   -9.3  69    -14.0 0     0     1008.4   NA       0.0000   9999     0     0     0    
2019/08/17  01:33:03  BASE  3.03408  39   3.96312  44   -9.3  69    -13.9 0     0     1008.4   NA       0.0000   9999     0     0     0    
2019/08/17  01:34:03  BASE  2.77536  43   3.96312  44   -9.3  70    -13.7 0     0     1008.4   NA       0.0000   9999     0     0     0    
2019/08/17  01:35:03  BASE  2.3226   43   3.51036  43   -9.2  71    -13.6 0     0     1008.4   NA       0.0000   9999     0     0     0    
2019/08/17  01:36:03  BASE  1.82868  48   3.51036  43   -9.1  72    -13.3 0     0     1008.4   NA       0.0000   9999     0     0     0    
2019/08/17  01:37:02  BASE  1.57584  57   3.51036  43   -8.9  72    -13.0 0     0     1008.4   NA       0.0000   9999     0     0     0    
2019/08/17  01:38:03  BASE  1.47     63   3.51036  43   -8.9  73    -12.9 0     0     1008.4   NA       0.0000   9999     0     0     0    
2019/08/17  01:39:03  BASE  1.59348  56   3.51036  43   -8.9  73    -12.9 0     0     1008.4   NA       0.0000   9999     0     0     0    
2019/08/17  01:40:03  BASE  1.617    51   3.51036  43   -8.9  73    -12.8 0     0     1008.4   NA       0.0000   9999     0     0     0    
2019/08/17  01:41:02  BASE  1.43472  47   3.51036  43   -8.9  73    -12.8 0     0     1008.4   NA       0.0000   9999     0     0     0    
2019/08/17  01:42:03  BASE  1.28184  40   3.35748  39   -8.8  73    -12.7 0     0     1008.4   NA       0.0000   9999     0     0     0    
2019/08/17  01:43:02  BASE  1.22304  46   3.1458   37   -8.6  73    -12.6 0     0     1008.4   NA       0.0000   9999     0     0     0    
2019/08/17  01:44:03  BASE  1.44648  57   2.51076  35   -8.5  73    -12.5 0     0     1008.4   NA       0.0000   9999     0     0     0    
2019/08/17  01:45:02  BASE  1.66404  59   2.1462   62   -8.4  73    -12.4 0     0     1008.4   NA       0.0000   9999     0     0     0    
2019/08/17  01:46:03  BASE  1.71696  59   2.26968  68   -8.2  73    -12.3 0     0     1008.4   NA       0.0000   9999     0     0     0    
2019/08/17  01:47:03  BASE  1.92276  60   2.59896  55   -8.2  72    -12.3 0     0     1008.4   NA       0.0000   9999     0     0     0    
2019/08/17  01:48:02  BASE  2.10504  63   2.59896  55   -8.1  72    -12.3 0     0     1008.5   NA       0.0000   9999     0     0     0    
2019/08/17  01:49:02  BASE  1.8816   62   2.59896  55   -8.1  71    -12.3 0     0     1008.6   NA       0.0000   9999     0     0     0    
2019/08/17  01:50:03  BASE  1.81104  59   2.59896  55   -8.0  71    -12.4 0     0     1008.6   NA       0.0000   9999     0     0     0    
2019/08/17  01:51:02  BASE  2.11092  62   2.87532  62   -8.0  71    -12.4 0     0     1008.6   NA       0.0000   9999     0     0     0    
2019/08/17  01:52:03  BASE  2.42256  58   2.93412  53   -7.9  70    -12.4 0     0     1008.6   NA       0.0000   9999     0     0     0    
2019/08/17  01:53:03  BASE  2.5578   54   2.99292  52   -8.0  70    -12.5 0     0     1008.6   NA       0.0000   9999     0     0     0    
2019/08/17  01:54:02  BASE  2.08152  56   2.99292  52   -8.0  70    -12.6 0     0     1008.6   NA       0.0000   9999     0     0     0    
2019/08/17  01:55:03  BASE  1.76988  59   3.02232  69   -8.1  70    -12.6 0     0     1008.6   NA       0.0000   9999     0     0     0    
2019/08/17  01:56:03  BASE  2.24616  63   3.1164   65   -8.1  70    -12.7 0     0     1008.6   NA       0.0000   9999     0     0     0    
2019/08/17  01:57:02  BASE  2.4696   67   3.1164   65   -8.1  70    -12.7 0     0     1008.7   NA       0.0000   9999     0     0     0    
2019/08/17  01:58:02  BASE  2.24028  60   3.1164   65   -8.1  70    -12.6 0     0     1008.7   NA       0.0000   9999     0     0     0    
2019/08/17  01:59:03  BASE  2.00508  53   3.1164   65   -8.1  70    -12.6 0     0     1008.7   NA       0.0000   9999     0     0     0    
2019/08/17  02:00:03  BASE  2.01096  54   3.1164   65   -8.2  70    -12.7 0     0     1008.7   NA       0.0000   9999     0     0     0    
2019/08/17  02:01:02  BASE  2.60484  60   3.72204  66   -8.3  70    -12.8 0     0     1008.7   NA       0.0000   9999     0     0     0    
2019/08/17  02:02:03  BASE  2.86356  69   3.72204  66   -8.5  70    -12.9 0     0     1008.7   NA       0.0000   9999     0     0     0    
2019/08/17  02:03:03  BASE  2.72244  76   3.72204  66   -8.6  71    -13.0 0     0     1008.7   NA       0.0000   9999     0     0     0    
2019/08/17  02:04:04  BASE  3.1164   78   3.96312  81   -8.8  71    -13.1 0     0     1008.7   NA       0.0000   9999     0     0     0    
2019/08/17  02:05:03  BASE  3.16344  77   3.96312  81   -8.9  71    -13.1 0     0     1008.7   NA       0.0000   9999     0     0     0    
2019/08/17  02:06:03  BASE  2.62248  78   3.96312  81   -8.9  72    -13.1 0     0     1008.7   NA       0.0000   9999     0     0     0    
2019/08/17  02:07:03  BASE  2.14032  91   3.96312  81   -9.0  72    -13.1 0     0     1008.7   NA       0.0000   9999     0     0     0    
2019/08/17  02:08:03  BASE  1.56408  99   3.96312  81   -9.1  73    -13.2 0     0     1008.7   NA       0.0000   9999     0     0     0    
2019/08/17  02:09:02  BASE  0.6174   102  3.96312  81   -9.3  73    -13.2 0     0     1008.7   NA       0.0000   9999     0     0     0    
2019/08/17  02:10:02  BASE  0        139  3.96312  81   -9.3  73    -13.2 0     0     1008.7   NA       0.0000   9999     0     0     0    
2019/08/17  02:11:02  BASE  0        140  3.96312  81   -9.4  73    -13.3 0     0     1008.7   NA       0.0000   9999     0     0     0    
2019/08/17  02:12:03  BASE  0.61152  80   3.96312  81   -9.4  74    -13.3 0     0     1008.8   NA       0.0000   9999     0     0     0    
2019/08/17  02:13:03  BASE  0.68208  43   3.96312  81   -9.4  74    -13.2 0     0     1008.8   NA       0.0000   9999     0     0     0    
2019/08/17  02:14:02  BASE  0.62328  42   3.234    86   -9.3  74    -13.1 0     0     1008.8   NA       0.0000   9999     0     0     0    
2019/08/17  02:15:03  BASE  0.93492  61   3.02232  71   -9.3  75    -13.0 0     0     1008.8   NA       0.0000   9999     0     0     0    
2019/08/17  02:16:03  BASE  1.28772  65   2.54016  56   -9.3  75    -12.9 0     0     1008.8   NA       0.0000   9999     0     0     0    
2019/08/17  02:17:03  BASE  2.058    50   3.02232  29   -9.3  75    -12.9 0     0     1008.8   NA       0.0000   9999     0     0     0    
2019/08/17  02:18:02  BASE  2.03448  38   3.02232  29   -9.3  75    -12.8 0     0     1008.8   NA       0.0000   9999     0     0     0    
2019/08/17  02:19:02  BASE  1.4406   45   3.02232  29   -9.2  75    -12.7 0     0     1008.8   NA       0.0000   9999     0     0     0    
2019/08/17  02:20:03  BASE  0.9702   46   3.02232  29   -9.1  76    -12.6 0     0     1008.9   NA       0.0000   9999     0     0     0    
2019/08/17  02:21:03  BASE  1.01136  33   3.02232  29   -9.0  76    -12.5 0     0     1008.9   NA       0.0000   9999     0     0     0    
2019/08/17  02:22:02  BASE  1.2348   30   3.02232  29   -8.8  76    -12.3 0     0     1009.0   NA       0.0000   9999     0     0     0    
2019/08/17  02:23:03  BASE  1.32888  35   3.02232  29   -8.6  76    -12.1 0     0     1009.0   NA       0.0000   9999     0     0     0    
2019/08/17  02:24:02  BASE  1.61112  24   3.02232  29   -8.5  75    -12.1 0     0     1009.0   NA       0.0000   9999     0     0     0    
2019/08/17  02:25:03  BASE  1.90512  16   3.02232  29   -8.4  75    -12.1 0     0     1009.0   NA       0.0000   9999     0     0     0    
2019/08/17  02:26:02  BASE  2.28732  18   3.02232  29   -8.4  74    -12.2 0     0     1009.0   NA       0.0000   9999     0     0     0    
2019/08/17  02:27:03  BASE  2.5578   27   2.96352  23   -8.5  74    -12.4 0     0     1009.1   NA       0.0000   9999     0     0     0    
2019/08/17  02:28:03  BASE  2.48136  33   2.96352  23   -8.6  73    -12.5 0     0     1009.1   NA       0.0000   9999     0     0     0    
2019/08/17  02:29:03  BASE  2.18736  41   2.96352  23   -8.7  73    -12.6 0     0     1009.1   NA       0.0000   9999     0     0     0    
2019/08/17  02:30:02  BASE  1.99332  50   2.96352  23   -8.7  73    -12.7 0     0     1009.1   NA       0.0000   9999     0     0     0    
2019/08/17  02:31:02  BASE  2.22264  50   2.96352  23   -8.8  73    -12.8 0     0     1009.1   NA       0.0000   9999     0     0     0    
2019/08/17  02:32:03  BASE  2.54016  48   2.96352  23   -8.8  72    -12.8 0     0     1009.1   NA       0.0000   9999     0     0     0    
2019/08/17  02:33:02  BASE  2.44608  52   2.96352  23   -8.8  72    -12.9 0     0     1009.1   NA       0.0000   9999     0     0     0    
2019/08/17  02:34:02  BASE  2.22264  55   2.96352  23   -8.8  72    -12.9 0     0     1009.1   NA       0.0000   9999     0     0     0    
2019/08/17  02:35:02  BASE  2.29908  57   2.96352  23   -8.8  72    -13.0 0     0     1009.1   NA       0.0000   9999     0     0     0    
2019/08/17  02:36:03  BASE  2.21088  58   2.93412  44   -8.8  72    -13.0 0     0     1009.1   NA       0.0000   9999     0     0     0    
2019/08/17  02:37:03  BASE  2.2638   62   2.93412  44   -8.8  72    -12.9 0     0     1009.1   NA       0.0000   9999     0     0     0    
2019/08/17  02:38:02  BASE  2.64012  66   3.234    71   -8.7  72    -12.9 0     0     1009.1   NA       0.0000   9999     0     0     0    
2019/08/17  02:39:02  BASE  2.88708  69   3.35748  72   -8.7  72    -12.8 0     0     1009.1   NA       0.0000   9999     0     0     0    
2019/08/17  02:40:03  BASE  2.65188  72   3.35748  72   -8.6  72    -12.8 0     0     1009.1   NA       0.0000   9999     0     0     0    
2019/08/17  02:41:03  BASE  2.1756   72   3.35748  72   -8.6  71    -12.9 0     0     1009.1   NA       0.0000   9999     0     0     0    
2019/08/17  02:42:02  BASE  1.86984  65   3.35748  72   -8.6  71    -12.9 0     0     1009.1   NA       0.0000   9999     0     0     0    
2019/08/17  02:43:02  BASE  1.56996  56   3.35748  72   -8.6  71    -12.9 0     0     1009.1   NA       0.0000   9999     0     0     0    
2019/08/17  02:44:03  BASE  1.18776  49   3.35748  72   -8.5  71    -12.9 0     0     1009.1   NA       0.0000   9999     0     0     0    
2019/08/17  02:45:02  BASE  0.92904  46   3.35748  72   -8.5  70    -12.9 0     0     1009.1   NA       0.0000   9999     0     0     0    
2019/08/17  02:46:03  BASE  1.04664  51   3.35748  72   -8.4  70    -12.8 0     0     1009.1   NA       0.0000   9999     0     0     0    
2019/08/17  02:47:03  BASE  1.34652  59   3.35748  72   -8.3  70    -12.9 0     0     1009.1   NA       0.0000   9999     0     0     0    
2019/08/17  02:48:03  BASE  1.25832  55   3.35748  72   -8.3  70    -12.9 0     0     1009.1   NA       0.0000   9999     0     0     0    
2019/08/17  02:49:02  BASE  1.176    50   2.45196  68   -8.4  69    -13.0 0     0     1009.2   NA       0.0000   9999     0     0     0    
2019/08/17  02:50:02  BASE  1.57584  54   2.48136  55   -8.5  69    -13.1 0     0     1009.2   NA       0.0000   9999     0     0     0    
2019/08/17  02:51:02  BASE  1.81104  55   2.48136  55   -8.6  70    -13.2 0     0     1009.2   NA       0.0000   9999     0     0     0    
2019/08/17  02:52:02  BASE  1.617    53   2.48136  55   -8.6  70    -13.1 0     0     1009.2   NA       0.0000   9999     0     0     0    
2019/08/17  02:53:02  BASE  1.49352  57   2.48136  55   -8.6  70    -13.2 0     0     1009.3   NA       0.0000   9999     0     0     0    
2019/08/17  02:54:02  BASE  1.81104  62   2.63424  66   -8.6  70    -13.1 0     0     1009.3   NA       0.0000   9999     0     0     0    
2019/08/17  02:55:03  BASE  2.352    63   2.93412  60   -8.6  70    -13.1 0     0     1009.4   NA       0.0000   9999     0     0     0    
2019/08/17  02:56:02  BASE  2.31672  62   2.93412  60   -8.5  70    -12.9 0     0     1009.4   NA       0.0000   9999     0     0     0    
2019/08/17  02:57:03  BASE  1.84632  56   2.93412  60   -8.3  70    -12.9 0     0     1009.4   NA       0.0000   9999     0     0     0    
2019/08/17  02:58:03  BASE  1.71108  51   2.93412  60   -8.2  69    -12.8 0     0     1009.4   NA       0.0000   9999     0     0     0    
2019/08/17  02:59:02  BASE  1.81692  45   2.93412  60   -8.1  69    -12.8 0     0     1009.4   NA       0.0000   9999     0     0     0    
2019/08/17  03:00:02  BASE  1.87572  39   2.93412  60   -8.1  68    -12.9 0     0     1009.4   NA       0.0000   9999     0     0     0    
2019/08/17  03:01:03  BASE  1.81104  33   2.93412  60   -8.3  68    -13.1 0     0     1009.4   NA       0.0000   9999     0     0     0    
2019/08/17  03:02:03  BASE  1.75224  21   2.93412  60   -8.4  68    -13.3 0     0     1009.4   NA       0.0000   9999     0     0     0    
2019/08/17  03:03:02  BASE  1.45236  17   2.93412  60   -8.6  68    -13.5 0     0     1009.4   NA       0.0000   9999     0     0     0    
2019/08/17  03:04:04  BASE  1.2054   23   2.93412  60   -8.8  68    -13.6 0     0     1009.4   NA       0.0000   9999     0     0     0    
2019/08/17  03:05:03  BASE  1.13484  26   2.26968  65   -8.9  69    -13.6 0     0     1009.4   NA       0.0000   9999     0     0     0    
2019/08/17  03:06:03  BASE  1.04076  30   2.1756   36   -9.0  70    -13.5 0     0     1009.4   NA       0.0000   9999     0     0     0    
2019/08/17  03:07:02  BASE  1.01724  44   2.1756   36   -9.0  70    -13.4 0     0     1009.4   NA       0.0000   9999     0     0     0    
2019/08/17  03:08:03  BASE  1.06428  57   2.1756   36   -8.9  71    -13.3 0     0     1009.4   NA       0.0000   9999     0     0     0    
2019/08/17  03:09:03  BASE  1.16424  67   2.0874   23   -8.8  71    -13.1 0     0     1009.5   NA       0.0000   9999     0     0     0    
2019/08/17  03:10:02  BASE  1.12308  70   2.0874   23   -8.6  71    -12.9 0     0     1009.5   NA       0.0000   9999     0     0     0    
2019/08/17  03:11:02  BASE  1.00548  66   1.96392  17   -8.5  71    -12.8 0     0     1009.5   NA       0.0000   9999     0     0     0    
2019/08/17  03:12:02  BASE  1.04076  68   1.48176  25   -8.4  71    -12.8 0     0     1009.6   NA       0.0000   9999     0     0     0    
2019/08/17  03:13:02  BASE  1.10544  68   1.29948  77   -8.3  70    -12.7 0     0     1009.5   NA       0.0000   9999     0     0     0    
2019/08/17  03:14:03  BASE  0.95844  72   1.42296  79   -8.2  70    -12.7 0     0     1009.5   NA       0.0000   9999     0     0     0    
2019/08/17  03:15:03  BASE  0.81144  68   1.42296  79   -8.2  70    -12.7 0     0     1009.5   NA       0.0000   9999     0     0     0    
2019/08/17  03:16:02  BASE  0.7056   60   1.42296  79   -8.2  70    -12.7 0     0     1009.5   NA       0.0000   9999     0     0     0    
2019/08/17  03:17:02  BASE  0.7938   43   1.42296  79   -8.3  70    -12.8 0     0     1009.5   NA       0.0000   9999     0     0     0    
2019/08/17  03:18:02  BASE  1.07604  18   1.42296  79   -8.4  70    -12.9 0     0     1009.6   NA       0.0000   9999     0     0     0    
2019/08/17  03:19:02  BASE  1.30536  11   1.57584  7    -8.6  70    -13.2 0     0     1009.6   NA       0.0000   9999     0     0     0    
2019/08/17  03:20:02  BASE  1.4406   10   1.57584  7    -8.9  70    -13.4 0     0     1009.6   NA       0.0000   9999     0     0     0    
2019/08/17  03:21:03  BASE  1.41708  15   1.57584  7    -9.2  70    -13.6 0     0     1009.6   NA       0.0000   9999     0     0     0    
2019/08/17  03:22:03  BASE  1.54644  23   1.81692  36   -9.4  71    -13.7 0     0     1009.6   NA       0.0000   9999     0     0     0    
2019/08/17  03:23:02  BASE  1.74636  29   1.90512  33   -9.4  72    -13.6 0     0     1009.5   NA       0.0000   9999     0     0     0    
2019/08/17  03:24:02  BASE  1.93452  31   2.32848  29   -9.4  73    -13.4 0     0     1009.5   NA       0.0000   9999     0     0     0    
2019/08/17  03:25:03  BASE  1.99332  29   2.32848  29   -9.3  73    -13.2 0     0     1009.5   NA       0.0000   9999     0     0     0    
2019/08/17  03:26:03  BASE  1.91688  28   2.32848  29   -9.2  73    -13.1 0     0     1009.5   NA       0.0000   9999     0     0     0    
2019/08/17  03:27:02  BASE  1.80516  26   2.32848  29   -9.1  73    -13.0 0     0     1009.5   NA       0.0000   9999     0     0     0    
2019/08/17  03:28:03  BASE  1.69932  20   2.32848  29   -9.1  73    -13.1 0     0     1009.6   NA       0.0000   9999     0     0     0    
2019/08/17  03:29:02  BASE  1.7052   16   2.32848  29   -9.1  73    -13.1 0     0     1009.6   NA       0.0000   9999     0     0     0    
2019/08/17  03:30:03  BASE  1.617    19   2.32848  29   -9.1  73    -13.0 0     0     1009.6   NA       0.0000   9999     0     0     0    
2019/08/17  03:31:03  BASE  1.57584  26   2.32848  29   -9.1  73    -13.0 0     0     1009.5   NA       0.0000   9999     0     0     0    
2019/08/17  03:32:03  BASE  1.62288  32   2.32848  29   -9.0  73    -12.9 0     0     1009.5   NA       0.0000   9999     0     0     0    
2019/08/17  03:33:02  BASE  1.65816  32   2.32848  29   -9.0  73    -12.9 0     0     1009.4   NA       0.0000   9999     0     0     0    
2019/08/17  03:34:02  BASE  1.7052   28   2.1462   31   -8.9  73    -12.8 0     0     1009.4   NA       0.0000   9999     0     0     0    
2019/08/17  03:35:03  BASE  1.69932  29   2.0874   27   -8.9  73    -12.9 0     0     1009.4   NA       0.0000   9999     0     0     0    
2019/08/17  03:36:02  BASE  1.66992  32   1.93452  19   -8.9  73    -12.9 0     0     1009.4   NA       0.0000   9999     0     0     0    
2019/08/17  03:37:02  BASE  1.7346   34   1.93452  19   -9.0  73    -12.9 0     0     1009.4   NA       0.0000   9999     0     0     0    
2019/08/17  03:38:03  BASE  1.8228   38   1.90512  41   -9.1  73    -13.0 0     0     1009.4   NA       0.0000   9999     0     0     0    
2019/08/17  03:39:02  BASE  1.911    41   2.0874   43   -9.2  73    -13.1 0     0     1009.5   NA       0.0000   9999     0     0     0    
2019/08/17  03:40:03  BASE  1.9992   44   2.1462   43   -9.3  73    -13.2 0     0     1009.5   NA       0.0000   9999     0     0     0    
2019/08/17  03:41:02  BASE  2.09328  41   2.24028  37   -9.3  74    -13.2 0     0     1009.5   NA       0.0000   9999     0     0     0    
2019/08/17  03:42:03  BASE  2.21088  38   2.29908  35   -9.4  74    -13.2 0     0     1009.5   NA       0.0000   9999     0     0     0    
2019/08/17  03:43:02  BASE  2.2344   36   2.42256  32   -9.4  74    -13.1 0     0     1009.5   NA       0.0000   9999     0     0     0    
2019/08/17  03:44:02  BASE  2.28732  35   2.48136  35   -9.4  75    -13.1 0     0     1009.5   NA       0.0000   9999     0     0     0    
2019/08/17  03:45:02  BASE  2.31672  37   2.48136  35   -9.4  75    -13.0 0     0     1009.5   NA       0.0000   9999     0     0     0    
2019/08/17  03:46:03  BASE  2.24028  38   2.48136  35   -9.4  75    -13.0 0     0     1009.5   NA       0.0000   9999     0     0     0    
2019/08/17  03:47:02  BASE  2.32848  37   2.56956  39   -9.4  75    -13.0 0     0     1009.4   NA       0.0000   9999     0     0     0    
2019/08/17  03:48:02  BASE  2.47548  36   2.63424  36   -9.4  75    -12.9 0     0     1009.4   NA       0.0000   9999     0     0     0    
2019/08/17  03:49:02  BASE  2.46372  36   2.63424  36   -9.4  76    -12.9 0     0     1009.4   NA       0.0000   9999     0     0     0    
2019/08/17  03:50:03  BASE  2.39316  40   2.63424  36   -9.4  76    -12.8 0     0     1009.4   NA       0.0000   9999     0     0     0    
2019/08/17  03:51:03  BASE  2.43432  43   2.66364  42   -9.3  76    -12.8 0     0     1009.4   NA       0.0000   9999     0     0     0    
2019/08/17  03:52:03  BASE  2.47548  45   2.72244  43   -9.3  76    -12.8 0     0     1009.4   NA       0.0000   9999     0     0     0    
2019/08/17  03:53:02  BASE  2.32848  51   2.72244  43   -9.3  76    -12.7 0     0     1009.5   NA       0.0000   9999     0     0     0    
2019/08/17  03:54:02  BASE  2.15796  54   2.72244  43   -9.2  76    -12.7 0     0     1009.6   NA       0.0000   9999     0     0     0    
2019/08/17  03:55:02  BASE  2.06388  54   2.72244  43   -9.2  76    -12.6 0     0     1009.6   NA       0.0000   9999     0     0     0    
2019/08/17  03:56:02  BASE  1.97568  54   2.72244  43   -9.1  76    -12.6 0     0     1009.6   NA       0.0000   9999     0     0     0    
2019/08/17  03:57:03  BASE  1.83456  53   2.72244  43   -9.1  76    -12.5 0     0     1009.6   NA       0.0000   9999     0     0     0    
2019/08/17  03:58:02  BASE  1.71108  50   2.72244  43   -9.0  76    -12.5 0     0     1009.6   NA       0.0000   9999     0     0     0    
2019/08/17  03:59:03  BASE  1.7052   47   2.72244  43   -9.0  76    -12.5 0     0     1009.6   NA       0.0000   9999     0     0     0    
2019/08/17  04:00:03  BASE  1.71108  45   2.72244  43   -9.0  76    -12.4 0     0     1009.6   NA       0.0000   9999     0     0     0    
2019/08/17  04:02:02  BASE  1.63464  42   2.72244  43   -8.9  76    -12.4 0     0     1009.7   NA       0.0000   9999     0     0     0    
2019/08/17  04:03:03  BASE  1.51116  38   2.38728  47   -8.9  76    -12.4 0     0     1009.7   NA       0.0000   9999     0     0     0    
2019/08/17  04:04:02  BASE  1.35828  29   2.21088  55   -8.9  76    -12.4 0     0     1009.7   NA       0.0000   9999     0     0     0    
2019/08/17  04:05:04  BASE  1.19364  19   2.1168   53   -9.0  76    -12.4 0     0     1009.7   NA       0.0000   9999     0     0     0    
2019/08/17  04:06:03  BASE  1.13484  16   2.0286   53   -9.0  76    -12.4 0     0     1009.7   NA       0.0000   9999     0     0     0    
2019/08/17  04:07:03  BASE  1.19364  19   1.87572  54   -9.0  76    -12.5 0     0     1009.7   NA       0.0000   9999     0     0     0    
2019/08/17  04:08:03  BASE  1.18188  24   1.81692  48   -9.0  75    -12.5 0     0     1009.7   NA       0.0000   9999     0     0     0    
2019/08/17  04:09:03  BASE  1.1172   26   1.81692  48   -9.0  75    -12.5 0     0     1009.7   NA       0.0000   9999     0     0     0    
2019/08/17  04:10:03  BASE  1.10544  29   1.78752  47   -9.0  75    -12.6 0     0     1009.7   NA       0.0000   9999     0     0     0    
2019/08/17  04:11:03  BASE  1.09956  41   1.63464  45   -9.0  75    -12.7 0     0     1009.7   NA       0.0000   9999     0     0     0    
2019/08/17  04:12:03  BASE  1.03488  56   1.57584  41   -9.1  75    -12.7 0     0     1009.7   NA       0.0000   9999     0     0     0    
2019/08/17  04:13:03  BASE  0.95256  60   1.42296  28   -9.0  75    -12.7 0     0     1009.7   NA       0.0000   9999     0     0     0    
2019/08/17  04:14:03  BASE  0.8526   59   1.29948  23   -9.0  75    -12.6 0     0     1009.7   NA       0.0000   9999     0     0     0    
2019/08/17  04:15:03  BASE  0.7938   62   1.29948  23   -9.0  75    -12.6 0     0     1009.7   NA       0.0000   9999     0     0     0    
2019/08/17  04:16:03  BASE  0.57036  55   1.29948  23   -8.9  75    -12.5 0     0     1009.6   NA       0.0000   9999     0     0     0    
2019/08/17  04:17:03  BASE  0.45864  40   1.27008  46   -8.9  75    -12.5 0     0     1009.6   NA       0.0000   9999     0     0     0    
2019/08/17  04:18:03  BASE  0.58212  29   1.27008  46   -8.9  75    -12.5 0     0     1009.6   NA       0.0000   9999     0     0     0    
2019/08/17  04:19:03  BASE  0.48216  18   1.27008  46   -8.9  75    -12.6 0     0     1009.7   NA       0.0000   9999     0     0     0    
2019/08/17  04:20:03  BASE  0.36456  8    1.27008  46   -9.0  75    -12.7 0     0     1009.7   NA       0.0000   9999     0     0     0    
2019/08/17  04:21:03  BASE  0.25872  6    1.0878   60   -9.0  74    -12.8 0     0     1009.7   NA       0.0000   9999     0     0     0    
2019/08/17  04:22:03  BASE  0.21168  19   0.9702   61   -9.1  74    -12.8 0     0     1009.7   NA       0.0000   9999     0     0     0    
2019/08/17  04:23:03  BASE  0.4116   36   0.90552  69   -9.2  74    -12.9 0     0     1009.7   NA       0.0000   9999     0     0     0    
2019/08/17  04:24:03  BASE  0.27636  41   0.90552  69   -9.2  75    -12.9 0     0     1009.7   NA       0.0000   9999     0     0     0    
2019/08/17  04:25:03  BASE  0.2646   39   0.9702   46   -9.2  75    -12.8 0     0     1009.7   NA       0.0000   9999     0     0     0    
2019/08/17  04:26:03  BASE  0.8526   43   1.35828  44   -9.1  75    -12.8 0     0     1009.7   NA       0.0000   9999     0     0     0    
2019/08/17  04:27:03  BASE  1.25244  44   1.54056  41   -9.1  75    -12.7 0     0     1009.7   NA       0.0000   9999     0     0     0    
2019/08/17  04:28:03  BASE  1.25244  41   1.54056  41   -9.1  75    -12.7 0     0     1009.7   NA       0.0000   9999     0     0     0    
2019/08/17  04:29:03  BASE  1.30536  39   1.60524  40   -9.1  75    -12.7 0     0     1009.7   NA       0.0000   9999     0     0     0    
2019/08/17  04:30:03  BASE  1.4112   37   1.60524  40   -9.2  75    -12.8 0     0     1009.7   NA       0.0000   9999     0     0     0    
2019/08/17  04:31:03  BASE  1.52292  37   1.81692  41   -9.2  75    -12.9 0     0     1009.7   NA       0.0000   9999     0     0     0    
2019/08/17  04:32:02  BASE  1.74048  41   1.9992   45   -9.3  75    -13.0 0     0     1009.6   NA       0.0000   9999     0     0     0    
2019/08/17  04:33:02  BASE  1.92276  45   2.21088  48   -9.4  75    -13.0 0     0     1009.6   NA       0.0000   9999     0     0     0    
2019/08/17  04:34:02  BASE  2.1462   49   2.35788  50   -9.4  75    -13.0 0     0     1009.6   NA       0.0000   9999     0     0     0    
2019/08/17  04:35:01  BASE  2.21676  48   2.35788  50   -9.4  75    -13.0 0     0     1009.6   NA       0.0000   9999     0     0     0    
2019/08/17  04:36:02  BASE  2.07564  45   2.35788  50   -9.3  75    -12.9 0     0     1009.7   NA       0.0000   9999     0     0     0    
2019/08/17  04:37:02  BASE  1.82868  43   2.35788  50   -9.3  75    -12.9 0     0     1009.8   NA       0.0000   9999     0     0     0    
2019/08/17  04:38:02  BASE  1.64052  42   2.35788  50   -9.3  75    -12.9 0     0     1009.8   NA       0.0000   9999     0     0     0    
2019/08/17  04:39:03  BASE  1.5582   47   2.35788  50   -9.2  75    -12.8 0     0     1009.8   NA       0.0000   9999     0     0     0    
2019/08/17  04:40:02  BASE  1.5876   52   2.35788  50   -9.2  75    -12.8 0     0     1009.8   NA       0.0000   9999     0     0     0    
2019/08/17  04:41:03  BASE  1.5582   52   2.35788  50   -9.2  75    -12.8 0     0     1009.8   NA       0.0000   9999     0     0     0    
2019/08/17  04:42:02  BASE  1.5876   45   2.35788  50   -9.1  75    -12.8 0     0     1009.8   NA       0.0000   9999     0     0     0    
2019/08/17  04:43:03  BASE  1.76988  38   2.35788  50   -9.1  74    -12.8 0     0     1009.8   NA       0.0000   9999     0     0     0    
2019/08/17  04:44:03  BASE  1.89336  35   2.26968  47   -9.1  74    -12.8 0     0     1009.8   NA       0.0000   9999     0     0     0    
2019/08/17  04:45:03  BASE  1.89336  33   2.0874   46   -9.1  74    -12.9 0     0     1009.8   NA       0.0000   9999     0     0     0    
2019/08/17  04:46:03  BASE  1.90512  32   2.1462   36   -9.1  74    -12.9 0     0     1009.8   NA       0.0000   9999     0     0     0    
2019/08/17  04:47:03  BASE  2.05212  35   2.38728  41   -9.1  74    -12.9 0     0     1009.9   NA       0.0000   9999     0     0     0    
2019/08/17  04:48:03  BASE  2.22264  36   2.48136  30   -9.2  74    -12.9 0     0     1009.8   NA       0.0000   9999     0     0     0    
2019/08/17  04:49:02  BASE  2.3226   34   2.56956  31   -9.2  74    -13.0 0     0     1009.8   NA       0.0000   9999     0     0     0    
2019/08/17  04:50:02  BASE  2.25204  33   2.56956  31   -9.3  74    -13.1 0     0     1009.8   NA       0.0000   9999     0     0     0    
2019/08/17  04:51:02  BASE  2.12856  35   2.56956  31   -9.3  73    -13.2 0     0     1009.9   NA       0.0000   9999     0     0     0    
2019/08/17  04:52:03  BASE  2.12856  38   2.56956  31   -9.3  73    -13.2 0     0     1010.0   NA       0.0000   9999     0     0     0    
2019/08/17  04:53:03  BASE  2.0874   34   2.56956  31   -9.4  73    -13.3 0     0     1010.0   NA       0.0000   9999     0     0     0    
2019/08/17  04:54:03  BASE  2.03448  29   2.56956  31   -9.4  73    -13.4 0     0     1009.9   NA       0.0000   9999     0     0     0    
2019/08/17  04:55:02  BASE  2.1168   32   2.56956  31   -9.5  73    -13.4 0     0     1009.8   NA       0.0000   9999     0     0     0    
2019/08/17  04:56:02  BASE  2.15796  35   2.56956  31   -9.5  73    -13.4 0     0     1009.8   NA       0.0000   9999     0     0     0    
2019/08/17  04:57:02  BASE  2.04624  35   2.56956  31   -9.5  73    -13.5 0     0     1009.8   NA       0.0000   9999     0     0     0    
2019/08/17  04:58:03  BASE  1.99332  39   2.56956  31   -9.5  73    -13.5 0     0     1009.8   NA       0.0000   9999     0     0     0    
2019/08/17  04:59:02  BASE  1.95216  41   2.32848  42   -9.5  73    -13.5 0     0     1009.8   NA       0.0000   9999     0     0     0    
2019/08/17  05:00:02  BASE  1.89924  41   2.32848  42   -9.5  73    -13.5 0     0     1009.8   NA       0.0000   9999     0     0     0    
2019/08/17  05:01:03  BASE  1.9992   42   2.32848  42   -9.5  73    -13.5 0     0     1009.8   NA       0.0000   9999     0     0     0    
2019/08/17  05:02:02  BASE  2.00508  43   2.32848  42   -9.5  73    -13.4 0     0     1009.8   NA       0.0000   9999     0     0     0    
2019/08/17  05:03:02  BASE  1.97568  44   2.32848  42   -9.6  73    -13.4 0     0     1009.7   NA       0.0000   9999     0     0     0    
2019/08/17  05:04:02  BASE  2.058    44   2.32848  42   -9.6  74    -13.4 0     0     1009.7   NA       0.0000   9999     0     0     0    
2019/08/17  05:05:03  BASE  2.05212  44   2.26968  32   -9.6  74    -13.4 0     0     1009.7   NA       0.0000   9999     0     0     0    
2019/08/17  05:06:02  BASE  1.95216  43   2.24028  47   -9.6  74    -13.3 0     0     1009.7   NA       0.0000   9999     0     0     0    
2019/08/17  05:07:02  BASE  1.83456  44   2.24028  47   -9.6  74    -13.3 0     0     1009.7   NA       0.0000   9999     0     0     0    
2019/08/17  05:08:03  BASE  1.75812  48   2.24028  47   -9.5  74    -13.3 0     0     1009.7   NA       0.0000   9999     0     0     0    
2019/08/17  05:09:02  BASE  1.75812  50   2.24028  47   -9.5  74    -13.2 0     0     1009.7   NA       0.0000   9999     0     0     0    
2019/08/17  05:10:02  BASE  1.78752  49   2.24028  47   -9.4  74    -13.2 0     0     1009.7   NA       0.0000   9999     0     0     0    
2019/08/17  05:11:02  BASE  1.83456  49   2.24028  47   -9.3  74    -13.1 0     0     1009.7   NA       0.0000   9999     0     0     0    
2019/08/17  05:12:02  BASE  1.85808  50   2.24028  47   -9.3  74    -13.1 0     0     1009.7   NA       0.0000   9999     0     0     0    
2019/08/17  05:13:03  BASE  1.8228   52   2.24028  47   -9.3  74    -13.0 0     0     1009.7   NA       0.0000   9999     0     0     0    
2019/08/17  05:14:03  BASE  1.7052   50   2.1756   44   -9.2  74    -13.0 0     0     1009.7   NA       0.0000   9999     0     0     0    
2019/08/17  05:15:02  BASE  1.69932  48   2.0286   44   -9.2  74    -13.0 0     0     1009.7   NA       0.0000   9999     0     0     0    
2019/08/17  05:16:02  BASE  1.72284  47   1.96392  54   -9.2  74    -13.0 0     0     1009.7   NA       0.0000   9999     0     0     0    
2019/08/17  05:17:03  BASE  1.69932  46   1.96392  54   -9.2  74    -13.0 0     0     1009.8   NA       0.0000   9999     0     0     0    
2019/08/17  05:18:03  BASE  1.6758   47   1.96392  54   -9.2  73    -13.0 0     0     1009.8   NA       0.0000   9999     0     0     0    
2019/08/17  05:19:03  BASE  1.65816  46   1.96392  54   -9.1  73    -13.0 0     0     1009.8   NA       0.0000   9999     0     0     0    
2019/08/17  05:20:03  BASE  1.74636  43   1.96392  54   -9.1  73    -13.1 0     0     1009.8   NA       0.0000   9999     0     0     0    
2019/08/17  05:21:02  BASE  1.84632  40   1.96392  42   -9.1  73    -13.1 0     0     1009.9   NA       0.0000   9999     0     0     0    
2019/08/17  05:22:02  BASE  1.78752  36   1.96392  42   -9.2  73    -13.1 0     0     1010.0   NA       0.0000   9999     0     0     0    
2019/08/17  05:23:03  BASE  1.61112  36   1.96392  42   -9.2  73    -13.1 0     0     1010.0   NA       0.0000   9999     0     0     0    
2019/08/17  05:24:03  BASE  1.62288  40   1.96392  42   -9.2  73    -13.2 0     0     1010.0   NA       0.0000   9999     0     0     0    
2019/08/17  05:25:03  BASE  1.75812  38   1.96392  35   -9.2  73    -13.2 0     0     1010.0   NA       0.0000   9999     0     0     0    
2019/08/17  05:26:02  BASE  1.84044  33   1.96392  32   -9.2  73    -13.2 0     0     1010.1   NA       0.0000   9999     0     0     0    
2019/08/17  05:27:02  BASE  1.81104  35   1.96392  32   -9.3  73    -13.2 0     0     1010.1   NA       0.0000   9999     1870  0     0    
2019/08/17  05:28:02  BASE  1.87572  36   2.21088  39   -9.3  73    -13.3 0     0     1010.0   NA       0.0000   9999     1840  0     0    
2019/08/17  05:29:02  BASE  2.16384  38   2.42256  43   -9.4  73    -13.3 0     0     1010.0   NA       0.0000   9999     1870  0     0    
2019/08/17  05:30:03  BASE  2.29908  41   2.45196  39   -9.5  73    -13.3 0     0     1010.0   NA       0.0000   9999     1840  0     0    
2019/08/17  05:31:02  BASE  2.4402   43   2.78124  44   -9.5  74    -13.4 0     0     1010.0   NA       0.0000   9999     0     0     0    
2019/08/17  05:32:03  BASE  2.56368  47   2.78124  44   -9.6  74    -13.4 0     0     1010.0   NA       0.0000   9999     0     0     0    
2019/08/17  05:33:03  BASE  2.5284   49   2.78124  44   -9.6  74    -13.4 0     0     1010.0   NA       0.0000   9999     0     0     0    
2019/08/17  05:34:03  BASE  2.53428  43   2.78124  44   -9.7  74    -13.4 0     0     1010.1   NA       0.0000   9999     1940  0     0    
2019/08/17  05:35:02  BASE  2.45196  38   2.78124  44   -9.7  74    -13.4 0     0     1010.0   NA       0.0000   9999     0     0     0    
2019/08/17  05:36:03  BASE  2.48136  39   2.81064  41   -9.7  75    -13.3 0     0     1010.0   NA       0.0000   9999     1900  0     0    
2019/08/17  05:37:03  BASE  2.63424  41   2.84592  42   -9.6  75    -13.3 0     0     1010.0   NA       0.0000   9999     0     0     0    
2019/08/17  05:38:03  BASE  2.59308  41   2.84592  42   -9.6  75    -13.2 0     0     1010.0   NA       0.0000   9999     0     0     0    
2019/08/17  05:39:03  BASE  2.4108   41   2.84592  42   -9.6  75    -13.2 0     0     1010.0   NA       0.0000   9999     0     0     0    
2019/08/17  05:40:02  BASE  2.24028  41   2.84592  42   -9.6  75    -13.2 0     0     1010.1   NA       0.0000   9999     0     0     0    
2019/08/17  05:41:03  BASE  2.1756   43   2.84592  42   -9.5  75    -13.2 0     0     1010.1   NA       0.0000   9999     0     0     0    
2019/08/17  05:42:04  BASE  2.21088  48   2.84592  42   -9.5  75    -13.1 0     0     1010.1   NA       0.0000   9999     0     0     0    
2019/08/17  05:43:03  BASE  2.25792  50   2.84592  42   -9.5  75    -13.0 0     0     1010.1   NA       0.0000   9999     0     0     0    
2019/08/17  05:44:03  BASE  2.37552  47   2.84592  42   -9.4  75    -13.0 0     0     1010.1   NA       0.0000   9999     0     0     0    
2019/08/17  05:45:02  BASE  2.60484  49   2.84592  42   -9.4  75    -12.9 0     0     1010.0   NA       0.0000   9999     0     0     0    
2019/08/17  05:46:03  BASE  2.83416  51   3.1752   49   -9.3  75    -12.9 0     0     1010.0   NA       0.0000   9999     0     0     0    
2019/08/17  05:47:03  BASE  2.9694   52   3.1752   49   -9.3  75    -12.9 0     0     1010.0   NA       0.0000   9999     0     0     0    
2019/08/17  05:48:03  BASE  3.06348  52   3.26928  52   -9.3  75    -12.9 0     0     1010.0   NA       0.0000   9999     0     0     0    
2019/08/17  05:49:03  BASE  3.1458   54   3.32808  54   -9.3  75    -12.9 0     0     1010.0   NA       0.0000   9999     1870  0     0    
2019/08/17  05:50:03  BASE  3.07524  58   3.32808  54   -9.3  75    -12.9 0     0     1010.1   NA       0.0000   9999     1900  0     0    
2019/08/17  05:51:03  BASE  2.98116  62   3.32808  54   -9.2  75    -12.9 0     0     1010.1   NA       0.0000   9999     1900  0     0    
2019/08/17  05:52:03  BASE  2.90472  62   3.32808  54   -9.2  75    -12.8 0     0     1010.1   NA       0.0000   9999     1870  0     0    
2019/08/17  05:53:03  BASE  2.6754   59   3.32808  54   -9.2  75    -12.8 0     0     1010.2   NA       0.0000   9999     0     0     0    
2019/08/17  05:54:03  BASE  2.5578   56   3.32808  54   -9.1  75    -12.7 0     0     1010.2   NA       0.0000   9999     1900  0     0    
2019/08/17  05:55:03  BASE  2.53428  55   3.32808  54   -9.1  75    -12.7 0     0     1010.2   NA       0.0000   9999     1900  0     0    
2019/08/17  05:56:03  BASE  2.45196  55   3.32808  54   -9.0  75    -12.6 0     0     1010.2   NA       0.0000   9999     1840  0     0    
2019/08/17  05:57:02  BASE  2.42844  53   3.32808  54   -9.0  75    -12.6 0     0     1010.2   NA       0.0000   9999     1770  0     0    
2019/08/17  05:58:02  BASE  2.31084  49   3.32808  54   -9.0  75    -12.6 0     0     1010.2   NA       0.0000   9999     1740  0     0    
2019/08/17  05:59:03  BASE  2.12268  46   3.087    63   -8.9  75    -12.6 0     0     1010.2   NA       0.0000   9999     1840  0     0    
2019/08/17  06:00:02  BASE  1.9698   43   3.087    63   -8.9  74    -12.7 0     0     1010.3   NA       0.0000   9999     1800  0     0    
2019/08/17  06:01:02  BASE  1.90512  40   3.02232  63   -9.0  74    -12.7 0     0     1010.3   NA       0.0000   9999     1740  0     0    
2019/08/17  06:02:03  BASE  1.95216  40   2.81064  58   -9.0  74    -12.8 0     0     1010.3   NA       0.0000   9999     1740  0     0    
2019/08/17  06:03:03  BASE  2.1168   40   2.72244  56   -9.0  74    -12.8 0     0     1010.3   NA       0.0000   9999     1710  0     0    
2019/08/17  06:04:02  BASE  2.22852  41   2.59896  57   -9.1  74    -12.8 0     0     1010.3   NA       0.0000   9999     1710  0     0    
2019/08/17  06:05:04  BASE  2.1462   40   2.59896  57   -9.1  74    -12.9 0     0     1010.3   NA       0.0000   9999     1740  0     0    
2019/08/17  06:06:02  BASE  2.12268  36   2.48136  53   -9.1  74    -12.9 0     0     1010.3   NA       0.0000   9999     1710  0     0    
2019/08/17  06:07:03  BASE  2.18736  32   2.32848  43   -9.1  74    -12.9 0     0     1010.2   NA       0.0000   9999     1710  0     0    
2019/08/17  06:08:03  BASE  2.2344   34   2.32848  34   -9.1  74    -12.9 0     0     1010.2   NA       0.0000   9999     1640  0     0    
2019/08/17  06:09:03  BASE  2.21088  37   2.32848  34   -9.1  74    -12.9 0     0     1010.2   NA       0.0000   9999     1670  0     0    
2019/08/17  06:10:03  BASE  2.12856  41   2.32848  34   -9.1  74    -12.9 0     0     1010.2   NA       0.0000   9999     1640  0     0    
2019/08/17  06:11:02  BASE  2.0874   46   2.32848  34   -9.1  74    -12.9 0     0     1010.2   NA       0.0000   9999     1670  0     0    
2019/08/17  06:12:03  BASE  2.08152  48   2.32848  34   -9.1  74    -12.9 0     0     1010.3   NA       0.0000   9999     1640  0     0    
2019/08/17  06:13:03  BASE  1.98156  45   2.32848  34   -9.1  74    -12.9 0     0     1010.3   NA       0.0000   9999     1710  0     0    
2019/08/17  06:14:03  BASE  1.764    40   2.32848  34   -9.0  74    -12.8 0     0     1010.3   NA       0.0000   9999     1710  0     0    
2019/08/17  06:15:03  BASE  1.764    41   2.32848  34   -9.0  74    -12.8 0     0     1010.3   NA       0.0000   9999     1740  0     0    
2019/08/17  06:16:03  BASE  1.77576  40   2.32848  34   -8.9  74    -12.7 0     0     1010.3   NA       0.0000   9999     1710  0     0    
2019/08/17  06:17:03  BASE  1.63464  32   2.32848  34   -8.9  74    -12.7 0     0     1010.3   NA       0.0000   9999     1670  0     0    
2019/08/17  06:18:03  BASE  1.47588  24   2.29908  33   -8.8  74    -12.7 0     0     1010.3   NA       0.0000   9999     1710  0     0    
2019/08/17  06:19:03  BASE  1.29948  23   2.26968  48   -8.8  74    -12.7 0     0     1010.3   NA       0.0000   9999     1710  0     0    
2019/08/17  06:20:02  BASE  1.4112   23   2.26968  48   -8.7  73    -12.6 0     0     1010.3   NA       0.0000   9999     1670  0     0    
2019/08/17  06:21:03  BASE  1.60524  24   2.26968  48   -8.7  73    -12.6 0     0     1010.3   NA       0.0000   9999     1670  0     0    
2019/08/17  06:22:02  BASE  1.75224  29   2.1756   45   -8.6  73    -12.6 0     0     1010.3   NA       0.0000   9999     1610  0     0    
2019/08/17  06:23:03  BASE  1.68756  21   2.1756   45   -8.6  73    -12.6 0     0     1010.3   NA       0.0000   9999     1670  0     0    
2019/08/17  06:24:03  BASE  1.38768  21   2.1756   45   -8.5  73    -12.6 0     0     1010.3   NA       0.0000   9999     1640  0     0    
2019/08/17  06:25:03  BASE  1.19952  29   2.1756   45   -8.5  72    -12.6 0     0     1010.3   NA       0.0000   9999     1670  0     0    
2019/08/17  06:26:03  BASE  1.12896  24   2.1756   45   -8.5  72    -12.6 0     0     1010.3   NA       0.0000   9999     1670  0     0    
2019/08/17  06:27:03  BASE  1.2348   21   2.1756   45   -8.5  72    -12.6 0     0     1010.3   NA       0.0000   9999     1710  0     0    
2019/08/17  06:28:03  BASE  1.28772  20   2.1756   45   -8.5  72    -12.7 0     0     1010.3   NA       0.0000   9999     1670  0     0    
2019/08/17  06:29:03  BASE  1.31712  20   2.1756   45   -8.5  72    -12.6 0     0     1010.3   NA       0.0000   9999     1670  0     0    
2019/08/17  06:30:03  BASE  1.42884  26   2.1756   45   -8.6  72    -12.6 0     0     1010.3   NA       0.0000   9999     1610  0     0    
2019/08/17  06:31:03  BASE  1.47588  22   2.1756   45   -8.6  73    -12.6 0     0     1010.3   NA       0.0000   9999     1740  0     0    
2019/08/17  06:32:03  BASE  1.49352  25   1.81692  41   -8.6  73    -12.6 0     0     1010.3   NA       0.0000   9999     1670  0     0    
2019/08/17  06:33:03  BASE  1.56408  29   1.84632  26   -8.6  73    -12.5 0     0     1010.2   NA       0.0000   9999     1770  0     0    
2019/08/17  06:34:03  BASE  1.69932  28   1.9992   33   -8.6  73    -12.5 0     0     1010.1   NA       0.0000   9999     1610  0     0    
2019/08/17  06:35:03  BASE  1.84632  27   2.21088  31   -8.6  74    -12.5 0     0     1010.0   NA       0.0000   9999     1740  0     0    
2019/08/17  06:36:03  BASE  1.98156  26   2.32848  23   -8.6  74    -12.4 0     0     1009.9   NA       0.0000   9999     1710  0     0    
2019/08/17  06:37:03  BASE  2.28732  31   2.72244  35   -8.6  74    -12.3 0     0     1009.8   NA       0.0000   9999     1870  0     0    
2019/08/17  06:38:03  BASE  2.39904  41   2.72244  35   -8.6  74    -12.3 0     0     1009.9   NA       0.0000   9999     1800  0     0    
2019/08/17  06:39:02  BASE  2.25204  46   2.72244  35   -8.5  75    -12.2 0     0     1009.9   NA       0.0000   9999     1840  0     0    
2019/08/17  06:40:03  BASE  2.1756   45   2.72244  35   -8.5  75    -12.2 0     0     1009.9   NA       0.0000   9999     1740  0     0    
2019/08/17  06:41:03  BASE  2.14032  48   2.72244  35   -8.5  75    -12.1 0     0     1009.9   NA       0.0000   9999     1740  0     0    
2019/08/17  06:42:03  BASE  2.08152  49   2.72244  35   -8.4  75    -12.0 0     0     1009.9   NA       0.0000   9999     1610  0     0    
2019/08/17  06:43:03  BASE  1.93452  44   2.72244  35   -8.4  76    -11.9 0     0     1010.0   NA       0.0000   9999     1710  0     0    
2019/08/17  06:44:03  BASE  1.74048  45   2.72244  35   -8.3  76    -11.8 0     0     1010.0   NA       0.0000   9999     1710  0     0    
2019/08/17  06:45:03  BASE  1.47     48   2.72244  35   -8.3  76    -11.8 0     0     1010.1   NA       0.0000   9999     1710  0     0    
2019/08/17  06:46:03  BASE  1.24068  39   2.72244  35   -8.2  76    -11.7 0     0     1010.0   NA       0.0000   9999     1800  2330  0    
2019/08/17  06:47:03  BASE  1.06428  29   2.51076  53   -8.2  76    -11.6 0     0     1010.1   NA       0.0000   9999     2100  0     0    
2019/08/17  06:48:03  BASE  1.01136  14   2.51076  53   -8.1  77    -11.5 0     0     1010.2   NA       0.0000   9999     1940  0     0    
2019/08/17  06:49:03  BASE  1.24656  359  2.35788  48   -8.1  77    -11.4 0     0     1010.2   NA       0.0000   9999     2230  0     0    
2019/08/17  06:50:03  BASE  1.47588  358  2.35788  48   -8.0  77    -11.4 0     0     1010.2   NA       0.0000   9999     2230  0     0    
2019/08/17  06:51:03  BASE  1.56996  353  2.29908  44   -8.0  77    -11.3 0     0     1010.2   NA       0.0000   9999     2170  0     0    
2019/08/17  06:52:03  BASE  1.49352  347  2.0874   56   -8.0  77    -11.4 0     0     1010.2   NA       0.0000   9999     2230  0     0    
2019/08/17  06:53:03  BASE  1.42296  345  2.0874   56   -8.0  77    -11.4 0     0     1010.2   NA       0.0000   9999     2130  0     0    
2019/08/17  06:54:03  BASE  1.34652  344  1.93452  353  -8.1  77    -11.4 0     0     1010.2   NA       0.0000   9999     2130  0     0    
2019/08/17  06:55:03  BASE  1.21128  349  1.93452  353  -8.1  77    -11.4 0     0     1010.3   NA       0.0000   9999     2170  0     0    
2019/08/17  06:56:02  BASE  1.19364  344  1.93452  353  -8.2  77    -11.5 0     0     1010.3   NA       0.0000   9999     2200  0     0    
2019/08/17  06:57:03  BASE  1.10544  330  1.93452  353  -8.2  77    -11.5 0     0     1010.4   NA       0.0000   9999     2260  0     0    
2019/08/17  06:58:03  BASE  0.9114   326  1.93452  353  -8.2  77    -11.4 0     0     1010.5   NA       0.0000   9999     2230  0     0    
2019/08/17  06:59:03  BASE  0.6174   329  1.93452  353  -8.2  78    -11.4 0     0     1010.6   NA       0.0000   9999     2200  0     0    
2019/08/17  07:00:03  BASE  0.65268  329  1.87572  351  -8.2  78    -11.3 0     0     1010.6   NA       0.0000   9999     2170  0     0    
2019/08/17  07:01:03  BASE  1.06428  327  1.69344  328  -8.2  78    -11.3 0     0     1010.5   NA       0.0000   9999     2170  0     0    
2019/08/17  07:02:03  BASE  1.3818   327  1.69344  328  -8.2  78    -11.4 0     0     1010.4   NA       0.0000   9999     2170  0     0    
2019/08/17  07:03:03  BASE  1.7934   329  2.29908  329  -8.3  78    -11.4 0     0     1010.4   NA       0.0000   9999     2170  0     0    
2019/08/17  07:04:03  BASE  1.9992   327  2.29908  329  -8.3  78    -11.4 0     0     1010.4   NA       0.0000   9999     2100  0     0    
2019/08/17  07:05:04  BASE  1.95216  321  2.29908  329  -8.4  78    -11.4 0     0     1010.4   NA       0.0000   9999     2100  0     0    
2019/08/17  07:06:02  BASE  2.21088  326  2.63424  333  -8.4  79    -11.5 0     0     1010.3   NA       0.0000   9999     2230  0     0    
2019/08/17  07:07:03  BASE  2.40492  330  2.84592  331  -8.5  79    -11.5 0     0     1010.3   NA       0.0000   9999     2330  0     0    
2019/08/17  07:08:03  BASE  2.51664  328  2.87532  326  -8.5  79    -11.5 0     0     1010.3   NA       0.0000   9999     2260  0     0    
2019/08/17  07:09:03  BASE  2.5284   325  2.87532  317  -8.6  79    -11.6 0     0     1010.3   NA       0.0000   9999     2330  0     0    
2019/08/17  07:10:03  BASE  2.69892  328  3.65736  341  -8.7  79    -11.7 0     0     1010.3   NA       0.0000   9999     2360  0     0    
2019/08/17  07:11:03  BASE  3.234    336  3.65736  341  -8.8  79    -11.7 0     0     1010.3   NA       0.0000   9999     950   2300  0    
2019/08/17  07:12:03  BASE  3.28104  339  3.65736  341  -8.8  80    -11.7 0     0     1010.3   NA       0.0000   9999     890   2330  0    
2019/08/17  07:13:03  BASE  3.13992  339  3.65736  341  -8.9  80    -11.7 0     0     1010.3   NA       0.0000   9999     2360  0     0    
2019/08/17  07:14:02  BASE  3.27516  336  3.65736  341  -8.9  80    -11.6 0     0     1010.3   NA       0.0000   9999     2300  0     0    
2019/08/17  07:15:03  BASE  3.35748  335  3.65736  341  -8.8  81    -11.5 0     0     1010.3   NA       0.0000   9999     2260  0     0    
2019/08/17  07:16:04  BASE  3.43392  335  3.90432  332  -8.7  81    -11.4 0     0     1010.3   NA       0.0000   9999     790   2330  0    
2019/08/17  07:17:02  BASE  3.33396  338  3.90432  332  -8.7  82    -11.2 0     0     1010.2   NA       0.0000   9999     750   2300  0    
2019/08/17  07:18:03  BASE  3.1458   340  3.90432  332  -8.6  82    -11.1 0     0     1010.2   NA       0.0000   9999     750   2330  0    
2019/08/17  07:19:02  BASE  3.19872  334  3.90432  332  -8.5  82    -11.0 0     0     1010.2   NA       0.0000   9999     720   2360  0    
2019/08/17  07:20:02  BASE  3.06348  329  3.90432  332  -8.4  82    -10.9 0     0     1010.2   NA       0.0000   9999     750   2300  0    
2019/08/17  07:21:02  BASE  2.95176  332  3.90432  332  -8.3  83    -10.8 0     0     1010.2   NA       0.0000   9999     820   1940  0    
2019/08/17  07:22:03  BASE  2.90472  338  3.90432  332  -8.3  83    -10.6 0     0     1010.2   NA       0.0000   9999     820   2200  0    
2019/08/17  07:23:03  BASE  2.71656  341  3.90432  332  -8.2  83    -10.5 0     0     1010.2   NA       0.0000   9999     2430  0     0    
2019/08/17  07:24:02  BASE  2.64012  343  3.90432  332  -8.1  84    -10.4 0     0     1010.2   NA       0.0000   9999     920   2330  0    
2019/08/17  07:25:02  BASE  2.9988   341  3.93372  336  -8.1  84    -10.3 0     0     1010.2   NA       0.0000   9999     2200  0     0    
2019/08/17  07:26:03  BASE  3.3222   337  3.93372  336  -8.1  85    -10.2 0     0     1010.2   NA       0.0000   9999     2230  0     0    
2019/08/17  07:27:03  BASE  3.31044  339  3.93372  336  -8.1  85    -10.2 0     0     1010.1   NA       0.0000   9999     2260  0     0    
2019/08/17  07:28:03  BASE  3.40452  339  3.93372  336  -8.2  86    -10.2 0     0     1010.0   NA       0.0000   9999     2300  0     0    
2019/08/17  07:29:03  BASE  3.68676  342  4.41588  348  -8.2  86    -10.1 0     0     1010.0   NA       0.0000   9999     890   2360  0    
2019/08/17  07:30:03  BASE  3.7926   344  4.41588  348  -8.2  87    -10.1 0     0     1010.0   NA       0.0000   9999     950   2490  0    
2019/08/17  07:31:02  BASE  3.5574   341  4.41588  348  -8.2  87    -10.0 0     0     1010.0   NA       0.0000   9999     1020  2460  0    
2019/08/17  07:32:03  BASE  3.56916  340  4.41588  348  -8.3  88    -9.9  0     0     1010.0   NA       0.0000   9999     1020  2400  0    
2019/08/17  07:33:03  BASE  3.822    340  4.41588  348  -8.3  88    -9.9  0     0     1010.0   NA       0.0000   9999     980   2400  0    
2019/08/17  07:34:03  BASE  3.85728  341  4.41588  348  -8.3  89    -9.8  0     0     1010.0   NA       0.0000   9999     2430  0     0    
2019/08/17  07:35:03  BASE  3.79848  346  4.41588  348  -8.4  89    -9.8  0     0     1010.0   NA       0.0000   9999     920   2490  0    
2019/08/17  07:36:03  BASE  3.56916  351  4.41588  348  -8.4  90    -9.8  0     0     1010.1   NA       0.0000   9999     980   2620  0    
2019/08/17  07:37:03  BASE  3.18108  354  4.41588  348  -8.4  90    -9.7  0     0     1010.2   NA       0.0000   9999     950   2620  0    
2019/08/17  07:38:03  BASE  3.13992  353  4.41588  348  -8.4  91    -9.6  0     0     1010.2   NA       0.0000   9999     850   0     0    
2019/08/17  07:39:02  BASE  3.12228  349  4.35708  346  -8.4  91    -9.6  0     0     1010.3   NA       0.0000   9999     850   0     0    
2019/08/17  07:40:03  BASE  3.19872  347  4.2042   344  -8.4  92    -9.5  0     0     1010.3   NA       0.0000   9999     850   0     0    
2019/08/17  07:41:02  BASE  3.234    349  4.2042   344  -8.4  92    -9.5  0     0     1010.3   NA       0.0000   9999     750   0     0    
2019/08/17  07:42:02  BASE  3.26928  354  4.2042   344  -8.4  93    -9.4  0     0     1010.3   NA       0.0000   9999     820   0     0    
2019/08/17  07:43:02  BASE  3.4986   0    4.1748   344  -8.4  93    -9.4  0     0     1010.3   NA       0.0000   9999     820   0     0    
2019/08/17  07:44:03  BASE  3.53976  356  4.1748   344  -8.4  93    -9.3  0     0     1010.2   NA       0.0000   9999     790   0     0    
2019/08/17  07:45:02  BASE  3.71616  351  4.2042   1    -8.5  94    -9.3  0     0     1010.2   NA       0.0000   9999     790   0     0    
2019/08/17  07:46:03  BASE  3.74556  353  4.2042   1    -8.4  94    -9.2  0     0     1010.2   NA       0.0000   9999     790   0     0    
2019/08/17  07:47:03  BASE  3.54564  350  4.2042   1    -8.5  95    -9.2  0     0     1010.2   NA       0.0000   9999     850   0     0    
2019/08/17  07:48:03  BASE  3.40452  350  4.2042   1    -8.5  95    -9.1  0     0     1010.3   NA       0.0000   9999     820   0     0    
2019/08/17  07:49:02  BASE  3.22812  355  4.2042   1    -8.5  95    -9.1  0     0     1010.3   NA       0.0000   9999     850   0     0    
2019/08/17  07:50:03  BASE  3.16344  357  4.2042   1    -8.5  96    -9.1  0     0     1010.3   NA       0.0000   9999     850   0     0    
2019/08/17  07:51:03  BASE  3.31044  355  4.2042   1    -8.5  96    -9.1  0     0     1010.3   NA       0.0000   9999     850   0     0    
2019/08/17  07:52:02  BASE  3.33984  352  4.2042   1    -8.5  96    -9.0  0     0     1010.3   NA       0.0000   9999     850   0     0    
2019/08/17  07:53:03  BASE  3.36336  350  4.2042   1    -8.5  97    -9.0  0     0     1010.3   NA       0.0000   9999     890   0     0    
2019/08/17  07:54:03  BASE  3.46332  351  4.2042   1    -8.5  97    -8.9  0     0     1010.3   NA       0.0000   9999     0     0     0    
2019/08/17  07:55:03  BASE  3.25164  351  4.02192  354  -8.5  97    -8.9  0     0     1010.3   NA       0.0000   9999     0     0     0    
2019/08/17  07:56:03  BASE  3.16932  354  3.81024  347  -8.5  98    -8.8  0     0     1010.3   NA       0.0000   9999     920   0     0    
2019/08/17  07:57:02  BASE  3.28692  354  3.81024  347  -8.5  98    -8.8  0     0     1010.3   NA       0.0000   9999     890   0     0    
2019/08/17  07:58:03  BASE  3.1752   356  3.81024  347  -8.5  98    -8.7  0     0     1010.4   NA       0.0000   9999     890   0     0    
2019/08/17  07:59:03  BASE  2.84592  358  3.81024  347  -8.5  98    -8.7  0     0     1010.4   NA       0.0000   9999     850   0     0    
2019/08/17  08:00:02  BASE  2.82828  359  3.81024  347  -8.5  99    -8.7  0     0     1010.5   NA       0.0000   9999     820   0     0    
2019/08/17  08:01:03  BASE  3.234    357  3.81024  347  -8.5  99    -8.6  0     0     1010.5   NA       0.0000   9999     850   0     0    
2019/08/17  08:02:03  BASE  3.5868   350  3.90432  351  -8.5  99    -8.6  0     0     1010.4   NA       0.0000   9999     820   0     0    
2019/08/17  08:03:03  BASE  3.528    344  3.90432  351  -8.5  99    -8.6  0     0     1010.4   NA       0.0000   9999     790   0     0    
2019/08/17  08:04:03  BASE  3.43392  347  3.90432  351  -8.4  99    -8.5  0     0     1010.4   NA       0.0000   9999     820   0     0    
2019/08/17  08:05:04  BASE  3.5868   352  3.90432  351  -8.4  100   -8.5  0     0     1010.4   NA       0.0000   9999     790   0     0    
2019/08/17  08:06:02  BASE  3.5868   351  3.90432  351  -8.4  100   -8.4  0     0     1010.4   NA       0.0000   9999     790   0     0    
2019/08/17  08:07:03  BASE  3.29868  352  3.90432  351  -8.4  100   -8.4  0     0     1010.4   NA       0.0000   9999     850   0     0    
2019/08/17  08:08:03  BASE  3.0576   356  3.90432  351  -8.4  100   -8.4  0     0     1010.4   NA       0.0000   9999     820   0     0    
2019/08/17  08:09:02  BASE  3.21048  359  3.90432  351  -8.3  100   -8.3  0     0     1010.3   NA       0.0000   9999     820   0     0    
2019/08/17  08:10:02  BASE  3.2634   4    3.90432  351  -8.4  100   -8.4  0     0     1010.3   NA       0.0000   9999     790   0     0    
2019/08/17  08:11:02  BASE  3.05172  5    3.90432  351  -8.4  100   -8.4  0     0     1010.3   NA       0.0000   9999     790   0     0    
2019/08/17  08:12:03  BASE  2.98704  1    3.86904  349  -8.4  100   -8.4  0     0     1010.3   NA       0.0000   9999     820   0     0    
2019/08/17  08:13:03  BASE  3.03996  357  3.86904  349  -8.4  100   -8.4  0     0     1010.3   NA       0.0000   9999     790   0     0    
2019/08/17  08:14:03  BASE  2.9106   348  3.86904  349  -8.5  100   -8.5  0     0     1010.3   NA       0.0000   9999     790   0     0    
2019/08/17  08:15:02  BASE  3.09876  342  3.83964  353  -8.5  100   -8.5  0     0     1010.3   NA       0.0000   9999     790   0     0    
2019/08/17  08:16:04  BASE  3.41628  345  3.75144  344  -8.4  100   -8.4  0     0     1010.3   NA       0.0000   9999     750   0     0    
2019/08/17  08:17:02  BASE  3.44568  343  3.75144  341  -8.4  100   -8.4  0     0     1010.3   NA       0.0000   9999     750   0     0    
2019/08/17  08:18:03  BASE  3.47508  341  3.75144  341  -8.4  100   -8.4  0     0     1010.3   NA       0.0000   9999     790   0     0    
2019/08/17  08:19:03  BASE  3.44568  342  3.75144  341  -8.4  100   -8.4  0     0     1010.4   NA       0.0000   9999     720   0     0    
2019/08/17  08:20:03  BASE  3.69852  341  4.75104  334  -8.4  100   -8.4  0     0     1010.4   NA       0.0000   9999     720   0     0    
2019/08/17  08:21:02  BASE  3.45156  331  4.75104  334  -8.3  100   -8.3  0     0     1010.4   NA       0.0000   9999     750   0     0    
2019/08/17  08:22:03  BASE  2.78124  325  4.75104  334  -8.3  100   -8.3  0     0     1010.4   NA       0.0000   9999     750   0     0    
2019/08/17  08:23:02  BASE  2.94588  334  4.75104  334  -8.3  100   -8.3  0     0     1010.4   NA       0.0000   9999     790   0     0    
2019/08/17  08:24:03  BASE  3.19872  340  4.75104  334  -8.3  100   -8.3  0     0     1010.3   NA       0.0000   9999     750   0     0    
2019/08/17  08:25:03  BASE  3.08112  336  4.75104  334  -8.2  100   -8.2  0     0     1010.3   NA       0.0000   9999     790   0     0    
2019/08/17  08:26:04  BASE  3.05172  336  4.75104  334  -8.3  100   -8.3  0     0     1010.3   NA       0.0000   9999     820   0     0    
2019/08/17  08:27:03  BASE  2.77536  337  4.75104  334  -8.3  100   -8.3  0     0     1010.4   NA       0.0000   9999     750   0     0    
2019/08/17  08:28:03  BASE  2.5284   341  4.75104  334  -8.3  100   -8.3  0     0     1010.4   NA       0.0000   9999     790   0     0    
2019/08/17  08:29:02  BASE  3.19872  332  4.75104  334  -8.4  100   -8.4  0     0     1010.4   NA       0.0000   9999     790   0     0    
2019/08/17  08:30:02  BASE  3.48096  313  4.29828  299  -8.4  100   -8.4  0     0     1010.4   NA       0.0000   9999     790   0     0    
2019/08/17  08:31:03  BASE  3.19284  305  4.29828  299  -8.4  100   -8.4  0     0     1010.4   NA       0.0000   9999     750   0     0    
2019/08/17  08:32:03  BASE  2.59308  302  4.29828  299  -8.3  100   -8.3  0     0     1010.4   NA       0.0000   9999     750   0     0    
2019/08/17  08:33:02  BASE  1.9992   309  4.29828  299  -8.3  100   -8.3  0     0     1010.4   NA       0.0000   9999     790   0     0    
2019/08/17  08:34:03  BASE  2.0286   326  4.29828  299  -8.3  100   -8.3  0     0     1010.4   NA       0.0000   9999     750   0     0    
2019/08/17  08:35:02  BASE  1.91688  327  4.29828  299  -8.3  100   -8.3  0     0     1010.4   NA       0.0000   9999     720   0     0    
2019/08/17  08:36:03  BASE  1.66992  320  4.29828  299  -8.3  100   -8.3  0     0     1010.4   NA       0.0000   9999     720   0     0    
2019/08/17  08:37:03  BASE  2.26968  315  4.29828  299  -8.3  100   -8.3  0     0     1010.4   NA       0.0000   9999     690   0     0    
2019/08/17  08:38:03  BASE  3.16932  311  4.29828  299  -8.3  100   -8.3  0     0     1010.3   NA       0.0000   9999     690   0     0    
2019/08/17  08:39:03  BASE  3.08112  327  3.96312  315  -8.3  100   -8.3  0     0     1010.3   NA       0.0000   9999     720   0     0    
2019/08/17  08:40:02  BASE  2.82828  347  3.96312  315  -8.3  100   -8.3  0     0     1010.3   NA       0.0000   9999     790   0     0    
2019/08/17  08:41:03  BASE  2.65776  350  3.96312  315  -8.3  100   -8.3  0     0     1010.4   NA       0.0000   9999     720   0     0    
2019/08/17  08:42:02  BASE  2.69304  337  3.96312  315  -8.3  100   -8.3  0     0     1010.4   NA       0.0000   9999     720   0     0    
2019/08/17  08:43:03  BASE  2.91648  326  3.96312  315  -8.4  100   -8.4  0     0     1010.3   NA       0.0000   9999     750   0     0    
2019/08/17  08:44:03  BASE  2.68128  322  3.96312  315  -8.4  100   -8.4  0     0     1010.3   NA       0.0000   9999     750   0     0    
2019/08/17  08:45:03  BASE  2.3814   322  3.96312  315  -8.4  100   -8.4  0     0     1010.3   NA       0.0000   9999     720   0     0    
2019/08/17  08:46:02  BASE  2.10504  326  3.96312  315  -8.4  100   -8.4  0     0     1010.3   NA       0.0000   9999     720   0     0    
2019/08/17  08:47:03  BASE  1.90512  325  3.96312  315  -8.4  100   -8.4  0     0     1010.3   NA       0.0000   9999     750   0     0    
2019/08/17  08:48:03  BASE  1.74636  327  3.234    325  -8.4  100   -8.4  0     0     1010.3   NA       0.0000   9999     720   0     0    
2019/08/17  08:49:03  BASE  1.44648  332  3.234    325  -8.4  100   -8.4  0     0     1010.2   NA       0.0000   9999     750   0     0    
2019/08/17  08:50:03  BASE  1.4112   339  3.234    325  -8.4  100   -8.4  0     0     1010.3   NA       0.0000   9999     790   0     0    
2019/08/17  08:51:02  BASE  1.8522   342  3.234    325  -8.4  100   -8.4  0     0     1010.3   NA       0.0000   9999     750   0     0    
2019/08/17  08:52:03  BASE  2.5284   341  3.35748  334  -8.4  100   -8.4  0     0     1010.3   NA       0.0000   9999     790   0     0    
2019/08/17  08:53:03  BASE  3.03408  332  3.81024  322  -8.4  100   -8.4  0     0     1010.2   NA       0.0000   9999     790   0     0    
2019/08/17  08:54:03  BASE  2.78712  320  3.81024  322  -8.4  100   -8.4  0     0     1010.3   NA       0.0000   9999     750   0     0    
2019/08/17  08:55:02  BASE  2.15796  311  3.81024  322  -8.4  100   -8.4  0     0     1010.2   NA       0.0000   9999     720   0     0    
2019/08/17  08:56:03  BASE  1.68168  310  3.81024  322  -8.5  100   -8.5  0     0     1010.2   NA       0.0000   9999     750   0     0    
2019/08/17  08:57:03  BASE  1.30536  328  3.81024  322  -8.5  100   -8.5  0     0     1010.2   NA       0.0000   9999     750   0     0    
2019/08/17  08:58:03  BASE  1.66404  338  3.81024  322  -8.5  100   -8.5  0     0     1010.2   NA       0.0000   9999     750   0     0    
2019/08/17  08:59:02  BASE  2.0286   332  3.81024  322  -8.5  100   -8.5  0     0     1010.2   NA       0.0000   9999     750   0     0    
2019/08/17  09:00:02  BASE  2.18148  315  3.81024  322  -8.5  100   -8.5  0     0     1010.3   NA       0.0000   9999     790   0     0    
2019/08/17  09:01:03  BASE  2.18736  298  3.81024  322  -8.5  100   -8.5  0     0     1010.3   NA       0.0000   9999     720   0     0    
2019/08/17  09:02:02  BASE  1.76988  284  3.81024  322  -8.5  100   -8.5  0     0     1010.3   NA       0.0000   9999     720   0     0    
2019/08/17  09:03:02  BASE  1.51704  268  2.99292  288  -8.5  100   -8.5  0     0     1010.2   NA       0.0000   9999     720   0     0    
2019/08/17  09:04:03  BASE  1.45236  263  2.99292  288  -8.5  100   -8.5  0     0     1010.2   NA       0.0000   9999     720   0     0    
2019/08/17  09:05:04  BASE  1.48764  277  2.99292  288  -8.6  100   -8.6  0     0     1010.3   NA       0.0000   9999     720   0     0    
2019/08/17  09:06:02  BASE  2.00508  307  2.99292  288  -8.6  100   -8.6  0     0     1010.3   NA       0.0000   9999     790   0     0    
2019/08/17  09:07:03  BASE  2.27556  318  2.99292  288  -8.6  100   -8.6  0     0     1010.3   NA       0.0000   9999     720   0     0    
2019/08/17  09:08:03  BASE  1.9404   328  2.99292  288  -8.6  100   -8.6  0     0     1010.3   NA       0.0000   9999     720   0     0    
2019/08/17  09:09:02  BASE  1.8816   354  2.99292  288  -8.6  100   -8.6  0     0     1010.3   NA       0.0000   9999     750   0     0    
2019/08/17  09:10:02  BASE  2.11092  359  2.78124  323  -8.6  100   -8.6  0     0     1010.3   NA       0.0000   9999     790   0     0    
2019/08/17  09:11:03  BASE  2.54604  347  3.38688  353  -8.6  100   -8.6  0     0     1010.3   NA       0.0000   9999     790   0     0    
2019/08/17  09:12:03  BASE  2.5872   339  3.38688  353  -8.6  100   -8.6  0     0     1010.3   NA       0.0000   9999     790   0     0    
2019/08/17  09:13:02  BASE  2.97528  311  4.41588  312  -8.6  100   -8.6  0     0     1010.2   NA       0.0000   9999     790   0     0    
2019/08/17  09:14:03  BASE  3.65736  293  4.41588  312  -8.6  100   -8.6  0     0     1010.2   NA       0.0000   9999     820   0     0    
2019/08/17  09:15:03  BASE  3.3222   302  4.41588  312  -8.7  100   -8.7  0     0     1010.2   NA       0.0000   9999     0     0     0    
2019/08/17  09:16:03  BASE  2.65188  296  4.41588  312  -8.7  100   -8.7  0     0     1010.2   NA       0.0000   9999     0     0     0    
2019/08/17  09:17:03  BASE  2.19324  291  4.41588  312  -8.7  100   -8.7  0     0     1010.2   NA       0.0000   9999     690   0     0    
2019/08/17  09:18:03  BASE  1.92864  293  4.41588  312  -8.7  100   -8.7  0     0     1010.2   NA       0.0000   9999     720   0     0    
2019/08/17  09:19:02  BASE  2.28144  298  4.41588  312  -8.7  100   -8.7  0     0     1010.2   NA       0.0000   9999     720   0     0    
2019/08/17  09:20:03  BASE  2.68716  304  4.41588  312  -8.7  100   -8.7  0     0     1010.2   NA       0.0000   9999     720   0     0    
2019/08/17  09:21:02  BASE  2.10504  313  4.41588  312  -8.7  100   -8.7  0     0     1010.2   NA       0.0000   9999     720   0     0    
2019/08/17  09:22:03  BASE  1.82868  321  4.41588  312  -8.6  100   -8.6  0     0     1010.2   NA       0.0000   9999     720   0     0    
2019/08/17  09:23:03  BASE  1.75812  316  4.2042   303  -8.6  100   -8.6  0     0     1010.2   NA       0.0000   9999     720   0     0    
2019/08/17  09:24:02  BASE  1.04076  328  3.44568  293  -8.6  100   -8.6  0     0     1010.2   NA       0.0000   9999     750   0     0    
2019/08/17  09:25:02  BASE  1.04664  348  3.41628  315  -8.6  100   -8.6  0     0     1010.2   NA       0.0000   9999     750   0     0    
2019/08/17  09:26:02  BASE  1.45236  341  3.41628  315  -8.7  100   -8.7  0     0     1010.2   NA       0.0000   9999     750   0     0    
2019/08/17  09:27:03  BASE  1.21716  318  3.41628  315  -8.7  100   -8.7  0     0     1010.2   NA       0.0000   9999     750   0     0    
2019/08/17  09:28:03  BASE  0.9996   299  3.234    298  -8.7  100   -8.7  0     0     1010.2   NA       0.0000   9999     750   0     0    
2019/08/17  09:29:03  BASE  1.24068  299  3.1458   293  -8.7  100   -8.7  0     0     1010.2   NA       0.0000   9999     790   0     0    
2019/08/17  09:30:03  BASE  1.52292  310  2.87532  297  -8.7  100   -8.7  0     0     1010.2   NA       0.0000   9999     790   0     0    
2019/08/17  09:31:02  BASE  1.56408  317  2.87532  297  -8.7  100   -8.7  0     0     1010.2   NA       0.0000   9999     820   0     0    
2019/08/17  09:32:02  BASE  1.5876   320  2.29908  311  -8.7  100   -8.7  0     0     1010.2   NA       0.0000   9999     820   0     0    
2019/08/17  09:33:03  BASE  1.5876   318  1.96392  310  -8.8  100   -8.8  0     0     1010.2   NA       0.0000   9999     820   0     0    
2019/08/17  09:34:03  BASE  1.40532  314  1.96392  310  -8.8  100   -8.8  0     0     1010.2   NA       0.0000   9999     850   0     0    
2019/08/17  09:35:03  BASE  1.31712  319  1.96392  310  -8.8  100   -8.8  0     0     1010.1   NA       0.0000   9999     0     0     0    
2019/08/17  09:36:03  BASE  1.35828  334  1.96392  310  -8.9  100   -8.9  0     0     1010.1   NA       0.0000   9999     850   0     0    
2019/08/17  09:37:02  BASE  1.37592  345  1.96392  310  -8.9  100   -8.9  0     0     1010.1   NA       0.0000   9999     890   0     0    
2019/08/17  09:38:03  BASE  1.31712  338  1.96392  310  -8.9  100   -8.9  0     0     1010.1   NA       0.0000   9999     850   0     0    
2019/08/17  09:39:03  BASE  1.18776  317  1.96392  310  -8.9  100   -8.9  0     0     1010.1   NA       0.0000   9999     850   0     0    
2019/08/17  09:40:03  BASE  1.07016  311  1.93452  324  -8.9  100   -8.9  0     0     1010.1   NA       0.0000   9999     820   0     0    
2019/08/17  09:41:02  BASE  1.12896  327  1.93452  324  -8.8  100   -8.8  0     0     1010.0   NA       0.0000   9999     980   0     0    
2019/08/17  09:42:03  BASE  1.81692  335  2.87532  320  -8.8  100   -8.8  0     0     1010.0   NA       0.0000   9999     980   0     0    
2019/08/17  09:43:03  BASE  2.2932   331  2.87532  320  -8.8  100   -8.8  0     0     1010.0   NA       0.0000   9999     980   0     0    
2019/08/17  09:44:03  BASE  2.51076  336  2.99292  335  -8.8  100   -8.8  0     0     1010.0   NA       0.0000   9999     950   0     0    
2019/08/17  09:45:03  BASE  2.7048   347  2.99292  335  -8.8  100   -8.8  0     0     1010.0   NA       0.0000   9999     980   0     0    
2019/08/17  09:46:03  BASE  2.68716  356  2.99292  335  -8.8  100   -8.8  0     0     1010.0   NA       0.0000   9999     850   0     0    
2019/08/17  09:47:02  BASE  2.63424  358  2.99292  335  -8.9  100   -8.9  0     0     1010.1   NA       0.0000   9999     820   0     0    
2019/08/17  09:48:03  BASE  2.62836  345  2.99292  335  -8.9  100   -8.9  0     0     1010.1   NA       0.0000   9999     790   0     0    
2019/08/17  09:49:03  BASE  2.5284   337  2.99292  335  -8.9  100   -8.9  0     0     1010.1   NA       0.0000   9999     790   0     0    
2019/08/17  09:50:03  BASE  2.2638   339  2.99292  335  -8.9  100   -8.9  0     0     1010.1   NA       0.0000   9999     790   0     0    
2019/08/17  09:51:03  BASE  2.21676  344  2.99292  335  -8.9  100   -8.9  0     0     1010.1   NA       0.0000   9999     850   0     0    
2019/08/17  09:52:02  BASE  2.10504  348  2.99292  335  -8.9  100   -8.9  0     0     1010.1   NA       0.0000   9999     850   0     0    
2019/08/17  09:53:03  BASE  1.98156  353  2.99292  335  -8.9  100   -8.9  0     0     1010.0   NA       0.0000   9999     820   0     0    
2019/08/17  09:54:02  BASE  1.85808  351  2.93412  329  -8.9  100   -8.9  0     0     1010.0   NA       0.0000   9999     790   0     0    
2019/08/17  09:55:03  BASE  1.81692  344  2.93412  329  -8.8  100   -8.8  0     0     1010.0   NA       0.0000   9999     790   0     0    
2019/08/17  09:56:02  BASE  1.86984  352  2.93412  329  -8.8  100   -8.8  0     0     1010.0   NA       0.0000   9999     790   0     0    
2019/08/17  09:57:03  BASE  1.77576  356  2.93412  329  -8.8  100   -8.8  0     0     1010.0   NA       0.0000   9999     790   0     0    
2019/08/17  09:58:03  BASE  1.89336  345  2.56956  342  -8.8  100   -8.8  0     0     1010.0   NA       0.0000   9999     820   0     0    
2019/08/17  09:59:02  BASE  2.22852  342  2.75184  339  -8.8  100   -8.8  0     0     1010.1   NA       0.0000   9999     790   0     0    
2019/08/17  10:00:03  BASE  2.4402   345  2.78124  343  -8.9  100   -8.9  0     0     1010.1   NA       0.0000   9999     920   0     0    
2019/08/17  10:01:02  BASE  2.49312  342  2.78124  339  -8.8  100   -8.8  0     0     1010.1   NA       0.0000   9999     820   0     0    
2019/08/17  10:02:02  BASE  2.75772  343  3.234    349  -8.8  100   -8.8  0     0     1010.1   NA       0.0000   9999     920   0     0    
2019/08/17  10:03:03  BASE  3.09288  345  3.32808  344  -8.8  100   -8.8  0     0     1010.1   NA       0.0000   9999     850   0     0    
2019/08/17  10:04:03  BASE  2.95764  346  3.32808  344  -8.8  100   -8.8  0     0     1010.1   NA       0.0000   9999     820   0     0    
2019/08/17  10:05:03  BASE  2.81652  348  3.32808  344  -8.8  100   -8.8  0     0     1010.1   NA       0.0000   9999     790   0     0    
2019/08/17  10:06:02  BASE  2.64012  355  3.32808  344  -8.8  100   -8.8  0     0     1010.1   NA       0.0000   9999     820   0     0    
2019/08/17  10:07:03  BASE  2.72832  0    3.32808  344  -8.8  100   -8.8  0     0     1010.1   NA       0.0000   9999     750   0     0    
2019/08/17  10:08:03  BASE  2.9106   2    3.32808  344  -8.8  100   -8.8  0     0     1010.1   NA       0.0000   9999     790   0     0    
2019/08/17  10:09:03  BASE  3.1752   357  3.86904  346  -8.8  100   -8.8  0     0     1010.1   NA       0.0000   9999     750   0     0    
2019/08/17  10:10:03  BASE  3.47508  348  3.86904  346  -8.8  100   -8.8  0     0     1010.1   NA       0.0000   9999     750   0     0    
2019/08/17  10:11:03  BASE  2.92824  347  3.86904  346  -8.8  100   -8.8  0     0     1010.1   NA       0.0000   9999     750   0     0    
2019/08/17  10:12:02  BASE  2.41668  351  3.86904  346  -8.7  100   -8.7  0     0     1010.0   NA       0.0000   9999     750   0     0    
2019/08/17  10:13:03  BASE  2.8224   350  3.86904  346  -8.7  100   -8.7  0     0     1010.0   NA       0.0000   9999     750   0     0    
2019/08/17  10:14:03  BASE  3.36924  353  3.96312  349  -8.7  100   -8.7  0     0     1010.0   NA       0.0000   9999     690   0     0    
2019/08/17  10:15:03  BASE  3.36336  358  3.96312  349  -8.7  100   -8.7  0     0     1010.1   NA       0.0000   9999     750   0     0    
2019/08/17  10:16:03  BASE  3.15756  352  3.96312  349  -8.7  100   -8.7  0     0     1010.1   NA       0.0000   9999     750   0     0    
2019/08/17  10:17:03  BASE  3.04584  341  3.96312  349  -8.6  100   -8.6  0     0     1010.1   NA       0.0000   9999     750   0     0    
2019/08/17  10:18:03  BASE  3.10464  335  3.96312  349  -8.6  100   -8.6  0     0     1010.1   NA       0.0000   9999     750   0     0    
2019/08/17  10:19:03  BASE  3.1458   333  3.96312  349  -8.6  100   -8.6  0     0     1010.1   NA       0.0000   9999     790   0     0    
2019/08/17  10:20:02  BASE  3.29868  329  3.96312  349  -8.7  100   -8.7  0     0     1010.1   NA       0.0000   9999     820   0     0    
2019/08/17  10:21:02  BASE  3.38688  330  3.96312  349  -8.7  100   -8.7  0     0     1010.0   NA       0.0000   9999     820   0     0    
2019/08/17  10:22:03  BASE  3.30456  336  3.96312  349  -8.8  100   -8.8  0     0     1010.0   NA       0.0000   9999     1080  0     0    
2019/08/17  10:23:02  BASE  3.55152  339  4.05132  339  -8.8  100   -8.8  0     0     1010.1   NA       0.0000   9999     1020  0     0    
2019/08/17  10:24:03  BASE  3.6456   342  4.05132  339  -8.8  100   -8.8  0     0     1010.0   NA       0.0000   9999     820   0     0    
2019/08/17  10:25:02  BASE  3.56916  337  4.29828  318  -8.8  100   -8.8  0     0     1010.0   NA       0.0000   9999     750   0     0    
2019/08/17  10:26:02  BASE  3.65736  327  4.29828  318  -8.8  100   -8.8  0     0     1010.0   NA       0.0000   9999     750   0     0    
2019/08/17  10:27:03  BASE  3.5868   327  4.29828  318  -8.7  100   -8.7  0     0     1010.0   NA       0.0000   9999     790   0     0    
2019/08/17  10:28:03  BASE  3.53388  326  4.29828  318  -8.7  100   -8.7  0     0     1010.1   NA       0.0000   9999     820   0     0    
2019/08/17  10:29:02  BASE  3.63972  314  4.29828  318  -8.7  100   -8.7  0     0     1010.1   NA       0.0000   9999     890   0     0    
2019/08/17  10:30:03  BASE  3.57504  307  4.29828  318  -8.8  100   -8.8  0     0     1010.1   NA       0.0000   9999     1180  0     0    
2019/08/17  10:31:03  BASE  3.675    298  4.83924  277  -8.8  100   -8.8  0     0     1010.0   NA       0.0000   9999     1210  0     0    
2019/08/17  10:32:03  BASE  4.06308  292  4.83924  277  -8.8  100   -8.8  0     0     1010.0   NA       0.0000   9999     1180  0     0    
2019/08/17  10:33:02  BASE  4.34532  288  5.10972  278  -8.8  100   -8.8  0     0     1010.1   NA       0.0000   9999     1180  0     0    
2019/08/17  10:34:03  BASE  4.57464  285  5.53308  283  -8.8  100   -8.8  0     0     1010.1   NA       0.0000   9999     1150  0     0    
2019/08/17  10:35:02  BASE  4.41588  286  5.59776  272  -8.8  100   -8.8  0     0     1010.1   NA       0.0000   9999     1050  0     0    
2019/08/17  10:36:03  BASE  4.33944  285  5.86824  287  -8.8  100   -8.8  0     0     1010.1   NA       0.0000   9999     1080  0     0    
2019/08/17  10:37:03  BASE  4.51584  286  5.86824  287  -8.8  100   -8.8  0     0     1010.1   NA       0.0000   9999     920   0     0    
2019/08/17  10:38:03  BASE  4.25712  288  5.86824  287  -8.7  100   -8.7  0     0     1010.1   NA       0.0000   9999     1050  0     0    
2019/08/17  10:39:02  BASE  3.97488  293  5.86824  287  -8.7  100   -8.7  0     0     1010.1   NA       0.0000   9999     920   0     0    
2019/08/17  10:40:03  BASE  3.95136  299  5.86824  287  -8.7  100   -8.7  0     0     1010.0   NA       0.0000   9999     1020  0     0    
2019/08/17  10:41:03  BASE  3.8808   300  5.86824  287  -8.7  100   -8.7  0     0     1010.0   NA       0.0000   9999     850   0     0    
2019/08/17  10:42:03  BASE  4.09836  294  5.86824  287  -8.7  100   -8.7  0     0     1010.0   NA       0.0000   9999     1120  0     0    
2019/08/17  10:43:03  BASE  4.1454   291  5.86824  287  -8.8  100   -8.8  0     0     1010.0   NA       0.0000   9999     1080  0     0    
2019/08/17  10:44:02  BASE  3.96312  291  5.86824  287  -8.8  100   -8.8  0     0     1010.0   NA       0.0000   9999     950   0     0    
2019/08/17  10:45:02  BASE  4.01604  285  5.86824  287  -8.8  100   -8.8  0     0     1010.0   NA       0.0000   9999     920   0     0    
2019/08/17  10:46:02  BASE  4.1748   282  5.2038   285  -8.8  100   -8.8  0     0     1010.0   NA       0.0000   9999     980   0     0    
2019/08/17  10:47:03  BASE  4.36296  283  5.2038   275  -8.7  100   -8.7  0     0     1010.1   NA       0.0000   9999     1020  0     0    
2019/08/17  10:48:03  BASE  4.6158   283  5.53308  275  -8.7  100   -8.7  0     0     1010.1   NA       0.0000   9999     1120  0     0    
2019/08/17  10:49:02  BASE  4.66872  288  5.53308  275  -8.7  100   -8.7  0     0     1010.1   NA       0.0000   9999     1020  0     0    
2019/08/17  10:50:02  BASE  4.47468  290  5.53308  275  -8.7  100   -8.7  0     0     1010.1   NA       0.0000   9999     1120  0     0    
2019/08/17  10:51:02  BASE  4.40412  288  5.53308  275  -8.7  100   -8.7  0     0     1010.2   NA       0.0000   9999     890   1640  0    
2019/08/17  10:52:03  BASE  4.44528  290  5.53308  275  -8.7  100   -8.7  0     0     1010.2   NA       0.0000   9999     1210  0     0    
2019/08/17  10:53:03  BASE  4.35708  287  5.53308  275  -8.7  100   -8.7  0     0     1010.3   NA       0.0000   9999     1050  0     0    
2019/08/17  10:54:03  BASE  3.82788  285  5.53308  275  -8.7  100   -8.7  0     0     1010.3   NA       0.0000   9999     1120  0     0    
2019/08/17  10:55:03  BASE  3.72204  286  5.53308  275  -8.7  100   -8.7  0     0     1010.3   NA       0.0000   9999     950   0     0    
2019/08/17  10:56:03  BASE  4.35708  284  5.53308  275  -8.7  100   -8.7  0     0     1010.3   NA       0.0000   9999     1210  0     0    
2019/08/17  10:57:02  BASE  4.68636  279  6.07992  271  -8.7  100   -8.7  0     0     1010.3   NA       0.0000   9999     920   0     0    
2019/08/17  10:58:03  BASE  4.19244  276  6.07992  271  -8.6  100   -8.6  0     0     1010.3   NA       0.0000   9999     980   0     0    
2019/08/17  10:59:02  BASE  3.8808   279  6.07992  271  -8.6  100   -8.6  0     0     1010.3   NA       0.0000   9999     820   0     0    
2019/08/17  11:00:03  BASE  3.96312  286  6.07992  271  -8.6  100   -8.6  0     0     1010.3   NA       0.0000   9999     920   0     0    
2019/08/17  11:01:03  BASE  4.18068  288  6.07992  271  -8.6  100   -8.6  0     0     1010.2   NA       0.0000   9999     1020  0     0    
2019/08/17  11:02:02  BASE  4.44528  291  6.07992  271  -8.6  100   -8.6  0     0     1010.2   NA       0.0000   9999     790   0     0    
2019/08/17  11:03:03  BASE  4.65108  293  6.07992  271  -8.6  100   -8.6  0     0     1010.3   NA       0.0000   9999     790   1280  0    
2019/08/17  11:04:03  BASE  4.97448  289  6.07992  271  -8.6  100   -8.6  0     0     1010.3   NA       0.0000   9999     790   1710  0    
2019/08/17  11:05:04  BASE  4.851    286  6.07992  271  -8.6  100   -8.6  0     0     1010.3   NA       0.0000   9999     790   0     0    
2019/08/17  11:06:03  BASE  4.6158   287  6.07992  271  -8.7  100   -8.7  0     0     1010.3   NA       0.0000   9999     820   0     0    
2019/08/17  11:07:03  BASE  4.55112  283  5.65656  280  -8.7  100   -8.7  0     0     1010.3   NA       0.0000   9999     850   0     0    
2019/08/17  11:08:03  BASE  4.53936  286  5.65656  280  -8.7  100   -8.7  0     0     1010.3   NA       0.0000   9999     850   1670  0    
2019/08/17  11:09:03  BASE  4.9392   289  5.71536  286  -8.7  100   -8.7  0     0     1010.3   NA       0.0000   9999     820   1670  0    
2019/08/17  11:10:02  BASE  5.06856  291  5.71536  286  -8.7  100   -8.7  0     0     1010.3   NA       0.0000   9999     920   1570  0    
2019/08/17  11:11:03  BASE  4.80984  296  5.71536  286  -8.7  100   -8.7  0     0     1010.3   NA       0.0000   9999     850   0     0    
2019/08/17  11:12:03  BASE  4.94508  293  5.71536  286  -8.8  100   -8.8  0     0     1010.3   NA       0.0000   9999     850   0     0    
2019/08/17  11:13:03  BASE  5.19204  290  5.80944  284  -8.8  100   -8.8  0     0     1010.3   NA       0.0000   9999     890   0     0    
2019/08/17  11:14:03  BASE  5.30964  290  5.80944  284  -8.8  100   -8.8  0     0     1010.3   NA       0.0000   9999     1020  0     0    
2019/08/17  11:15:03  BASE  5.35668  289  5.80944  284  -8.8  100   -8.8  0     0     1010.3   NA       0.0000   9999     850   0     0    
2019/08/17  11:16:02  BASE  5.19204  291  5.83884  292  -8.8  100   -8.8  0     0     1010.3   NA       0.0000   9999     820   0     0    
2019/08/17  11:17:02  BASE  4.96272  292  5.83884  292  -8.8  100   -8.8  0     0     1010.3   NA       0.0000   9999     850   0     0    
2019/08/17  11:18:03  BASE  5.01564  292  6.2328   289  -8.8  100   -8.8  0     0     1010.3   NA       0.0000   9999     850   0     0    
2019/08/17  11:19:03  BASE  5.30964  290  6.2328   289  -8.8  100   -8.8  0     0     1010.3   NA       0.0000   9999     1020  0     0    
2019/08/17  11:20:02  BASE  5.56248  284  6.3798   273  -8.8  100   -8.8  0     0     1010.3   NA       0.0000   9999     1080  0     0    
2019/08/17  11:21:03  BASE  5.68008  281  6.41508  284  -8.8  100   -8.8  0     0     1010.4   NA       0.0000   9999     1280  0     0    
2019/08/17  11:22:03  BASE  5.68596  282  6.41508  284  -8.8  100   -8.8  0     0     1010.4   NA       0.0000   9999     1150  0     0    
2019/08/17  11:23:02  BASE  5.25672  285  6.41508  284  -8.8  100   -8.8  0     0     1010.3   NA       0.0000   9999     1120  0     0    
2019/08/17  11:24:02  BASE  5.03916  286  6.41508  284  -8.8  100   -8.8  0     0     1010.3   NA       0.0000   9999     1080  0     0    
2019/08/17  11:25:03  BASE  5.37432  285  6.41508  284  -8.7  100   -8.7  0     0     1010.3   NA       0.0000   9999     1120  0     0    
2019/08/17  11:26:02  BASE  5.33316  286  6.41508  284  -8.7  100   -8.7  0     0     1010.3   NA       0.0000   9999     1210  0     0    
2019/08/17  11:27:02  BASE  5.7036   286  6.98544  289  -8.7  100   -8.7  0     0     1010.3   NA       0.0000   9999     1180  0     0    
2019/08/17  11:28:03  BASE  6.13284  288  6.98544  289  -8.7  100   -8.7  0     0     1010.3   NA       0.0000   9999     1180  0     0    
2019/08/17  11:29:02  BASE  5.9388   290  6.98544  289  -8.8  100   -8.8  0     0     1010.3   NA       0.0000   9999     980   0     0    
2019/08/17  11:30:03  BASE  5.86824  288  6.98544  289  -8.8  100   -8.8  0     0     1010.3   NA       0.0000   9999     980   0     0    
2019/08/17  11:31:03  BASE  5.56248  284  6.98544  289  -8.8  100   -8.8  0     0     1010.3   NA       0.0000   9999     1080  0     0    
2019/08/17  11:32:03  BASE  5.18616  283  6.98544  289  -8.8  100   -8.8  1     0     1010.3   NA       0.0000   9999     1080  0     0    
2019/08/17  11:33:03  BASE  5.36844  287  6.98544  289  -8.8  100   -8.8  1     0     1010.3   NA       0.0000   9999     1080  0     0    
2019/08/17  11:34:03  BASE  5.38608  290  6.98544  289  -8.8  100   -8.8  1     0     1010.3   NA       0.0000   9999     950   0     0    
2019/08/17  11:35:03  BASE  5.09208  293  6.98544  289  -8.8  100   -8.8  1     0     1010.3   NA       0.0000   9999     980   0     0    
2019/08/17  11:36:03  BASE  5.01564  294  6.98544  289  -8.8  100   -8.8  1     0     1010.3   NA       0.0000   9999     1050  0     0    
2019/08/17  11:37:02  BASE  5.51544  294  6.74436  282  -8.8  100   -8.8  1     0     1010.3   NA       0.0000   9999     1020  0     0    
2019/08/17  11:38:03  BASE  5.60952  292  6.74436  282  -8.8  100   -8.8  1     0     1010.4   NA       0.0000   9999     890   0     0    
2019/08/17  11:39:02  BASE  5.2626   290  6.74436  282  -8.8  100   -8.8  1     0     1010.4   NA       0.0000   9999     950   0     0    
2019/08/17  11:40:03  BASE  5.18616  291  6.3798   293  -8.8  100   -8.8  1     0     1010.4   NA       0.0000   9999     920   0     0    
2019/08/17  11:41:02  BASE  4.90392  291  6.3798   293  -8.8  100   -8.8  1     0     1010.4   NA       0.0000   9999     890   0     0    
2019/08/17  11:42:03  BASE  4.40412  292  6.3798   293  -8.8  100   -8.8  1     0     1010.4   NA       0.0000   9999     920   0     0    
2019/08/17  11:43:03  BASE  3.89844  298  6.3798   293  -8.8  100   -8.8  1     0     1010.4   NA       0.0000   9999     950   0     0    
2019/08/17  11:44:03  BASE  3.8808   302  6.3798   293  -8.8  100   -8.8  1     0     1010.3   NA       0.0000   9999     920   0     0    
2019/08/17  11:45:03  BASE  4.01604  303  6.3798   293  -8.9  100   -8.9  1     0     1010.3   NA       0.0000   9999     890   0     0    
2019/08/17  11:46:03  BASE  3.8808   306  6.3798   293  -8.9  100   -8.9  1     0     1010.3   NA       0.0000   9999     890   0     0    
2019/08/17  11:47:03  BASE  3.72792  312  6.13872  289  -8.9  100   -8.9  1     0     1010.3   NA       0.0000   9999     890   0     0    
2019/08/17  11:48:03  BASE  3.822    312  6.13872  289  -8.9  100   -8.9  1     0     1010.3   NA       0.0000   9999     890   0     0    
2019/08/17  11:49:03  BASE  4.19832  312  5.47428  284  -8.9  100   -8.9  1     0     1010.2   NA       0.0000   9999     890   0     0    
2019/08/17  11:50:03  BASE  4.39824  309  5.47428  284  -8.9  100   -8.9  1     0     1010.2   NA       0.0000   9999     890   0     0    
2019/08/17  11:51:03  BASE  4.26888  304  4.65696  310  -8.9  100   -8.9  1     0     1010.2   NA       0.0000   9999     850   0     0    
2019/08/17  11:52:03  BASE  4.05132  304  4.65696  310  -8.9  100   -8.9  1     0     1010.1   NA       0.0000   9999     890   0     0    
2019/08/17  11:53:03  BASE  3.89256  305  4.65696  310  -8.9  100   -8.9  1     0     1010.1   NA       0.0000   9999     890   0     0    
2019/08/17  11:54:03  BASE  3.6162   306  4.65696  310  -8.9  100   -8.9  1     0     1010.1   NA       0.0000   9999     890   0     0    
2019/08/17  11:55:02  BASE  3.34572  306  4.65696  310  -8.9  100   -8.9  1     0     1010.2   NA       0.0000   9999     920   0     0    
2019/08/17  11:56:03  BASE  3.33396  307  4.65696  310  -8.9  100   -8.9  1     0     1010.2   NA       0.0000   9999     920   0     0    
2019/08/17  11:57:02  BASE  3.47508  309  4.65696  310  -8.9  100   -8.9  1     0     1010.2   NA       0.0000   9999     890   0     0    
2019/08/17  11:58:03  BASE  3.72792  307  4.65696  310  -8.9  100   -8.9  1     0     1010.2   NA       0.0000   9999     890   0     0    
2019/08/17  11:59:02  BASE  3.78084  308  4.65696  310  -8.9  100   -8.9  1     0     1010.2   NA       0.0000   9999     890   0     0    
2019/08/17  12:00:03  BASE  3.56328  312  4.53936  300  -8.9  100   -8.9  1     0     1010.1   NA       0.0000   9999     950   0     0    
2019/08/17  12:01:03  BASE  3.2634   311  4.44528  306  -8.9  100   -8.9  1     0     1010.1   NA       0.0000   9999     950   0     0    
2019/08/17  12:02:02  BASE  3.12228  311  4.44528  306  -8.9  100   -8.9  1     0     1010.1   NA       0.0000   9999     920   0     0    
2019/08/17  12:03:03  BASE  2.9988   313  4.44528  306  -8.9  100   -8.9  1     0     1010.1   NA       0.0000   9999     920   0     0    
2019/08/17  12:04:02  BASE  2.87532  320  4.44528  306  -8.9  100   -8.9  1     0     1010.1   NA       0.0000   9999     950   0     0    
2019/08/17  12:05:03  BASE  2.90472  325  4.44528  306  -8.9  100   -8.9  1     0     1010.1   NA       0.0000   9999     950   0     0    
2019/08/17  12:06:04  BASE  2.93412  318  4.44528  306  -8.9  100   -8.9  1     0     1010.2   NA       0.0000   9999     920   0     0    
2019/08/17  12:07:03  BASE  2.75184  316  4.08072  303  -8.9  100   -8.9  2     0     1010.2   NA       0.0000   9999     920   0     0    
2019/08/17  12:08:03  BASE  2.62836  319  3.93372  312  -8.9  100   -8.9  2     0     1010.2   NA       0.0000   9999     890   0     0    
2019/08/17  12:09:02  BASE  2.74596  314  3.65736  306  -8.9  100   -8.9  2     0     1010.2   NA       0.0000   9999     920   0     0    
2019/08/17  12:10:02  BASE  2.7342   312  3.59856  314  -8.9  100   -8.9  2     0     1010.3   NA       0.0000   9999     890   0     0    
2019/08/17  12:11:02  BASE  2.8812   315  3.59856  314  -8.9  100   -8.9  2     0     1010.3   NA       0.0000   9999     920   0     0    
2019/08/17  12:12:03  BASE  2.8224   312  3.59856  314  -8.8  100   -8.8  3     0     1010.3   NA       0.0000   9999     920   0     0    
2019/08/17  12:13:02  BASE  2.80476  305  3.59856  314  -8.8  100   -8.8  3     0     1010.3   NA       0.0000   9999     920   0     0    
2019/08/17  12:14:03  BASE  2.90472  302  3.59856  314  -8.8  100   -8.8  3     0     1010.3   NA       0.0000   9999     920   0     0    
2019/08/17  12:15:02  BASE  3.03996  299  3.62796  295  -8.8  100   -8.8  3     0     1010.4   NA       0.0000   9999     920   0     0    
2019/08/17  12:16:03  BASE  3.24576  295  3.93372  286  -8.8  100   -8.8  4     0     1010.4   NA       0.0000   9999     920   0     0    
2019/08/17  12:17:03  BASE  3.30456  289  3.93372  286  -8.8  100   -8.8  4     0     1010.6   NA       0.0000   9999     890   0     0    
2019/08/17  12:18:03  BASE  3.19872  287  3.93372  286  -8.8  100   -8.8  4     0     1010.6   NA       0.0000   9999     920   0     0    
2019/08/17  12:19:02  BASE  2.8518   292  3.93372  286  -8.8  100   -8.8  5     0     1010.6   NA       0.0000   9999     950   0     0    
2019/08/17  12:20:03  BASE  2.76948  296  3.93372  286  -8.7  100   -8.7  5     0     1010.6   NA       0.0000   9999     980   0     0    
2019/08/17  12:21:03  BASE  3.01644  297  3.93372  286  -8.7  100   -8.7  5     0     1010.6   NA       0.0000   9999     950   0     0    
2019/08/17  12:22:03  BASE  3.13992  296  3.93372  286  -8.7  100   -8.7  6     0     1010.5   NA       0.0000   9999     980   0     0    
2019/08/17  12:23:03  BASE  3.2928   297  3.93372  286  -8.7  100   -8.7  6     0     1010.5   NA       0.0000   9999     980   0     0    
2019/08/17  12:24:03  BASE  3.72792  297  4.50996  291  -8.7  100   -8.7  6     0     1010.5   NA       0.0000   9999     950   0     0    
2019/08/17  12:25:03  BASE  3.8808   298  4.50996  291  -8.7  100   -8.7  7     0     1010.4   NA       0.0000   9999     980   0     0    
2019/08/17  12:26:02  BASE  3.65736  301  4.50996  291  -8.7  100   -8.7  7     0     1010.4   NA       0.0000   9999     980   0     0    
2019/08/17  12:27:03  BASE  3.53976  298  4.50996  291  -8.7  100   -8.7  8     0     1010.4   NA       0.0000   9999     980   0     0    
2019/08/17  12:28:03  BASE  3.59856  301  4.50996  291  -8.8  100   -8.8  8     0     1010.3   NA       0.0000   9999     980   0     0    
2019/08/17  12:29:02  BASE  3.75144  303  4.50996  291  -8.8  100   -8.8  9     0     1010.3   NA       0.0000   9999     950   0     0    
2019/08/17  12:30:12  BASE  3.65736  304  4.50996  291  -8.8  100   -8.8  9     0     1010.3   NA       0.0000   9999     950   0     0    
2019/08/17  12:31:03  BASE  3.57504  303  4.50996  291  -8.8  100   -8.8  10    0     1010.3   NA       0.0000   9999     1020  0     0    
2019/08/17  12:32:03  BASE  3.45156  305  4.50996  291  -8.8  100   -8.8  10    0     1010.3   NA       0.0000   9999     980   0     0    
2019/08/17  12:33:03  BASE  3.2046   310  4.50996  291  -8.8  100   -8.8  10    0     1010.3   NA       0.0000   9999     950   0     0    
2019/08/17  12:34:03  BASE  3.27516  308  4.44528  294  -8.8  100   -8.8  11    0     1010.3   NA       0.0000   9999     980   0     0    
2019/08/17  12:35:02  BASE  3.16344  310  4.44528  294  -8.8  100   -8.8  12    0     1010.3   NA       0.0000   9999     980   0     0    
2019/08/17  12:36:03  BASE  2.77536  312  4.44528  294  -8.8  100   -8.8  12    0     1010.3   NA       0.0000   9999     980   0     0    
2019/08/17  12:37:03  BASE  2.48724  312  4.44528  294  -8.8  100   -8.8  13    0     1010.3   NA       0.0000   9999     1020  0     0    
2019/08/17  12:38:03  BASE  2.63424  312  4.44528  294  -8.8  100   -8.8  14    0     1010.3   NA       0.0000   9999     980   0     0    
2019/08/17  12:39:03  BASE  2.81064  311  4.44528  294  -8.8  100   -8.8  15    0     1010.2   NA       0.0000   9999     980   0     0    
2019/08/17  12:40:03  BASE  2.7342   312  4.44528  294  -8.8  100   -8.8  15    0     1010.2   NA       0.0000   9999     1020  0     0    
2019/08/17  12:41:02  BASE  2.7342   313  3.62796  300  -8.8  100   -8.8  16    0     1010.2   NA       0.0000   9999     1020  0     0    
2019/08/17  12:42:03  BASE  2.72832  312  3.62796  300  -8.8  100   -8.8  17    0     1010.3   NA       0.0000   9999     1020  0     0    
2019/08/17  12:43:03  BASE  2.64012  312  3.62796  300  -8.8  100   -8.8  17    0     1010.3   NA       0.0000   9999     980   0     0    
2019/08/17  12:44:03  BASE  2.74008  309  3.29868  306  -8.8  100   -8.8  18    0     1010.3   NA       0.0000   9999     950   0     0    
2019/08/17  12:45:02  BASE  2.9988   311  3.35748  313  -8.8  100   -8.8  19    0     1010.3   NA       0.0000   9999     980   0     0    
2019/08/17  12:46:03  BASE  3.05172  316  3.35748  325  -8.8  100   -8.8  19    0     1010.3   NA       0.0000   9999     950   0     0    
2019/08/17  12:47:02  BASE  2.94     315  3.35748  325  -8.8  100   -8.8  20    0     1010.3   NA       0.0000   9999     950   0     0    
2019/08/17  12:48:03  BASE  2.69892  314  3.35748  325  -8.8  100   -8.8  20    0     1010.3   NA       0.0000   9999     950   0     0    
2019/08/17  12:49:03  BASE  2.4696   316  3.35748  325  -8.7  100   -8.7  21    0     1010.4   NA       0.0000   9999     950   0     0    
2019/08/17  12:50:02  BASE  2.33436  314  3.35748  325  -8.7  100   -8.7  21    0     1010.5   NA       0.0000   9999     950   0     0    
2019/08/17  12:51:02  BASE  2.28144  312  3.35748  325  -8.7  100   -8.7  22    0     1010.6   NA       0.0000   9999     920   0     0    
2019/08/17  12:52:02  BASE  2.46372  311  3.35748  325  -8.7  100   -8.7  22    0     1010.5   NA       0.0000   9999     890   0     0    
2019/08/17  12:53:02  BASE  2.56956  309  3.35748  325  -8.6  100   -8.6  22    0     1010.5   NA       0.0000   9999     850   0     0    
2019/08/17  12:54:02  BASE  2.54016  309  3.35748  325  -8.6  100   -8.6  23    0     1010.6   NA       0.0000   9999     920   0     0    
2019/08/17  12:55:03  BASE  2.56368  316  3.35748  325  -8.6  100   -8.6  24    0     1010.6   NA       0.0000   9999     890   0     0    
2019/08/17  12:56:03  BASE  2.59896  331  3.2046   310  -8.6  100   -8.6  25    0     1010.6   NA       0.0000   9999     920   0     0    
2019/08/17  12:57:02  BASE  2.36376  332  3.2046   310  -8.6  100   -8.6  25    0     1010.6   NA       0.0000   9999     950   0     0    
2019/08/17  12:58:03  BASE  2.22264  329  3.2046   310  -8.6  100   -8.6  25    0     1010.7   NA       0.0000   9999     920   0     0    
2019/08/17  12:59:02  BASE  2.28732  332  3.2046   310  -8.6  100   -8.6  26    0     1010.7   NA       0.0000   9999     890   0     0    
2019/08/17  13:00:03  BASE  2.3814   344  3.2046   310  -8.6  100   -8.6  26    0     1010.7   NA       0.0000   9999     950   0     0    
2019/08/17  13:01:02  BASE  2.33436  342  3.2046   310  -8.6  100   -8.6  26    0     1010.6   NA       0.0000   9999     950   0     0    
2019/08/17  13:02:03  BASE  1.72872  318  3.2046   310  -8.5  100   -8.5  27    0     1010.6   NA       0.0000   9999     920   0     0    
2019/08/17  13:03:02  BASE  1.2348   315  3.087    337  -8.5  100   -8.5  27    0     1010.4   NA       0.0000   9999     920   0     0    
2019/08/17  13:04:02  BASE  1.48176  328  3.087    337  -8.5  100   -8.5  27    0     1010.4   NA       0.0000   9999     920   0     0    
2019/08/17  13:05:03  BASE  2.01684  334  3.087    337  -8.5  100   -8.5  28    0     1010.3   NA       0.0000   9999     920   0     0    
2019/08/17  13:06:03  BASE  2.25792  334  3.087    337  -8.5  100   -8.5  29    0     1010.3   NA       0.0000   9999     950   0     0    
2019/08/17  13:07:03  BASE  2.2344   327  3.087    337  -8.4  100   -8.4  30    0     1010.4   NA       0.0000   9999     890   0     0    
2019/08/17  13:08:02  BASE  2.43432  314  3.1458   302  -8.4  100   -8.4  30    0     1010.4   NA       0.0000   9999     920   0     0    
2019/08/17  13:09:03  BASE  2.62248  300  3.48096  278  -8.4  100   -8.4  31    0     1010.4   NA       0.0000   9999     920   0     0    
2019/08/17  13:10:02  BASE  2.00508  299  3.48096  278  -8.3  100   -8.3  31    0     1010.3   NA       0.0000   9999     950   0     0    
2019/08/17  13:11:02  BASE  1.56408  315  3.48096  278  -8.3  100   -8.3  32    0     1010.2   NA       0.0000   9999     980   0     0    
2019/08/17  13:12:03  BASE  1.79928  311  3.48096  278  -8.3  100   -8.3  33    0     1010.1   NA       0.0000   9999     1020  0     0    
2019/08/17  13:13:03  BASE  2.0286   295  3.48096  278  -8.3  100   -8.3  33    0     1010.0   NA       0.0000   9999     980   0     0    
2019/08/17  13:14:03  BASE  2.06976  306  3.48096  278  -8.3  100   -8.3  34    0     1010.0   NA       0.0000   9999     950   0     0    
2019/08/17  13:15:03  BASE  2.14032  310  3.48096  278  -8.3  100   -8.3  35    0     1010.0   NA       0.0000   9999     1050  0     0    
2019/08/17  13:16:03  BASE  2.4402   299  3.48096  278  -8.2  100   -8.2  35    0     1010.1   NA       0.0000   9999     1050  0     0    
2019/08/17  13:17:03  BASE  2.21676  304  3.48096  278  -8.2  100   -8.2  36    0     1010.2   NA       0.0000   9999     950   0     0    
2019/08/17  13:18:03  BASE  2.01684  305  3.48096  278  -8.3  100   -8.3  37    0     1010.1   NA       0.0000   9999     920   0     0    
2019/08/17  13:19:02  BASE  2.1756   298  2.87532  301  -8.3  100   -8.3  37    0     1010.0   NA       0.0000   9999     980   0     0    
2019/08/17  13:20:02  BASE  2.83416  301  3.93372  298  -8.2  100   -8.2  36    0     1009.9   NA       0.0000   9999     950   0     0    
2019/08/17  13:21:03  BASE  3.63972  306  4.08072  301  -8.2  100   -8.2  35    0     1009.8   NA       0.0000   9999     1050  0     0    
2019/08/17  13:22:03  BASE  3.6162   307  4.08072  301  -8.2  100   -8.2  34    0     1009.7   NA       0.0000   9999     950   0     0    
2019/08/17  13:23:03  BASE  3.2634   301  4.08072  301  -8.2  100   -8.2  34    0     1009.7   NA       0.0000   9999     890   0     0    
2019/08/17  13:24:02  BASE  3.06936  295  4.08072  301  -8.2  100   -8.2  34    0     1009.8   NA       0.0000   9999     850   0     0    
2019/08/17  13:25:02  BASE  2.9106   290  4.08072  301  -8.2  100   -8.2  34    0     1010.0   NA       0.0000   9999     890   0     0    
2019/08/17  13:26:03  BASE  2.77536  277  4.08072  301  -8.2  100   -8.2  34    0     1010.1   NA       0.0000   9999     890   0     0    
2019/08/17  13:27:03  BASE  3.16344  268  4.78044  263  -8.2  100   -8.2  34    0     1010.2   NA       0.0000   9999     950   0     0    
2019/08/17  13:28:02  BASE  3.62796  273  4.78044  263  -8.1  100   -8.1  34    0     1010.2   NA       0.0000   9999     980   0     0    
2019/08/17  13:29:03  BASE  3.73968  280  4.78044  263  -8.1  100   -8.1  34    0     1010.1   NA       0.0000   9999     980   0     0    
2019/08/17  13:30:02  BASE  3.7632   281  4.78044  263  -8.1  100   -8.1  35    0     1009.9   NA       0.0000   9999     980   0     0    
2019/08/17  13:31:02  BASE  3.80436  284  4.78044  263  -8.2  100   -8.2  35    0     1009.8   NA       0.0000   9999     980   0     0    
2019/08/17  13:32:02  BASE  3.89256  287  4.78044  263  -8.2  100   -8.2  35    0     1009.7   NA       0.0000   9999     950   0     0    
2019/08/17  13:33:02  BASE  3.7632   289  4.78044  263  -8.2  100   -8.2  35    0     1009.7   NA       0.0000   9999     980   0     0    
2019/08/17  13:34:03  BASE  3.21048  295  4.78044  263  -8.2  100   -8.2  36    0     1009.8   NA       0.0000   9999     920   0     0    
2019/08/17  13:35:03  BASE  2.86356  299  4.78044  263  -8.2  100   -8.2  38    0     1009.9   NA       0.0000   9999     950   0     0    
2019/08/17  13:36:03  BASE  2.83416  286  4.78044  263  -8.2  100   -8.2  39    0     1010.0   NA       0.0000   9999     980   0     0    
2019/08/17  13:37:03  BASE  2.81652  278  4.41588  273  -8.2  100   -8.2  40    0     1010.0   NA       0.0000   9999     950   0     0    
2019/08/17  13:38:02  BASE  3.18696  287  4.41588  273  -8.2  100   -8.2  42    0     1010.0   NA       0.0000   9999     950   0     0    
2019/08/17  13:39:03  BASE  3.7338   293  4.41588  273  -8.2  100   -8.2  42    0     1010.0   NA       0.0000   9999     950   0     0    
2019/08/17  13:40:02  BASE  4.15128  291  4.75104  286  -8.2  100   -8.2  43    0     1010.1   NA       0.0000   9999     980   0     0    
2019/08/17  13:41:02  BASE  4.28064  290  4.75104  286  -8.2  100   -8.2  43    0     1010.1   NA       0.0000   9999     980   0     0    
2019/08/17  13:42:03  BASE  4.39236  291  4.99212  292  -8.2  100   -8.2  44    0     1010.0   NA       0.0000   9999     890   0     0    
2019/08/17  13:43:03  BASE  4.3218   291  4.99212  292  -8.2  100   -8.2  45    0     1010.1   NA       0.0000   9999     980   0     0    
2019/08/17  13:44:03  BASE  4.2336   289  4.99212  292  -8.2  100   -8.2  44    0     1010.1   NA       0.0000   9999     980   0     0    
2019/08/17  13:45:02  BASE  4.116    286  4.99212  292  -8.2  100   -8.2  44    0     1010.1   NA       0.0000   9999     950   0     0    
2019/08/17  13:46:03  BASE  4.04544  284  4.99212  292  -8.2  100   -8.2  43    0     1010.1   NA       0.0000   9999     980   0     0    
2019/08/17  13:47:03  BASE  4.45116  281  5.05092  281  -8.2  100   -8.2  43    0     1010.1   NA       0.0000   9999     950   0     0    
2019/08/17  13:48:03  BASE  4.557    282  5.35668  283  -8.2  100   -8.2  45    0     1010.0   NA       0.0000   9999     920   0     0    
2019/08/17  13:49:03  BASE  4.84512  288  5.99172  287  -8.1  100   -8.1  45    0     1009.9   NA       0.0000   9999     950   0     0    
2019/08/17  13:50:02  BASE  5.4096   287  6.2328   274  -8.1  100   -8.1  46    0     1009.9   NA       0.0000   9999     890   0     0    
2019/08/17  13:51:02  BASE  5.8212   277  7.2324   271  -8.1  100   -8.1  47    0     1010.0   NA       0.0000   9999     890   0     0    
2019/08/17  13:52:03  BASE  5.92116  273  7.4088   267  -8.1  100   -8.1  49    0     1010.0   NA       0.0000   9999     920   0     0    
2019/08/17  13:53:02  BASE  5.6154   272  7.4088   267  -8.2  100   -8.2  52    0     1009.9   NA       0.0000   9999     920   0     0    
2019/08/17  13:54:03  BASE  5.91528  274  7.4088   267  -8.3  100   -8.3  53    0     1009.8   NA       0.0000   9999     980   0     0    
2019/08/17  13:55:03  BASE  5.97996  279  7.4088   267  -8.3  100   -8.3  55    0     1009.8   NA       0.0000   9999     1020  0     0    
2019/08/17  13:56:02  BASE  6.23868  281  8.04384  278  -8.4  100   -8.4  56    0     1009.8   NA       0.0000   9999     980   0     0    
2019/08/17  13:57:03  BASE  6.86196  278  8.04384  278  -8.5  100   -8.5  57    0     1009.8   NA       0.0000   9999     980   0     0    
2019/08/17  13:58:03  BASE  6.87372  274  8.04384  278  -8.5  100   -8.5  58    0     1009.9   NA       0.0000   9999     1020  19850 0    
2019/08/17  13:59:02  BASE  6.75024  273  8.04384  278  -8.6  100   -8.6  59    0     1010.0   NA       0.0000   9999     980   0     0    
2019/08/17  14:00:03  BASE  6.53268  274  8.04384  273  -8.6  100   -8.6  62    0     1009.8   NA       0.0000   9999     980   0     0    
2019/08/17  14:01:02  BASE  6.7914   273  8.04384  273  -8.7  100   -8.7  64    0     1009.8   NA       0.0000   9999     980   0     0    
2019/08/17  14:02:03  BASE  6.5268   274  8.04384  273  -8.8  100   -8.8  64    0     1009.9   NA       0.0000   9999     980   0     0    
2019/08/17  14:03:02  BASE  5.63892  274  8.04384  273  -8.8  100   -8.8  64    0     1009.9   NA       0.0000   9999     980   0     0    
2019/08/17  14:04:02  BASE  5.80944  274  8.04384  273  -8.8  100   -8.8  64    0     1009.9   NA       0.0000   9999     950   0     0    
2019/08/17  14:05:03  BASE  5.733    274  8.04384  273  -8.8  100   -8.8  64    0     1010.0   NA       0.0000   9999     980   0     0    
2019/08/17  14:06:03  BASE  5.08032  275  8.04384  273  -8.8  100   -8.8  65    0     1010.0   NA       0.0000   9999     1020  0     0    
2019/08/17  14:07:03  BASE  5.0862   275  8.04384  273  -8.8  100   -8.8  67    0     1010.1   NA       0.0000   9999     1020  0     0    
2019/08/17  14:08:03  BASE  5.44488  275  8.04384  273  -8.8  100   -8.8  66    0     1010.0   NA       0.0000   9999     1020  0     0    
2019/08/17  14:09:02  BASE  5.6154   272  8.04384  273  -8.8  100   -8.8  67    0     1010.1   NA       0.0000   9999     980   0     0    
2019/08/17  14:10:02  BASE  5.9976   263  7.86744  275  -8.8  100   -8.8  67    0     1010.1   NA       0.0000   9999     980   0     0    
2019/08/17  14:11:03  BASE  5.8212   264  7.3206   263  -8.8  100   -8.8  67    0     1010.2   NA       0.0000   9999     1050  0     0    
2019/08/17  14:12:03  BASE  5.23908  268  7.3206   263  -8.8  100   -8.8  67    0     1010.2   NA       0.0000   9999     1050  0     0    
2019/08/17  14:13:02  BASE  5.18028  271  7.3206   263  -8.8  100   -8.8  67    0     1010.2   NA       0.0000   9999     980   0     0    
2019/08/17  14:14:02  BASE  5.25672  276  7.3206   263  -8.8  100   -8.8  70    0     1010.2   NA       0.0000   9999     1020  0     0    
2019/08/17  14:15:03  BASE  5.3214   274  7.3206   263  -8.8  100   -8.8  71    0     1010.3   NA       0.0000   9999     1050  0     0    
2019/08/17  14:16:03  BASE  5.13912  273  7.3206   263  -8.8  100   -8.8  74    0     1010.2   NA       0.0000   9999     1050  0     0    
2019/08/17  14:17:03  BASE  5.35668  276  7.3206   263  -8.8  100   -8.8  76    0     1010.1   NA       0.0000   9999     1050  21690 22540
2019/08/17  14:18:03  BASE  5.2332   279  7.3206   263  -8.8  100   -8.8  75    0     1010.1   NA       0.0000   9999     1080  0     0    
2019/08/17  14:19:03  BASE  4.57464  283  7.3206   263  -8.8  100   -8.8  74    0     1010.2   NA       0.0000   9999     1080  0     0    
2019/08/17  14:20:02  BASE  4.19244  282  6.74436  264  -8.7  100   -8.7  72    0     1010.3   NA       0.0000   9999     1050  0     0    
2019/08/17  14:21:02  BASE  3.86904  281  6.74436  264  -8.7  100   -8.7  72    0     1010.3   NA       0.0000   9999     1050  0     0    
2019/08/17  14:22:03  BASE  3.63384  283  6.74436  264  -8.7  100   -8.7  71    0     1010.3   NA       0.0000   9999     1020  21720 0    
2019/08/17  14:23:02  BASE  3.78084  282  6.2622   272  -8.7  100   -8.7  70    0     1010.3   NA       0.0000   9999     980   0     0    
2019/08/17  14:24:02  BASE  3.88668  282  6.2622   272  -8.6  100   -8.6  70    0     1010.4   NA       0.0000   9999     980   0     0    
2019/08/17  14:25:02  BASE  3.71028  277  6.2622   272  -8.6  100   -8.6  68    0     1010.4   NA       0.0000   9999     980   0     0    
2019/08/17  14:26:03  BASE  3.41628  278  6.2622   272  -8.6  100   -8.6  69    0     1010.4   NA       0.0000   9999     1020  0     0    
2019/08/17  14:27:02  BASE  3.39864  285  5.53308  282  -8.6  100   -8.6  70    0     1010.3   NA       0.0000   9999     1020  0     0    
2019/08/17  14:28:02  BASE  3.9102   287  4.99212  288  -8.6  100   -8.6  68    0     1010.3   NA       0.0000   9999     950   0     0    
2019/08/17  14:29:02  BASE  4.27476  285  4.99212  277  -8.6  100   -8.6  70    0     1010.3   NA       0.0000   9999     980   0     0    
2019/08/17  14:30:02  BASE  4.30416  283  5.2038   289  -8.6  100   -8.6  75    0     1010.2   NA       0.0000   9999     1020  0     0    
2019/08/17  14:31:02  BASE  4.2336   285  5.2038   289  -8.6  100   -8.6  77    0     1010.1   NA       0.0000   9999     950   0     0    
2019/08/17  14:32:02  BASE  4.3512   286  5.2038   289  -8.6  100   -8.6  80    0     1010.1   NA       0.0000   9999     980   0     0    
2019/08/17  14:33:02  BASE  4.82748  288  5.74476  292  -8.6  100   -8.6  80    0     1010.0   NA       0.0000   9999     950   0     0    
2019/08/17  14:34:03  BASE  5.21556  291  5.74476  292  -8.6  100   -8.6  82    0     1010.0   NA       0.0000   9999     950   0     0    
2019/08/17  14:35:02  BASE  4.85688  292  5.74476  292  -8.5  100   -8.5  86    0     1010.0   NA       0.0000   9999     980   0     0    
2019/08/17  14:36:03  BASE  4.21596  293  5.74476  292  -8.5  100   -8.5  83    0     1010.0   NA       0.0000   9999     1020  0     0    
2019/08/17  14:37:03  BASE  4.0572   297  5.74476  292  -8.5  100   -8.5  87    0     1010.0   NA       0.0000   9999     980   0     0    
2019/08/17  14:38:03  BASE  4.49232  299  5.74476  292  -8.5  100   -8.5  87    0     1010.0   NA       0.0000   9999     980   0     0    
2019/08/17  14:39:02  BASE  4.74516  296  5.74476  292  -8.5  100   -8.5  87    0     1010.1   NA       0.0000   9999     1020  0     0    
2019/08/17  14:40:02  BASE  4.47468  298  5.74476  292  -8.5  100   -8.5  84    0     1010.1   NA       0.0000   9999     980   0     0    
2019/08/17  14:41:02  BASE  4.22184  300  5.74476  292  -8.5  100   -8.5  85    0     1010.1   NA       0.0000   9999     980   0     0    
2019/08/17  14:42:03  BASE  4.02192  301  5.74476  292  -8.5  100   -8.5  89    0     1010.1   NA       0.0000   9999     1020  0     0    
2019/08/17  14:43:03  BASE  3.7926   304  5.65656  295  -8.4  100   -8.4  90    0     1010.1   NA       0.0000   9999     1050  0     0    
2019/08/17  14:44:03  BASE  3.65148  308  5.38608  299  -8.4  100   -8.4  93    0     1010.1   NA       0.0000   9999     1020  0     0    
2019/08/17  14:45:02  BASE  3.90432  311  5.38608  299  -8.4  100   -8.4  98    0     1010.1   NA       0.0000   9999     980   0     0    
2019/08/17  14:46:02  BASE  3.85728  313  5.38608  299  -8.4  100   -8.4  99    0     1010.1   NA       0.0000   9999     1050  0     0    
2019/08/17  14:47:02  BASE  3.83376  318  5.38608  299  -8.4  100   -8.4  104   0     1010.1   NA       0.0000   9999     1020  0     0    
2019/08/17  14:48:02  BASE  4.2042   318  5.2038   295  -8.4  100   -8.4  103   0     1010.1   NA       0.0000   9999     1020  20180 0    
2019/08/17  14:49:02  BASE  4.263    317  4.93332  301  -8.4  100   -8.4  104   0     1010.0   NA       0.0000   9999     920   0     0    
2019/08/17  14:50:02  BASE  4.11012  317  4.80984  295  -8.4  100   -8.4  105   0     1010.0   NA       0.0000   9999     980   0     0    
2019/08/17  14:51:02  BASE  3.81612  315  4.80984  295  -8.4  100   -8.4  109   0     1010.0   NA       0.0000   9999     1080  0     0    
2019/08/17  14:52:03  BASE  3.89256  316  4.68636  311  -8.4  100   -8.4  104   0     1010.0   NA       0.0000   9999     1050  0     0    
2019/08/17  14:53:02  BASE  3.92784  317  4.68636  311  -8.4  100   -8.4  105   0     1009.9   NA       0.0000   9999     1050  0     0    
2019/08/17  14:54:02  BASE  3.79848  315  4.68636  311  -8.4  100   -8.4  107   0     1009.8   NA       0.0000   9999     1120  0     0    
2019/08/17  14:55:03  BASE  3.95724  307  4.68636  311  -8.4  100   -8.4  109   0     1009.8   NA       0.0000   9999     1210  0     0    
2019/08/17  14:56:03  BASE  3.86316  307  4.68636  311  -8.4  100   -8.4  106   0     1009.7   NA       0.0000   9999     1150  0     0    
2019/08/17  14:57:03  BASE  3.95724  308  4.68636  311  -8.3  100   -8.3  101   0     1009.7   NA       0.0000   9999     1150  0     0    
2019/08/17  14:58:03  BASE  4.03368  309  4.65696  310  -8.3  100   -8.3  99    0     1009.7   NA       0.0000   9999     1080  0     0    
2019/08/17  14:59:02  BASE  3.60444  314  4.65696  310  -8.3  100   -8.3  95    0     1009.8   NA       0.0000   9999     1150  0     0    
2019/08/17  15:00:03  BASE  3.41628  319  4.65696  310  -8.2  100   -8.2  97    0     1009.9   NA       0.0000   9999     1210  0     0    
2019/08/17  15:01:02  BASE  3.3222   324  4.65696  310  -8.2  100   -8.2  96    0     1010.0   NA       0.0000   9999     1250  0     0    
2019/08/17  15:02:03  BASE  2.96352  336  4.65696  310  -8.2  100   -8.2  97    0     1010.2   NA       0.0000   9999     1180  0     0    
2019/08/17  15:03:02  BASE  2.83416  346  4.65696  310  -8.2  100   -8.2  97    0     1010.2   NA       0.0000   9999     1180  0     0    
2019/08/17  15:04:02  BASE  2.86944  345  4.65696  310  -8.3  100   -8.3  99    0     1010.3   NA       0.0000   9999     1120  0     0    
2019/08/17  15:05:03  BASE  3.1164   343  4.65696  310  -8.2  100   -8.2  100   0     1010.3   NA       0.0000   9999     1120  0     0    
2019/08/17  15:06:02  BASE  3.6456   343  4.65696  310  -8.2  100   -8.2  98    0     1010.3   NA       0.0000   9999     1080  0     0    
2019/08/17  15:07:03  BASE  3.9984   345  4.65696  310  -8.2  100   -8.2  96    0     1010.2   NA       0.0000   9999     1080  0     0    
2019/08/17  15:08:03  BASE  4.16892  346  4.47468  341  -8.2  100   -8.2  95    0     1010.0   NA       0.0000   9999     1020  0     0    
2019/08/17  15:09:03  BASE  4.24536  343  4.72164  335  -8.2  100   -8.2  95    0     1010.0   NA       0.0000   9999     1050  0     0    
2019/08/17  15:10:02  BASE  4.08072  340  4.72164  335  -8.2  100   -8.2  96    0     1010.0   NA       0.0000   9999     1080  0     0    
2019/08/17  15:11:03  BASE  3.96312  338  4.72164  335  -8.2  100   -8.2  95    0     1010.0   NA       0.0000   9999     1080  0     0    
2019/08/17  15:12:03  BASE  4.07484  334  4.72164  335  -8.2  100   -8.2  96    0     1010.0   NA       0.0000   9999     1050  0     0    
2019/08/17  15:13:02  BASE  4.18068  331  4.72164  335  -8.2  100   -8.2  92    0     1009.9   NA       0.0000   9999     1050  0     0    
2019/08/17  15:14:03  BASE  4.41     330  4.86864  326  -8.2  100   -8.2  90    0     1009.8   NA       0.0000   9999     1020  0     0    
2019/08/17  15:15:03  BASE  4.48644  330  4.86864  326  -8.2  100   -8.2  90    0     1009.8   NA       0.0000   9999     1050  0     0    
2019/08/17  15:16:03  BASE  4.56288  332  5.2626   339  -8.2  100   -8.2  89    0     1009.7   NA       0.0000   9999     1080  0     0    
2019/08/17  15:17:02  BASE  4.94508  337  5.38608  339  -8.2  100   -8.2  90    0     1009.7   NA       0.0000   9999     1050  0     0    
2019/08/17  15:18:03  BASE  5.25084  340  5.68596  345  -8.2  100   -8.2  90    0     1009.7   NA       0.0000   9999     1080  0     0    
2019/08/17  15:19:03  BASE  5.36256  341  5.80944  345  -8.2  100   -8.2  93    0     1009.7   NA       0.0000   9999     1020  0     0    
2019/08/17  15:20:03  BASE  5.1156   344  5.80944  345  -8.2  100   -8.2  97    0     1009.8   NA       0.0000   9999     1050  0     0    
2019/08/17  15:21:02  BASE  4.704    347  5.80944  345  -8.2  100   -8.2  98    0     1009.9   NA       0.0000   9999     1020  0     0    
2019/08/17  15:22:03  BASE  4.56288  355  5.80944  345  -8.2  100   -8.2  97    0     1010.0   NA       0.0000   9999     1020  0     0    
2019/08/17  15:23:03  BASE  4.47468  1    5.80944  345  -8.2  100   -8.2  93    0     1010.1   NA       0.0000   9999     1020  0     0    
2019/08/17  15:24:02  BASE  4.19244  2    5.80944  345  -8.2  100   -8.2  92    0     1010.1   NA       0.0000   9999     1050  0     0    
2019/08/17  15:25:02  BASE  3.92784  2    5.80944  345  -8.2  100   -8.2  95    0     1010.1   NA       0.0000   9999     980   0     0    
2019/08/17  15:26:02  BASE  3.82788  354  5.80944  345  -8.2  100   -8.2  96    0     1010.2   NA       0.0000   9999     1020  0     0    
2019/08/17  15:27:03  BASE  3.9396   343  5.80944  345  -8.2  100   -8.2  98    0     1010.1   NA       0.0000   9999     1050  0     0    
2019/08/17  15:28:03  BASE  4.52172  336  5.80944  338  -8.2  100   -8.2  101   0     1010.1   NA       0.0000   9999     1050  0     0    
2019/08/17  15:29:03  BASE  5.03328  335  5.80944  338  -8.2  100   -8.2  102   0     1010.0   NA       0.0000   9999     1210  0     0    
2019/08/17  15:30:02  BASE  4.82748  337  5.80944  338  -8.2  100   -8.2  104   0     1009.9   NA       0.0000   9999     1150  0     0    
2019/08/17  15:31:02  BASE  4.50996  330  5.80944  338  -8.2  100   -8.2  103   0     1009.8   NA       0.0000   9999     1180  0     0    
2019/08/17  15:32:03  BASE  4.58052  325  5.80944  338  -8.2  100   -8.2  107   0     1009.8   NA       0.0000   9999     1280  0     0    
2019/08/17  15:33:03  BASE  4.71576  328  5.80944  338  -8.2  100   -8.2  108   0     1009.8   NA       0.0000   9999     1280  0     0    
2019/08/17  15:34:02  BASE  4.66284  331  5.80944  338  -8.1  100   -8.1  108   0     1009.8   NA       0.0000   9999     1380  0     0    
2019/08/17  15:35:02  BASE  4.31004  335  5.80944  338  -8.1  100   -8.1  105   0     1009.8   NA       0.0000   9999     1350  0     0    
2019/08/17  15:36:03  BASE  4.22772  340  5.80944  338  -8.1  100   -8.1  101   0     1009.8   NA       0.0000   9999     1380  0     0    
2019/08/17  15:37:02  BASE  4.21596  343  5.80944  338  -8.1  100   -8.1  100   0     1009.8   NA       0.0000   9999     1210  0     0    
2019/08/17  15:38:02  BASE  4.27476  345  5.68596  332  -8.1  100   -8.1  101   0     1009.8   NA       0.0000   9999     1210  0     0    
2019/08/17  15:39:02  BASE  4.57464  344  5.44488  322  -8.1  100   -8.1  102   0     1009.8   NA       0.0000   9999     1180  0     0    
2019/08/17  15:40:02  BASE  4.6158   342  5.44488  322  -8.1  100   -8.1  102   0     1009.9   NA       0.0000   9999     1120  0     0    
2019/08/17  15:41:02  BASE  4.65108  340  5.44488  322  -8.0  100   -8.0  100   0     1010.0   NA       0.0000   9999     1210  0     0    
2019/08/17  15:42:02  BASE  4.62168  339  5.08032  334  -8.0  100   -8.0  98    0     1009.9   NA       0.0000   9999     1410  0     0    
2019/08/17  15:43:02  BASE  4.28652  342  5.08032  334  -8.0  100   -8.0  95    0     1010.0   NA       0.0000   9999     1440  0     0    
2019/08/17  15:44:03  BASE  4.11012  339  5.08032  334  -7.9  100   -7.9  93    0     1010.0   NA       0.0000   9999     1350  22150 0    
2019/08/17  15:45:03  BASE  3.99252  334  5.08032  334  -7.9  100   -7.9  91    0     1010.0   NA       0.0000   9999     1350  0     0    
2019/08/17  15:46:03  BASE  3.56328  327  5.08032  334  -7.8  100   -7.8  89    0     1010.0   NA       0.0000   9999     1380  0     0    
2019/08/17  15:47:02  BASE  3.234    314  5.08032  334  -7.8  100   -7.8  87    0     1010.0   NA       0.0000   9999     1380  0     0    
2019/08/17  15:48:03  BASE  2.94588  311  5.08032  334  -7.7  100   -7.7  88    0     1010.0   NA       0.0000   9999     1440  0     0    
2019/08/17  15:49:02  BASE  3.03408  305  5.08032  334  -7.7  100   -7.7  89    0     1010.0   NA       0.0000   9999     1510  0     0    
2019/08/17  15:50:02  BASE  3.05172  295  5.08032  334  -7.7  100   -7.7  90    0     1010.1   NA       0.0000   9999     1540  0     0    
2019/08/17  15:51:02  BASE  3.06936  289  5.08032  334  -7.7  100   -7.7  89    0     1010.0   NA       0.0000   9999     1540  0     0    
2019/08/17  15:52:02  BASE  3.33984  283  4.80984  336  -7.7  100   -7.7  90    0     1010.0   NA       0.0000   9999     1510  0     0    
2019/08/17  15:53:02  BASE  3.10464  283  4.80984  336  -7.6  100   -7.6  93    0     1009.8   NA       0.0000   9999     1570  0     0    
2019/08/17  15:54:03  BASE  2.84592  282  4.53936  283  -7.6  100   -7.6  97    0     1009.9   NA       0.0000   9999     1570  0     0    
2019/08/17  15:55:02  BASE  2.98116  276  4.53936  283  -7.6  100   -7.6  100   0     1009.9   NA       0.0000   9999     1670  0     0    
2019/08/17  15:56:02  BASE  3.28692  273  4.59816  277  -7.5  100   -7.5  100   0     1009.9   NA       0.0000   9999     1610  0     0    
2019/08/17  15:57:02  BASE  3.36924  280  4.59816  277  -7.5  100   -7.5  100   0     1009.8   NA       0.0000   9999     1570  0     0    
2019/08/17  15:58:03  BASE  3.39864  282  4.59816  277  -7.5  100   -7.5  101   0     1009.8   NA       0.0000   9999     1540  0     0    
2019/08/17  15:59:03  BASE  3.49272  276  4.59816  277  -7.5  100   -7.5  100   0     1009.9   NA       0.0000   9999     1770  0     0    
2019/08/17  16:00:02  BASE  3.16932  279  4.59816  277  -7.5  100   -7.5  101   0     1010.0   NA       0.0000   9999     0     0     0    
2019/08/17  16:01:02  BASE  3.0282   289  4.59816  277  -7.5  100   -7.5  104   0     1009.9   NA       0.0000   9999     1480  0     0    
2019/08/17  16:02:02  BASE  3.12816  287  4.59816  277  -7.5  100   -7.5  107   0     1009.9   NA       0.0000   9999     1480  0     0    
2019/08/17  16:03:03  BASE  2.9106   289  4.59816  277  -7.5  100   -7.5  108   0     1009.8   NA       0.0000   9999     0     0     0    
2019/08/17  16:04:03  BASE  3.28104  292  4.59816  277  -7.5  100   -7.5  109   0     1009.8   NA       0.0000   9999     0     0     0    
2019/08/17  16:05:04  BASE  3.61032  291  4.59816  277  -7.5  100   -7.5  111   0     1009.7   NA       0.0000   9999     0     0     0    
2019/08/17  16:06:02  BASE  4.22184  293  6.07992  289  -7.5  100   -7.5  113   0     1009.7   NA       0.0000   9999     1310  0     0    
2019/08/17  16:07:02  BASE  5.16264  292  6.07992  289  -7.6  100   -7.6  109   0     1009.8   NA       0.0000   9999     1280  0     0    
2019/08/17  16:08:02  BASE  5.42136  293  6.07992  289  -7.6  100   -7.6  110   0     1009.8   NA       0.0000   9999     1250  0     0    
2019/08/17  16:09:03  BASE  5.39196  293  6.07992  289  -7.6  100   -7.6  111   0     1009.9   NA       0.0000   9999     1310  0     0    
2019/08/17  16:10:03  BASE  4.66872  292  6.07992  289  -7.6  100   -7.6  112   0     1010.1   NA       0.0000   9999     1440  0     0    
2019/08/17  16:11:03  BASE  3.56916  290  6.07992  289  -7.6  100   -7.6  119   0     1010.2   NA       0.0000   9999     1440  0     0    
2019/08/17  16:12:03  BASE  2.9106   294  6.07992  289  -7.6  100   -7.6  133   0     1010.3   NA       0.0000   9999     1380  0     0    
2019/08/17  16:13:03  BASE  2.94588  296  6.07992  289  -7.6  100   -7.6  127   0     1010.3   NA       0.0000   9999     1350  0     0    
2019/08/17  16:14:03  BASE  2.82828  299  6.07992  289  -7.6  100   -7.6  113   0     1010.3   NA       0.0000   9999     1180  0     0    
2019/08/17  16:15:03  BASE  2.64012  302  6.07992  289  -7.6  100   -7.6  110   0     1010.2   NA       0.0000   9999     1280  0     0    
2019/08/17  16:16:02  BASE  2.793    300  6.05052  292  -7.6  100   -7.6  106   0     1010.3   NA       0.0000   9999     1250  0     0    
2019/08/17  16:17:03  BASE  2.6754   304  6.05052  292  -7.6  100   -7.6  102   0     1010.3   NA       0.0000   9999     1210  0     0    
2019/08/17  16:18:03  BASE  2.40492  309  5.99172  301  -7.6  100   -7.6  100   0     1010.3   NA       0.0000   9999     1150  0     0    
2019/08/17  16:19:03  BASE  2.65188  299  4.83924  291  -7.7  100   -7.7  100   0     1010.3   NA       0.0000   9999     1150  0     0    
2019/08/17  16:20:02  BASE  2.95764  294  3.53976  293  -7.7  100   -7.7  101   0     1010.3   NA       0.0000   9999     1180  20930 0    
2019/08/17  16:21:03  BASE  3.18108  306  3.99252  314  -7.7  100   -7.7  104   0     1010.3   NA       0.0000   9999     1180  0     0    
2019/08/17  16:22:02  BASE  3.09876  312  3.99252  314  -7.6  100   -7.6  103   0     1010.3   NA       0.0000   9999     1210  0     0    
2019/08/17  16:23:03  BASE  3.31044  303  4.65696  278  -7.6  100   -7.6  101   0     1010.3   NA       0.0000   9999     1280  0     0    
2019/08/17  16:24:03  BASE  3.75732  292  4.65696  278  -7.6  100   -7.6  104   0     1010.3   NA       0.0000   9999     1250  0     0    
2019/08/17  16:25:02  BASE  3.56916  296  4.65696  278  -7.6  100   -7.6  102   0     1010.3   NA       0.0000   9999     1250  0     0    
2019/08/17  16:26:03  BASE  3.91608  301  5.145    304  -7.6  100   -7.6  98    0     1010.3   NA       0.0000   9999     1210  0     0    
2019/08/17  16:27:02  BASE  4.71576  295  5.89764  283  -7.6  100   -7.6  96    0     1010.3   NA       0.0000   9999     1180  0     0    
2019/08/17  16:28:03  BASE  4.71576  283  5.89764  283  -7.6  100   -7.6  93    0     1010.3   NA       0.0000   9999     1210  0     0    
2019/08/17  16:29:03  BASE  4.28652  283  5.89764  283  -7.7  100   -7.7  93    0     1010.3   NA       0.0000   9999     1250  0     0    
2019/08/17  16:30:03  BASE  4.56288  287  5.89764  283  -7.7  100   -7.7  94    0     1010.2   NA       0.0000   9999     1280  22700 0    
2019/08/17  16:31:02  BASE  4.851    290  5.89764  283  -7.7  100   -7.7  97    0     1010.2   NA       0.0000   9999     1310  0     0    
2019/08/17  16:32:03  BASE  5.00976  293  5.89764  283  -7.7  100   -7.7  100   0     1010.2   NA       0.0000   9999     1280  0     0    
2019/08/17  16:33:03  BASE  5.01564  294  5.89764  283  -7.7  100   -7.7  102   0     1010.2   NA       0.0000   9999     1310  0     0    
2019/08/17  16:34:03  BASE  4.73928  296  5.89764  283  -7.8  100   -7.8  107   0     1010.3   NA       0.0000   9999     1310  0     0    
2019/08/17  16:35:03  BASE  4.66872  296  5.89764  283  -7.8  100   -7.8  106   0     1010.3   NA       0.0000   9999     1180  0     0    
2019/08/17  16:36:03  BASE  4.82748  294  5.89764  283  -7.8  100   -7.8  108   0     1010.3   NA       0.0000   9999     1280  0     0    
2019/08/17  16:37:03  BASE  4.7628   292  5.80944  292  -7.8  100   -7.8  109   0     1010.3   NA       0.0000   9999     1310  0     0    
2019/08/17  16:38:03  BASE  4.31004  290  5.80944  292  -7.8  100   -7.8  113   0     1010.2   NA       0.0000   9999     1410  0     0    
2019/08/17  16:39:02  BASE  4.19244  290  5.80944  292  -7.8  100   -7.8  117   0     1010.1   NA       0.0000   9999     1310  0     0    
2019/08/17  16:40:02  BASE  4.49232  296  5.80944  292  -7.8  100   -7.8  123   0     1010.0   NA       0.0000   9999     0     0     0    
2019/08/17  16:41:02  BASE  4.94508  299  5.80944  292  -7.8  100   -7.8  127   0     1010.0   NA       0.0000   9999     0     0     0    
2019/08/17  16:42:03  BASE  5.3802   300  5.99172  295  -7.9  100   -7.9  128   0     1009.9   NA       0.0000   9999     0     0     0    
2019/08/17  16:43:02  BASE  5.62128  302  6.02112  308  -7.9  100   -7.9  130   0     1009.9   NA       0.0000   9999     0     0     0    
2019/08/17  16:44:03  BASE  5.586    301  6.02112  308  -7.9  100   -7.9  132   0     1010.0   NA       0.0000   9999     0     0     0    
2019/08/17  16:45:02  BASE  5.45664  296  6.02112  308  -8.0  100   -8.0  132   0     1009.9   NA       0.0000   9999     22080 0     0    
2019/08/17  16:46:03  BASE  5.33316  297  6.02112  308  -8.0  100   -8.0  131   0     1010.0   NA       0.0000   9999     0     0     0    
2019/08/17  16:47:03  BASE  4.92744  300  6.02112  308  -8.0  100   -8.0  129   0     1009.9   NA       0.0000   9999     17000 0     0    
2019/08/17  16:48:03  BASE  4.52172  302  6.02112  308  -8.0  100   -8.0  123   0     1010.0   NA       0.0000   9999     16770 0     0    
2019/08/17  16:49:02  BASE  4.23948  303  6.02112  308  -8.0  100   -8.0  122   0     1009.9   NA       0.0000   9999     16370 21880 0    
2019/08/17  16:50:03  BASE  4.23948  303  6.02112  308  -8.0  100   -8.0  119   0     1009.8   NA       0.0000   9999     16500 0     0    
2019/08/17  16:51:02  BASE  4.33944  305  6.02112  308  -8.0  100   -8.0  116   0     1009.9   NA       0.0000   9999     16340 0     0    
2019/08/17  16:52:03  BASE  4.22184  305  6.02112  308  -8.0  100   -8.0  113   0     1010.0   NA       0.0000   9999     16080 0     0    
2019/08/17  16:53:03  BASE  4.06896  307  5.92704  305  -8.0  100   -8.0  110   0     1010.1   NA       0.0000   9999     16110 0     0    
2019/08/17  16:54:03  BASE  4.03368  312  5.92704  305  -7.9  100   -7.9  106   0     1010.1   NA       0.0000   9999     16440 0     0    
2019/08/17  16:55:03  BASE  4.29828  311  5.92704  305  -7.9  100   -7.9  104   0     1010.1   NA       0.0000   9999     16370 0     0    
2019/08/17  16:56:03  BASE  4.11012  310  5.2626   296  -7.9  100   -7.9  101   0     1010.1   NA       0.0000   9999     16140 0     0    
2019/08/17  16:57:03  BASE  4.02192  307  5.145    303  -7.9  100   -7.9  99    0     1010.1   NA       0.0000   9999     16140 0     0    
2019/08/17  16:58:03  BASE  3.8514   303  5.145    303  -7.9  100   -7.9  99    0     1010.2   NA       0.0000   9999     16630 0     0    
2019/08/17  16:59:02  BASE  3.58092  298  5.145    303  -7.9  100   -7.9  98    0     1010.2   NA       0.0000   9999     16540 0     0    
2019/08/17  17:00:03  BASE  3.74556  292  5.145    303  -7.9  100   -7.9  98    0     1010.2   NA       0.0000   9999     16370 0     0    
2019/08/17  17:01:03  BASE  3.59856  292  5.145    303  -7.9  100   -7.9  98    0     1010.1   NA       0.0000   9999     15980 0     0    
2019/08/17  17:02:03  BASE  3.68676  292  5.145    303  -7.8  100   -7.8  98    0     1010.1   NA       0.0000   9999     16770 0     0    
2019/08/17  17:03:02  BASE  3.7338   296  5.145    303  -7.8  100   -7.8  98    0     1010.1   NA       0.0000   9999     16630 0     0    
2019/08/17  17:04:02  BASE  3.55152  299  5.145    303  -7.8  100   -7.8  98    0     1010.1   NA       0.0000   9999     16800 0     0    
2019/08/17  17:05:04  BASE  3.68088  299  4.86864  302  -7.8  100   -7.8  98    0     1010.0   NA       0.0000   9999     16630 0     0    
2019/08/17  17:06:03  BASE  3.86316  299  4.86864  302  -7.8  100   -7.8  96    0     1010.0   NA       0.0000   9999     16270 0     0    
2019/08/17  17:07:02  BASE  4.34532  292  5.50368  293  -7.8  100   -7.8  94    0     1010.0   NA       0.0000   9999     15880 0     0    
2019/08/17  17:08:03  BASE  4.4394   287  5.50368  293  -7.8  100   -7.8  92    0     1010.0   NA       0.0000   9999     12140 0     0    
2019/08/17  17:09:02  BASE  4.36884  290  5.50368  293  -7.8  100   -7.8  90    0     1010.0   NA       0.0000   9999     12400 0     0    
2019/08/17  17:10:02  BASE  4.69812  292  5.50368  293  -7.7  100   -7.7  88    0     1009.9   NA       0.0000   9999     13550 0     0    
2019/08/17  17:11:02  BASE  4.9098   294  5.50368  293  -7.7  100   -7.7  87    0     1009.8   NA       0.0000   9999     13850 0     0    
2019/08/17  17:12:03  BASE  4.87452  293  5.50368  293  -7.7  100   -7.7  85    0     1010.0   NA       0.0000   9999     13420 0     0    
2019/08/17  17:13:02  BASE  4.7334   294  5.68596  292  -7.7  100   -7.7  84    0     1010.0   NA       0.0000   9999     14340 0     0    
2019/08/17  17:14:03  BASE  4.90392  291  5.68596  284  -7.7  100   -7.7  83    0     1010.0   NA       0.0000   9999     14370 0     0    
2019/08/17  17:15:02  BASE  4.99212  290  5.68596  284  -7.8  100   -7.8  82    0     1010.0   NA       0.0000   9999     14370 0     0    
2019/08/17  17:16:02  BASE  4.76868  295  5.68596  284  -7.8  100   -7.8  81    0     1010.0   NA       0.0000   9999     13710 0     0    
2019/08/17  17:17:02  BASE  4.31592  300  5.68596  284  -7.8  100   -7.8  81    0     1010.0   NA       0.0000   9999     13350 0     0    
2019/08/17  17:18:09  BASE  4.0278   299  5.68596  284  -7.8  100   -7.8  81    0     1010.0   NA       0.0000   9999     13620 0     0    
2019/08/17  17:19:02  BASE  4.09836  299  5.68596  284  -7.8  100   -7.8  82    0     1010.0   NA       0.0000   9999     13650 0     0    
2019/08/17  17:20:02  BASE  4.15128  305  5.68596  284  -7.8  100   -7.8  83    0     1009.9   NA       0.0000   9999     13220 0     0    
2019/08/17  17:21:02  BASE  4.15128  311  5.68596  284  -7.8  100   -7.8  84    0     1010.0   NA       0.0000   9999     13480 0     0    
2019/08/17  17:22:03  BASE  3.95724  309  5.68596  284  -7.8  100   -7.8  84    0     1010.0   NA       0.0000   9999     13680 0     0    
2019/08/17  17:23:03  BASE  3.82788  308  5.68596  284  -7.8  100   -7.8  85    0     1010.0   NA       0.0000   9999     14340 0     0    
2019/08/17  17:24:02  BASE  3.98076  305  5.41548  284  -7.8  100   -7.8  87    0     1010.0   NA       0.0000   9999     13980 0     0    
2019/08/17  17:25:02  BASE  4.16892  303  4.93332  281  -7.8  100   -7.8  88    0     1009.9   NA       0.0000   9999     15650 0     0    
2019/08/17  17:26:02  BASE  4.31004  304  4.86864  306  -7.8  100   -7.8  90    0     1009.8   NA       0.0000   9999     15090 0     0    
2019/08/17  17:27:02  BASE  4.19832  302  4.99212  297  -7.8  100   -7.8  92    0     1009.7   NA       0.0000   9999     12430 0     0    
2019/08/17  17:28:02  BASE  3.96312  302  4.99212  297  -7.8  100   -7.8  94    0     1009.7   NA       0.0000   9999     13520 0     0    
2019/08/17  17:29:02  BASE  4.05132  298  5.08032  280  -7.8  100   -7.8  97    0     1009.7   NA       0.0000   9999     11680 13780 0    
2019/08/17  17:30:02  BASE  3.95136  294  5.08032  280  -7.7  100   -7.7  100   0     1009.8   NA       0.0000   9999     13810 0     0    
2019/08/17  17:31:03  BASE  3.71028  294  5.08032  280  -7.7  100   -7.7  104   0     1009.8   NA       0.0000   9999     13980 0     0    
2019/08/17  17:32:03  BASE  3.822    295  5.08032  280  -7.7  100   -7.7  108   0     1009.8   NA       0.0000   9999     13940 0     0    
2019/08/17  17:33:03  BASE  3.98076  299  5.08032  280  -7.7  100   -7.7  111   0     1009.8   NA       0.0000   9999     14110 0     0    
2019/08/17  17:34:03  BASE  4.28064  295  5.08032  280  -7.7  100   -7.7  113   0     1009.8   NA       0.0000   9999     14210 0     0    
2019/08/17  17:35:02  BASE  4.41588  295  5.08032  280  -7.7  100   -7.7  113   0     1009.8   NA       0.0000   9999     0     0     0    
2019/08/17  17:36:03  BASE  4.19244  302  5.08032  280  -7.7  100   -7.7  114   0     1009.8   NA       0.0000   9999     0     0     0    
2019/08/17  17:37:02  BASE  3.86904  304  5.08032  280  -7.7  100   -7.7  115   0     1009.8   NA       0.0000   9999     15910 0     0    
2019/08/17  17:38:03  BASE  3.66912  296  5.08032  280  -7.7  100   -7.7  115   0     1009.8   NA       0.0000   9999     15320 0     0    
2019/08/17  17:39:02  BASE  3.55152  286  4.96272  289  -7.7  100   -7.7  116   0     1009.8   NA       0.0000   9999     14140 0     0    
2019/08/17  17:40:03  BASE  3.58092  287  4.96272  289  -7.7  100   -7.7  118   0     1009.7   NA       0.0000   9999     14340 15950 0    
2019/08/17  17:41:02  BASE  3.9396   294  4.96272  289  -7.6  100   -7.6  120   0     1009.7   NA       0.0000   9999     14500 16040 0    
2019/08/17  17:42:02  BASE  4.18068  294  4.96272  289  -7.6  100   -7.6  123   0     1009.7   NA       0.0000   9999     15950 22510 0    
2019/08/17  17:43:02  BASE  4.32768  293  4.96272  289  -7.6  100   -7.6  131   0     1009.7   NA       0.0000   9999     16080 0     0    
2019/08/17  17:44:02  BASE  4.31592  294  4.72164  297  -7.6  100   -7.6  135   0     1009.7   NA       0.0000   9999     16270 0     0    
2019/08/17  17:45:02  BASE  4.09836  297  4.72164  297  -7.6  100   -7.6  133   0     1009.7   NA       0.0000   9999     16180 16730 0    
2019/08/17  17:46:02  BASE  4.4688   303  5.35668  306  -7.6  100   -7.6  140   0     1009.7   NA       0.0000   9999     0     0     0    
2019/08/17  17:47:03  BASE  4.75104  305  5.35668  306  -7.6  100   -7.6  137   0     1009.7   NA       0.0000   9999     17060 0     0    
2019/08/17  17:48:03  BASE  4.38648  304  5.35668  306  -7.6  100   -7.6  135   0     1009.7   NA       0.0000   9999     0     0     0    
2019/08/17  17:49:03  BASE  4.21596  307  5.35668  306  -7.7  100   -7.7  133   0     1009.7   NA       0.0000   9999     0     0     0    
2019/08/17  17:50:03  BASE  4.53936  309  5.35668  306  -7.7  100   -7.7  130   0     1009.7   NA       0.0000   9999     0     0     0    
2019/08/17  17:51:02  BASE  4.82748  307  5.35668  306  -7.7  100   -7.7  130   0     1009.7   NA       0.0000   9999     0     0     0    
2019/08/17  17:52:03  BASE  4.72752  300  5.35668  306  -7.7  100   -7.7  130   0     1009.7   NA       0.0000   9999     0     0     0    
2019/08/17  17:53:02  BASE  4.8216   295  5.92704  290  -7.7  100   -7.7  128   0     1009.7   NA       0.0000   9999     0     0     0    
2019/08/17  17:54:02  BASE  5.00976  298  5.92704  290  -7.7  100   -7.7  125   0     1009.7   NA       0.0000   9999     0     0     0    
2019/08/17  17:55:02  BASE  4.69224  306  5.92704  290  -7.7  100   -7.7  122   0     1009.7   NA       0.0000   9999     0     0     0    
2019/08/17  17:56:02  BASE  4.59228  306  5.92704  290  -7.7  100   -7.7  117   0     1009.7   NA       0.0000   9999     0     0     0    
2019/08/17  17:57:02  BASE  5.22732  298  6.13872  288  -7.7  100   -7.7  116   0     1009.7   NA       0.0000   9999     0     0     0    
2019/08/17  17:58:02  BASE  5.52132  291  6.13872  288  -7.8  100   -7.8  113   0     1009.7   NA       0.0000   9999     0     0     0    
2019/08/17  17:59:02  BASE  5.55072  288  6.13872  290  -7.8  100   -7.8  110   0     1009.6   NA       0.0000   9999     0     0     0    
2019/08/17  18:00:02  BASE  5.8506   295  6.3504   302  -7.8  100   -7.8  110   0     1009.5   NA       0.0000   9999     0     0     0    
2019/08/17  18:01:03  BASE  5.88     298  6.3504   302  -7.8  100   -7.8  110   0     1009.6   NA       0.0000   9999     0     0     0    
2019/08/17  18:02:02  BASE  5.733    298  6.3504   302  -7.8  100   -7.8  112   0     1009.6   NA       0.0000   9999     0     0     0    
2019/08/17  18:03:03  BASE  5.76828  301  6.3504   302  -7.8  100   -7.8  119   0     1009.6   NA       0.0000   9999     0     0     0    
2019/08/17  18:04:03  BASE  5.85648  306  6.3504   302  -7.8  100   -7.8  122   0     1009.5   NA       0.0000   9999     0     0     0    
2019/08/17  18:05:03  BASE  5.733    312  6.3504   302  -7.8  100   -7.8  121   0     1009.5   NA       0.0000   9999     0     0     0    
2019/08/17  18:06:03  BASE  6.10932  313  6.92664  313  -7.8  100   -7.8  121   0     1009.5   NA       0.0000   9999     0     0     0    
2019/08/17  18:07:02  BASE  6.36216  311  6.98544  312  -7.8  100   -7.8  121   0     1009.6   NA       0.0000   9999     0     0     0    
2019/08/17  18:08:02  BASE  5.4684   314  6.98544  312  -7.7  99    -7.8  121   0     1009.7   NA       0.0000   9999     0     0     0    
2019/08/17  18:09:02  BASE  4.704    321  6.98544  312  -7.7  99    -7.8  120   0     1009.7   NA       0.0000   9999     0     0     0    
2019/08/17  18:10:02  BASE  4.58052  328  6.98544  312  -7.8  99    -7.9  121   0     1009.7   NA       0.0000   9999     0     0     0    
2019/08/17  18:11:02  BASE  4.69812  330  6.98544  312  -7.8  99    -7.9  121   0     1009.7   NA       0.0000   9999     0     0     0    
2019/08/17  18:12:02  BASE  4.71576  325  6.98544  312  -7.8  99    -7.9  120   0     1009.7   NA       0.0000   9999     0     0     0    
2019/08/17  18:13:02  BASE  4.704    321  6.98544  312  -7.8  99    -7.9  120   0     1009.8   NA       0.0000   9999     0     0     0    
2019/08/17  18:14:03  BASE  4.704    322  6.98544  312  -7.8  99    -7.9  120   0     1009.8   NA       0.0000   9999     0     0     0    
2019/08/17  18:15:01  BASE  4.95096  317  6.98544  312  -7.8  99    -7.9  117   0     1009.8   NA       0.0000   9999     0     0     0    
2019/08/17  18:16:02  BASE  4.63932  319  6.98544  312  -7.8  99    -7.9  118   0     1009.7   NA       0.0000   9999     0     0     0    
2019/08/17  18:17:02  BASE  4.29828  320  5.99172  304  -7.8  99    -7.9  118   0     1009.7   NA       0.0000   9999     0     0     0    
2019/08/17  18:18:03  BASE  4.6746   319  5.99172  304  -7.7  99    -7.9  117   0     1009.7   NA       0.0000   9999     0     0     0    
2019/08/17  18:19:02  BASE  4.79808  323  5.99172  304  -7.7  99    -7.9  118   0     1009.7   NA       0.0000   9999     0     0     0    
2019/08/17  18:20:02  BASE  4.7628   324  5.99172  304  -7.7  99    -7.9  117   0     1009.6   NA       0.0000   9999     0     0     0    
2019/08/17  18:21:02  BASE  5.19792  318  6.47388  308  -7.8  99    -7.9  117   0     1009.6   NA       0.0000   9999     0     0     0    
2019/08/17  18:22:03  BASE  5.72712  308  6.47388  308  -7.8  99    -7.9  115   0     1009.6   NA       0.0000   9999     0     0     0    
2019/08/17  18:23:02  BASE  5.68596  312  6.47388  308  -7.8  99    -7.9  115   0     1009.5   NA       0.0000   9999     0     0     0    
2019/08/17  18:24:03  BASE  5.36256  321  6.47388  308  -7.8  99    -8.0  113   0     1009.5   NA       0.0000   9999     0     0     0    
2019/08/17  18:25:02  BASE  4.91568  326  6.47388  308  -7.8  98    -8.0  111   0     1009.5   NA       0.0000   9999     0     0     0    
2019/08/17  18:26:03  BASE  4.72752  327  6.47388  308  -7.8  98    -8.0  110   0     1009.6   NA       0.0000   9999     0     0     0    
2019/08/17  18:27:02  BASE  4.5276   328  6.47388  308  -7.8  98    -8.1  109   0     1009.6   NA       0.0000   9999     0     0     0    
2019/08/17  18:28:02  BASE  4.59228  330  6.47388  308  -7.9  98    -8.1  109   0     1009.6   NA       0.0000   9999     0     0     0    
2019/08/17  18:29:02  BASE  4.9686   328  6.47388  308  -7.9  98    -8.1  107   0     1009.6   NA       0.0000   9999     0     0     0    
2019/08/17  18:30:03  BASE  4.78044  326  6.47388  308  -7.9  99    -8.1  101   0     1009.7   NA       0.0000   9999     0     0     0    
2019/08/17  18:31:02  BASE  4.04544  329  6.02112  304  -7.9  99    -8.1  95    0     1009.7   NA       0.0000   9999     0     0     0    
2019/08/17  18:32:02  BASE  3.7632   334  5.99172  319  -7.9  99    -8.0  94    0     1009.7   NA       0.0000   9999     0     0     0    
2019/08/17  18:33:02  BASE  3.87492  329  5.53308  329  -7.9  99    -8.0  98    0     1009.7   NA       0.0000   9999     0     0     0    
2019/08/17  18:34:02  BASE  3.92784  324  5.53308  329  -7.9  99    -8.0  101   0     1009.7   NA       0.0000   9999     0     0     0    
2019/08/17  18:35:03  BASE  3.86904  334  5.53308  329  -7.9  99    -8.0  100   0     1009.7   NA       0.0000   9999     0     0     0    
2019/08/17  18:36:02  BASE  3.93372  337  5.53308  329  -7.9  99    -8.0  103   0     1009.7   NA       0.0000   9999     0     0     0    
2019/08/17  18:37:02  BASE  4.26888  331  5.53308  329  -7.9  99    -8.0  92    0     1009.7   NA       0.0000   9999     0     0     0    
2019/08/17  18:38:03  BASE  4.42176  330  5.53308  329  -7.8  99    -8.0  88    0     1009.7   NA       0.0000   9999     0     0     0    
2019/08/17  18:39:02  BASE  4.45704  332  5.2038   312  -7.8  99    -7.9  87    0     1009.7   NA       0.0000   9999     0     0     0    
2019/08/17  18:40:02  BASE  4.65696  334  5.53308  328  -7.8  99    -7.9  85    0     1009.7   NA       0.0000   9999     0     0     0    
2019/08/17  18:41:02  BASE  4.95096  332  6.02112  327  -7.8  99    -7.9  84    0     1009.7   NA       0.0000   9999     0     0     0    
2019/08/17  18:42:02  BASE  4.92744  328  6.02112  327  -7.8  99    -7.9  82    0     1009.7   NA       0.0000   9999     0     0     0    
2019/08/17  18:43:02  BASE  4.66284  331  6.02112  327  -7.8  99    -7.9  85    0     1009.7   NA       0.0000   9999     0     0     0    
2019/08/17  18:44:03  BASE  4.53348  333  6.02112  327  -7.8  99    -8.0  86    0     1009.7   NA       0.0000   9999     0     0     0    
2019/08/17  18:45:02  BASE  4.27476  327  6.02112  327  -7.8  99    -8.0  87    0     1009.7   NA       0.0000   9999     0     0     0    
2019/08/17  18:46:03  BASE  4.31004  320  6.02112  327  -7.8  98    -8.0  88    0     1009.7   NA       0.0000   9999     0     0     0    
2019/08/17  18:47:02  BASE  4.52172  317  6.02112  327  -7.8  98    -8.0  87    0     1009.7   NA       0.0000   9999     0     0     0    
2019/08/17  18:48:03  BASE  4.48644  323  6.02112  327  -7.8  98    -8.1  85    0     1009.7   NA       0.0000   9999     0     0     0    
2019/08/17  18:49:03  BASE  4.2336   327  6.02112  327  -7.8  98    -8.1  83    0     1009.7   NA       0.0000   9999     0     0     0    
2019/08/17  18:50:02  BASE  3.91608  326  6.02112  327  -7.8  98    -8.1  82    0     1009.6   NA       0.0000   9999     0     0     0    
2019/08/17  18:51:03  BASE  3.92784  327  5.35668  319  -7.8  98    -8.1  83    0     1009.6   NA       0.0000   9999     0     0     0    
2019/08/17  18:52:02  BASE  3.78672  330  5.2626   336  -7.9  98    -8.1  83    0     1009.6   NA       0.0000   9999     0     0     0    
2019/08/17  18:53:02  BASE  3.59856  328  5.145    336  -7.9  98    -8.2  81    0     1009.6   NA       0.0000   9999     0     0     0    
2019/08/17  18:54:02  BASE  3.61032  334  5.10972  318  -7.9  98    -8.2  79    0     1009.5   NA       0.0000   9999     0     0     0    
2019/08/17  18:55:02  BASE  3.45156  338  5.10972  318  -7.9  98    -8.2  76    0     1009.5   NA       0.0000   9999     0     0     0    
2019/08/17  18:56:02  BASE  3.63972  339  4.80984  327  -7.9  98    -8.2  74    0     1009.4   NA       0.0000   9999     0     0     0    
2019/08/17  18:57:02  BASE  3.969    345  4.80984  327  -7.9  98    -8.1  72    0     1009.4   NA       0.0000   9999     0     0     0    
2019/08/17  18:58:02  BASE  3.75144  349  4.47468  343  -7.9  98    -8.1  71    0     1009.4   NA       0.0000   9999     0     0     0    
2019/08/17  18:59:03  BASE  3.49272  350  4.47468  343  -7.8  99    -8.0  69    0     1009.4   NA       0.0000   9999     0     0     0    
2019/08/17  19:00:02  BASE  3.60444  355  4.47468  343  -7.8  99    -8.0  68    0     1009.3   NA       0.0000   9999     0     0     0    
2019/08/17  19:01:02  BASE  3.69852  2    4.47468  343  -7.8  99    -7.9  67    0     1009.3   NA       0.0000   9999     0     0     0    
2019/08/17  19:02:02  BASE  3.63384  358  4.47468  343  -7.8  99    -7.9  66    0     1009.3   NA       0.0000   9999     0     0     0    
2019/08/17  19:03:03  BASE  3.74556  352  4.47468  343  -7.8  99    -7.9  66    0     1009.4   NA       0.0000   9999     0     0     0    
2019/08/17  19:04:02  BASE  3.86316  353  4.47468  343  -7.7  99    -7.9  65    0     1009.5   NA       0.0000   9999     0     0     0    
2019/08/17  19:05:03  BASE  3.72792  352  4.47468  343  -7.7  99    -7.8  64    0     1009.5   NA       0.0000   9999     0     0     0    
2019/08/17  19:06:03  BASE  3.79848  347  4.47468  343  -7.7  99    -7.8  64    0     1009.5   NA       0.0000   9999     0     0     0    
2019/08/17  19:07:02  BASE  4.19832  339  4.80984  343  -7.6  99    -7.8  63    0     1009.6   NA       0.0000   9999     0     0     0    
2019/08/17  19:08:03  BASE  4.6746   336  5.35668  331  -7.7  99    -7.8  63    0     1009.5   NA       0.0000   9999     0     0     0    
2019/08/17  19:09:02  BASE  4.75692  338  5.35668  331  -7.7  98    -7.9  64    0     1009.5   NA       0.0000   9999     7450  0     0    
2019/08/17  19:10:02  BASE  4.57464  338  5.35668  331  -7.7  98    -7.9  64    0     1009.5   NA       0.0000   9999     7450  0     0    
2019/08/17  19:11:03  BASE  4.66284  338  5.35668  331  -7.7  98    -8.0  63    0     1009.5   NA       0.0000   9999     7420  0     0    
2019/08/17  19:12:03  BASE  4.84512  339  5.35668  331  -7.8  98    -8.0  62    0     1009.4   NA       0.0000   9999     7420  0     0    
2019/08/17  19:13:02  BASE  4.97448  339  5.53308  332  -7.7  98    -8.0  62    0     1009.4   NA       0.0000   9999     7380  0     0    
2019/08/17  19:14:02  BASE  5.13324  338  5.53308  340  -7.7  98    -8.0  62    0     1009.4   NA       0.0000   9999     6040  7580  0    
2019/08/17  19:15:02  BASE  5.20968  334  5.53308  334  -7.7  98    -8.0  62    0     1009.4   NA       0.0000   9999     5970  7970  0    
2019/08/17  19:16:03  BASE  5.22144  331  5.80944  327  -7.7  98    -7.9  59    0     1009.4   NA       0.0000   9999     5910  0     0    
2019/08/17  19:17:02  BASE  5.292    330  5.80944  327  -7.7  98    -7.9  56    0     1009.4   NA       0.0000   9999     0     0     0    
2019/08/17  19:18:03  BASE  5.41548  329  5.83884  324  -7.7  98    -8.0  54    0     1009.4   NA       0.0000   9999     0     0     0    
2019/08/17  19:19:02  BASE  5.69772  328  6.3504   330  -7.7  98    -8.0  49    0     1009.4   NA       0.0000   9999     5840  0     0    
2019/08/17  19:20:02  BASE  5.8212   326  6.3504   330  -7.7  98    -7.9  48    0     1009.4   NA       0.0000   9999     0     0     0    
2019/08/17  19:21:02  BASE  5.50368  319  6.3504   330  -7.7  99    -7.9  46    0     1009.4   NA       0.0000   9999     0     0     0    
2019/08/17  19:22:02  BASE  5.145    312  6.3504   330  -7.7  99    -7.9  46    0     1009.5   NA       0.0000   9999     0     0     0    
2019/08/17  19:23:03  BASE  4.68636  310  6.3504   330  -7.7  99    -7.8  44    0     1009.6   NA       0.0000   9999     0     0     0    
2019/08/17  19:24:02  BASE  4.59228  305  6.3504   330  -7.7  99    -7.8  43    0     1009.6   NA       0.0000   9999     0     0     0    
2019/08/17  19:25:02  BASE  4.80984  301  6.3504   330  -7.7  99    -7.9  43    0     1009.7   NA       0.0000   9999     0     0     0    
2019/08/17  19:26:03  BASE  5.10384  301  6.3504   330  -7.7  99    -7.8  42    0     1009.7   NA       0.0000   9999     0     0     0    
2019/08/17  19:27:02  BASE  5.3214   306  6.3504   330  -7.7  99    -7.8  42    0     1009.6   NA       0.0000   9999     0     0     0    
2019/08/17  19:28:03  BASE  4.91568  316  6.3504   330  -7.7  99    -7.8  41    0     1009.5   NA       0.0000   9999     0     0     0    
2019/08/17  19:29:02  BASE  4.7334   323  6.07992  325  -7.7  99    -7.8  41    0     1009.5   NA       0.0000   9999     0     0     0    
2019/08/17  19:30:02  BASE  4.89216  324  5.95644  319  -7.7  99    -7.8  41    0     1009.5   NA       0.0000   9999     0     0     0    
2019/08/17  19:31:03  BASE  5.12736  323  5.89764  316  -7.7  99    -7.8  42    0     1009.4   NA       0.0000   9999     0     0     0    
2019/08/17  19:32:02  BASE  5.48016  320  6.05052  314  -7.7  99    -7.8  39    0     1009.4   NA       0.0000   9999     0     0     0    
2019/08/17  19:33:02  BASE  5.6448   319  6.05052  314  -7.7  99    -7.9  38    0     1009.4   NA       0.0000   9999     0     0     0    
2019/08/17  19:34:03  BASE  5.4978   321  6.05052  314  -7.7  99    -7.9  36    0     1009.4   NA       0.0000   9999     0     0     0    
2019/08/17  19:35:02  BASE  5.39196  320  6.05052  314  -7.8  99    -7.9  36    0     1009.3   NA       0.0000   9999     0     0     0    
2019/08/17  19:36:03  BASE  5.29788  318  6.05052  314  -7.7  99    -7.9  35    0     1009.3   NA       0.0000   9999     0     0     0    
2019/08/17  19:37:02  BASE  5.12736  317  6.05052  314  -7.7  99    -7.9  34    0     1009.4   NA       0.0000   9999     0     0     0    
2019/08/17  19:38:03  BASE  4.9392   317  6.05052  314  -7.7  99    -7.8  34    0     1009.4   NA       0.0000   9999     0     0     0    
2019/08/17  19:39:02  BASE  4.80396  319  6.05052  314  -7.7  99    -7.8  33    0     1009.3   NA       0.0000   9999     0     0     0    
2019/08/17  19:40:03  BASE  4.84512  322  6.05052  314  -7.6  99    -7.7  33    0     1009.2   NA       0.0000   9999     0     0     0    
2019/08/17  19:41:02  BASE  4.91568  324  6.05052  314  -7.6  99    -7.7  32    0     1009.2   NA       0.0000   9999     0     0     0    
2019/08/17  19:42:02  BASE  5.28612  325  6.47388  319  -7.5  99    -7.6  31    0     1009.2   NA       0.0000   9999     0     0     0    
2019/08/17  19:43:02  BASE  5.28024  328  6.47388  319  -7.5  99    -7.6  31    0     1009.2   NA       0.0000   9999     0     0     0    
2019/08/17  19:44:02  BASE  5.19204  333  6.47388  319  -7.4  99    -7.6  31    0     1009.2   NA       0.0000   9999     7190  0     0    
2019/08/17  19:45:02  BASE  5.59188  337  6.47388  319  -7.4  98    -7.6  31    0     1009.1   NA       0.0000   9999     5580  7150  0    
2019/08/17  19:46:02  BASE  5.86824  342  6.53268  342  -7.4  98    -7.6  30    0     1009.1   NA       0.0000   9999     5580  7150  0    
2019/08/17  19:47:03  BASE  6.05052  343  6.53268  342  -7.4  98    -7.6  30    0     1009.1   NA       0.0000   9999     5540  7020  0    
2019/08/17  19:48:03  BASE  6.20928  343  7.10892  336  -7.3  98    -7.6  30    0     1009.1   NA       0.0000   9999     5580  7050  0    
2019/08/17  19:49:02  BASE  6.09168  344  7.10892  336  -7.3  98    -7.6  29    0     1009.1   NA       0.0000   9999     5540  6790  0    
2019/08/17  19:50:02  BASE  5.7624   343  7.10892  336  -7.3  98    -7.5  27    0     1009.1   NA       0.0000   9999     5510  6790  0    
2019/08/17  19:51:02  BASE  5.60952  344  7.10892  336  -7.2  98    -7.5  25    0     1009.1   NA       0.0000   9999     5480  6790  0    
2019/08/17  19:52:02  BASE  5.83884  345  7.10892  336  -7.2  98    -7.4  22    0     1009.1   NA       0.0000   9999     5480  6760  0    
2019/08/17  19:53:02  BASE  5.95056  343  7.10892  336  -7.1  98    -7.4  21    0     1009.1   NA       0.0000   9999     6560  0     0    
2019/08/17  19:54:03  BASE  5.9682   342  7.10892  336  -7.1  98    -7.4  19    0     1009.1   NA       0.0000   9999     6660  0     0    
2019/08/17  19:55:02  BASE  5.89176  341  7.10892  336  -7.1  98    -7.3  18    0     1009.1   NA       0.0000   9999     6590  0     0    
2019/08/17  19:56:03  BASE  5.8506   343  7.10892  336  -7.0  98    -7.3  18    0     1009.1   NA       0.0000   9999     5480  6370  0    
2019/08/17  19:57:03  BASE  5.92116  345  7.10892  336  -7.0  98    -7.3  17    0     1009.1   NA       0.0000   9999     5450  6330  0    
2019/08/17  19:58:03  BASE  5.68008  344  6.92664  350  -7.0  97    -7.4  17    0     1009.1   NA       0.0000   9999     5450  6170  0    
2019/08/17  19:59:02  BASE  5.52132  340  6.92664  350  -7.0  97    -7.4  16    0     1009.1   NA       0.0000   9999     5450  0     0    
2019/08/17  20:00:02  BASE  5.66244  340  6.92664  350  -7.0  97    -7.4  15    0     1009.1   NA       0.0000   9999     5450  0     0    
2019/08/17  20:01:02  BASE  5.69772  343  6.92664  350  -7.0  97    -7.4  14    0     1009.1   NA       0.0000   9999     5350  0     0    
2019/08/17  20:02:03  BASE  5.63892  342  6.65616  342  -7.0  97    -7.4  13    0     1009.0   NA       0.0000   9999     5350  6790  0    
2019/08/17  20:03:02  BASE  5.51544  341  6.65616  342  -7.0  97    -7.4  12    0     1009.0   NA       0.0000   9999     5350  0     0    
2019/08/17  20:04:02  BASE  5.59776  336  6.65616  328  -6.9  97    -7.3  11    0     1009.0   NA       0.0000   9999     5350  0     0    
2019/08/17  20:05:03  BASE  5.66244  330  6.65616  328  -6.9  97    -7.3  10    0     1009.0   NA       0.0000   9999     5640  6590  0    
2019/08/17  20:06:02  BASE  5.29788  330  6.65616  328  -6.9  97    -7.2  10    0     1009.1   NA       0.0000   9999     5580  0     0    
2019/08/17  20:07:02  BASE  5.46252  329  6.65616  328  -6.9  98    -7.2  9     0     1009.1   NA       0.0000   9999     5510  0     0    
2019/08/17  20:08:03  BASE  5.66832  322  6.65616  328  -6.9  98    -7.2  8     0     1009.1   NA       0.0000   9999     5450  0     0    
2019/08/17  20:09:02  BASE  5.53308  319  6.65616  328  -6.9  98    -7.1  8     0     1009.0   NA       0.0000   9999     5280  0     0    
2019/08/17  20:10:02  BASE  5.55072  315  6.65616  328  -6.8  98    -7.1  7     0     1009.1   NA       0.0000   9999     5220  0     0    
2019/08/17  20:11:02  BASE  5.72124  308  6.74436  303  -6.8  98    -7.0  7     0     1009.1   NA       0.0000   9999     5180  0     0    
2019/08/17  20:12:02  BASE  5.6448   307  6.74436  303  -6.7  98    -7.0  7     0     1009.1   NA       0.0000   9999     5220  6400  0    
2019/08/17  20:13:02  BASE  5.73888  303  6.74436  303  -6.7  98    -6.9  6     0     1009.1   NA       0.0000   9999     5320  6300  0    
2019/08/17  20:14:03  BASE  6.07992  299  7.13832  297  -6.7  99    -6.9  6     0     1009.1   NA       0.0000   9999     6230  6760  0    
2019/08/17  20:15:02  BASE  5.57424  302  7.13832  297  -6.7  99    -6.8  6     0     1009.1   NA       0.0000   9999     6270  6760  0    
2019/08/17  20:16:03  BASE  4.98036  304  7.13832  297  -6.6  99    -6.8  5     0     1009.1   NA       0.0000   9999     6300  6690  0    
2019/08/17  20:17:03  BASE  5.39196  303  7.13832  297  -6.6  99    -6.8  5     0     1009.1   NA       0.0000   9999     6200  0     0    
2019/08/17  20:18:03  BASE  5.58012  300  7.13832  297  -6.6  99    -6.7  5     0     1009.1   NA       0.0000   9999     6100  0     0    
2019/08/17  20:19:02  BASE  5.18028  301  7.13832  297  -6.6  99    -6.7  5     0     1009.1   NA       0.0000   9999     5350  6170  0    
2019/08/17  20:20:02  BASE  5.05092  304  7.13832  297  -6.6  99    -6.7  5     0     1009.1   NA       0.0000   9999     5120  6330  0    
2019/08/17  20:21:02  BASE  4.95684  303  7.13832  297  -6.6  99    -6.7  4     0     1009.1   NA       0.0000   9999     4990  0     0    
2019/08/17  20:22:02  BASE  4.38648  304  7.13832  297  -6.6  99    -6.7  4     0     1009.1   NA       0.0000   9999     4990  5710  6760 
2019/08/17  20:23:02  BASE  3.92784  303  7.13832  297  -6.6  99    -6.7  4     0     1009.1   NA       0.0000   9999     5090  6760  0    
2019/08/17  20:24:03  BASE  3.81024  303  6.53268  299  -6.6  99    -6.7  4     0     1009.1   NA       0.0000   9999     4860  5680  6790 
2019/08/17  20:25:03  BASE  3.99252  305  6.53268  299  -6.6  99    -6.7  3     0     1009.1   NA       0.0000   9999     4820  5540  6730 
2019/08/17  20:26:02  BASE  4.28652  303  6.53268  299  -6.6  99    -6.7  3     0     1009.1   NA       0.0000   9999     4760  5680  6760 
2019/08/17  20:27:02  BASE  3.969    300  6.13872  293  -6.6  99    -6.7  3     0     1009.1   NA       0.0000   9999     4720  0     0    
2019/08/17  20:28:03  BASE  3.92784  297  5.59776  301  -6.5  99    -6.7  3     0     1009.1   NA       0.0000   9999     4660  0     0    
2019/08/17  20:29:02  BASE  3.87492  295  5.59776  301  -6.5  99    -6.7  2     0     1009.2   NA       0.0000   9999     4660  0     0    
2019/08/17  20:30:02  BASE  3.5868   295  5.41548  294  -6.5  99    -6.7  2     0     1009.2   NA       0.0000   9999     4630  6690  0    
2019/08/17  20:31:02  BASE  3.47508  294  5.3214   298  -6.5  99    -6.6  2     0     1009.2   NA       0.0000   9999     4630  6660  0    
2019/08/17  20:32:02  BASE  3.22224  294  5.3214   298  -6.5  99    -6.6  2     0     1009.2   NA       0.0000   9999     4590  5580  6560 
2019/08/17  20:33:03  BASE  3.48684  290  5.3214   298  -6.5  99    -6.6  2     0     1009.2   NA       0.0000   9999     4590  5870  6590 
2019/08/17  20:34:02  BASE  3.675    287  5.3214   298  -6.5  99    -6.6  2     0     1009.1   NA       0.0000   9999     4630  5580  6660 
2019/08/17  20:35:02  BASE  3.59856  288  5.3214   298  -6.5  99    -6.6  1     0     1009.2   NA       0.0000   9999     5580  6590  0    
2019/08/17  20:36:03  BASE  3.18696  290  5.02152  289  -6.5  99    -6.6  1     0     1009.2   NA       0.0000   9999     3840  5510  6370 
2019/08/17  20:37:02  BASE  2.69304  295  5.02152  289  -6.4  99    -6.6  1     0     1009.1   NA       0.0000   9999     3900  5450  6560 
2019/08/17  20:38:02  BASE  2.9106   291  4.47468  285  -6.4  99    -6.6  1     0     1009.1   NA       0.0000   9999     3840  5450  6040 
2019/08/17  20:39:02  BASE  3.03408  286  4.47468  285  -6.4  99    -6.6  1     0     1009.1   NA       0.0000   9999     5350  0     0    
2019/08/17  20:40:02  BASE  3.35748  290  4.41588  280  -6.4  99    -6.6  1     0     1009.1   NA       0.0000   9999     5350  0     0    
2019/08/17  20:41:03  BASE  4.07484  292  4.53936  287  -6.4  99    -6.6  1     0     1009.1   NA       0.0000   9999     5280  6560  0    
2019/08/17  20:42:02  BASE  4.32768  293  5.1744   286  -6.4  99    -6.6  1     0     1009.1   NA       0.0000   9999     5280  5840  6560 
2019/08/17  20:43:02  BASE  4.81572  293  5.92704  290  -6.4  99    -6.6  1     0     1009.1   NA       0.0000   9999     5250  5870  0    
2019/08/17  20:44:03  BASE  5.3802   289  5.92704  290  -6.4  98    -6.6  1     0     1009.1   NA       0.0000   9999     3810  5250  5840 
2019/08/17  20:45:03  BASE  5.0568   288  5.92704  290  -6.4  98    -6.6  1     0     1009.1   NA       0.0000   9999     1540  3840  5220 
2019/08/17  20:46:03  BASE  5.00976  286  5.92704  290  -6.4  98    -6.7  1     0     1009.1   NA       0.0000   9999     3810  6370  0    
2019/08/17  20:47:02  BASE  4.80396  284  5.92704  290  -6.4  98    -6.7  1     0     1009.1   NA       0.0000   9999     3480  0     0    
2019/08/17  20:48:03  BASE  4.47468  286  5.92704  290  -6.4  98    -6.6  1     0     1009.1   NA       0.0000   9999     3450  0     0    
2019/08/17  20:49:02  BASE  4.7922   286  5.92704  290  -6.4  98    -6.6  1     0     1009.1   NA       0.0000   9999     3380  0     0    
2019/08/17  20:50:02  BASE  4.9392   285  5.92704  290  -6.4  98    -6.6  1     0     1009.1   NA       0.0000   9999     3350  0     0    
2019/08/17  20:51:02  BASE  4.85688  284  5.92704  290  -6.4  98    -6.6  1     0     1009.1   NA       0.0000   9999     3380  0     0    
2019/08/17  20:52:03  BASE  4.72164  285  5.92704  290  -6.4  98    -6.6  1     0     1009.1   NA       0.0000   9999     3280  0     0    
2019/08/17  20:53:02  BASE  4.69812  285  5.92704  292  -6.4  98    -6.7  1     0     1009.1   NA       0.0000   9999     3250  0     0    
2019/08/17  20:54:02  BASE  4.89216  287  5.92704  292  -6.4  98    -6.7  1     0     1009.1   NA       0.0000   9999     3250  0     0    
2019/08/17  20:55:03  BASE  5.75652  288  6.98544  288  -6.4  98    -6.7  1     0     1009.1   NA       0.0000   9999     3220  0     0    
2019/08/17  20:56:03  BASE  6.2622   287  6.98544  285  -6.4  98    -6.7  1     0     1009.1   NA       0.0000   9999     3220  0     0    
2019/08/17  20:57:02  BASE  6.01524  283  6.98544  285  -6.4  98    -6.7  1     0     1009.1   NA       0.0000   9999     3250  0     0    
2019/08/17  20:58:02  BASE  5.53896  280  6.98544  285  -6.4  98    -6.7  1     0     1009.1   NA       0.0000   9999     3310  0     0    
2019/08/17  20:59:02  BASE  5.42724  280  6.98544  285  -6.4  98    -6.7  1     0     1009.1   NA       0.0000   9999     3310  0     0    
2019/08/17  21:00:02  BASE  5.16852  280  6.98544  285  -6.4  98    -6.7  1     0     1009.1   NA       0.0000   9999     3280  0     0    
2019/08/17  21:01:02  BASE  4.42764  280  6.98544  285  -6.3  97    -6.7  1     0     1009.1   NA       0.0000   9999     3250  0     0    
2019/08/17  21:02:02  BASE  4.13952  280  6.98544  285  -6.3  97    -6.7  1     0     1009.2   NA       0.0000   9999     3280  0     0    
2019/08/17  21:03:02  BASE  3.93372  282  6.98544  285  -6.3  97    -6.7  1     0     1009.2   NA       0.0000   9999     3280  0     0    
2019/08/17  21:04:03  BASE  4.01604  286  6.98544  285  -6.3  97    -6.7  1     0     1009.2   NA       0.0000   9999     3250  0     0    
2019/08/17  21:05:03  BASE  4.01016  289  6.98544  285  -6.3  97    -6.7  1     0     1009.2   NA       0.0000   9999     3150  0     0    
2019/08/17  21:06:02  BASE  3.99252  288  6.59148  280  -6.3  97    -6.7  1     0     1009.2   NA       0.0000   9999     3150  0     0    
2019/08/17  21:07:02  BASE  3.86904  288  6.3504   279  -6.3  96    -6.7  0     0     1009.1   NA       0.0000   9999     3150  0     0    
2019/08/17  21:08:03  BASE  3.3222   292  6.3504   279  -6.3  96    -6.8  0     0     1009.1   NA       0.0000   9999     3250  0     0    
2019/08/17  21:09:03  BASE  3.86904  285  5.99172  278  -6.2  96    -6.8  0     0     1009.1   NA       0.0000   9999     3350  0     0    
2019/08/17  21:10:02  BASE  4.89216  278  5.68596  260  -6.2  96    -6.8  0     0     1009.1   NA       0.0000   9999     3350  0     0    
2019/08/17  21:11:02  BASE  4.92744  282  5.68596  260  -6.2  96    -6.8  0     0     1009.1   NA       0.0000   9999     3350  0     0    
2019/08/17  21:12:02  BASE  4.89804  281  5.99172  274  -6.2  96    -6.8  0     0     1009.0   NA       0.0000   9999     3310  0     0    
2019/08/17  21:13:02  BASE  5.145    279  5.99172  274  -6.2  96    -6.8  0     0     1009.0   NA       0.0000   9999     3250  0     0    
2019/08/17  21:14:02  BASE  5.20968  282  5.99172  274  -6.2  96    -6.8  0     0     1009.0   NA       0.0000   9999     3180  0     0    
2019/08/17  21:15:02  BASE  5.22144  284  5.99172  274  -6.2  96    -6.7  0     0     1009.0   NA       0.0000   9999     3150  0     0    
2019/08/17  21:16:02  BASE  4.8216   286  5.99172  274  -6.2  96    -6.7  0     0     1009.1   NA       0.0000   9999     3150  0     0    
2019/08/17  21:17:02  BASE  4.53348  288  5.99172  274  -6.2  96    -6.7  0     0     1009.1   NA       0.0000   9999     3120  0     0    
2019/08/17  21:18:03  BASE  4.69812  291  5.99172  274  -6.2  96    -6.7  0     0     1009.1   NA       0.0000   9999     3120  3740  0    
2019/08/17  21:19:02  BASE  4.90392  294  5.99172  274  -6.2  96    -6.7  0     0     1009.0   NA       0.0000   9999     3050  3710  0    
2019/08/17  21:20:02  BASE  4.91568  296  5.99172  274  -6.2  97    -6.7  0     0     1009.1   NA       0.0000   9999     3020  0     0    
2019/08/17  21:21:02  BASE  4.62168  303  5.99172  274  -6.2  97    -6.6  0     0     1009.1   NA       0.0000   9999     1610  3050  3670 
2019/08/17  21:22:02  BASE  4.65108  303  5.89764  273  -6.2  97    -6.6  0     0     1009.1   NA       0.0000   9999     1570  3050  0    
2019/08/17  21:23:03  BASE  4.29828  297  5.86824  282  -6.2  97    -6.6  0     0     1009.1   NA       0.0000   9999     1570  3050  0    
2019/08/17  21:24:02  BASE  3.86904  299  5.86824  282  -6.2  97    -6.6  0     0     1009.1   NA       0.0000   9999     1570  3020  3640 
2019/08/17  21:25:03  BASE  4.2336   296  5.78004  290  -6.2  97    -6.5  0     0     1009.1   NA       0.0000   9999     1570  0     0    
2019/08/17  21:26:02  BASE  4.07484  284  5.78004  290  -6.2  98    -6.5  0     0     1009.1   NA       0.0000   9999     1440  0     0    
2019/08/17  21:27:02  BASE  3.7632   282  5.78004  290  -6.2  98    -6.5  0     0     1009.1   NA       0.0000   9999     1350  0     0    
2019/08/17  21:28:02  BASE  4.12776  286  5.78004  290  -6.2  98    -6.4  0     0     1009.1   NA       0.0000   9999     1410  2530  3150 
2019/08/17  21:29:02  BASE  4.44528  284  5.2038   288  -6.2  98    -6.4  0     0     1009.1   NA       0.0000   9999     1180  1640  0    
2019/08/17  21:30:03  BASE  4.29828  282  5.2038   288  -6.2  99    -6.4  0     0     1009.1   NA       0.0000   9999     1120  1940  3150 
2019/08/17  21:31:02  BASE  4.01604  282  5.2038   288  -6.2  99    -6.3  0     0     1009.1   NA       0.0000   9999     1150  3150  0    
2019/08/17  21:32:02  BASE  4.19832  287  5.2038   288  -6.2  99    -6.3  0     0     1009.0   NA       0.0000   9999     1080  1510  0    
2019/08/17  21:33:02  BASE  4.72164  292  5.80944  291  -6.1  99    -6.2  0     0     1008.9   NA       0.0000   9999     1050  0     0    
2019/08/17  21:34:02  BASE  5.28612  290  6.10932  284  -6.1  100   -6.2  0     0     1008.9   NA       0.0000   9999     980   3120  0    
2019/08/17  21:35:02  BASE  5.56836  291  6.10932  284  -6.1  100   -6.1  0     0     1008.9   NA       0.0000   9999     1020  0     0    
2019/08/17  21:36:03  BASE  5.33316  290  6.10932  284  -6.1  100   -6.1  0     0     1008.9   NA       0.0000   9999     1050  3120  0    
2019/08/17  21:37:03  BASE  5.25672  283  6.13872  267  -6.1  100   -6.1  0     0     1009.0   NA       0.0000   9999     1020  0     0    
2019/08/17  21:38:03  BASE  5.3508   279  6.13872  267  -6.1  100   -6.1  0     0     1009.0   NA       0.0000   9999     920   0     0    
2019/08/17  21:39:02  BASE  5.10972  282  6.13872  267  -6.1  100   -6.1  0     0     1009.1   NA       0.0000   9999     890   0     0    
2019/08/17  21:40:02  BASE  4.98036  281  6.13872  267  -6.1  100   -6.1  0     0     1009.1   NA       0.0000   9999     920   0     0    
2019/08/17  21:41:02  BASE  4.557    282  6.13872  267  -6.1  100   -6.1  0     0     1009.1   NA       0.0000   9999     850   0     0    
2019/08/17  21:42:02  BASE  4.15128  292  6.13872  267  -6.1  100   -6.1  0     0     1009.1   NA       0.0000   9999     890   0     0    
2019/08/17  21:43:02  BASE  4.23948  293  6.13872  267  -6.1  100   -6.1  0     0     1009.1   NA       0.0000   9999     850   0     0    
2019/08/17  21:44:03  BASE  4.1454   289  6.13872  267  -6.1  100   -6.1  0     0     1009.1   NA       0.0000   9999     820   0     0    
2019/08/17  21:45:02  BASE  4.4688   285  6.13872  267  -6.0  100   -6.1  0     0     1009.1   NA       0.0000   9999     750   0     0    
2019/08/17  21:46:02  BASE  5.36844  276  6.2622   265  -6.1  100   -6.1  0     0     1009.1   NA       0.0000   9999     750   0     0    
2019/08/17  21:47:02  BASE  5.48016  268  6.2622   265  -6.1  100   -6.1  0     0     1009.1   NA       0.0000   9999     750   0     0    
2019/08/17  21:48:02  BASE  5.00976  269  6.2622   265  -6.1  100   -6.1  0     0     1009.1   NA       0.0000   9999     750   0     0    
2019/08/17  21:49:02  BASE  4.66284  270  6.2622   265  -6.1  100   -6.1  0     0     1009.1   NA       0.0000   9999     690   0     0    
2019/08/17  21:50:02  BASE  4.48644  268  6.2622   265  -6.1  100   -6.1  0     0     1009.1   NA       0.0000   9999     690   0     0    
2019/08/17  21:51:02  BASE  4.59228  264  6.2622   265  -6.1  100   -6.1  0     0     1009.1   NA       0.0000   9999     620   0     0    
2019/08/17  21:52:02  BASE  4.48644  267  6.2622   265  -6.1  100   -6.1  0     0     1009.1   NA       0.0000   9999     620   0     0    
2019/08/17  21:53:03  BASE  4.36884  272  6.2622   265  -6.1  100   -6.1  0     0     1009.1   NA       0.0000   9999     660   0     0    
2019/08/17  21:54:02  BASE  4.7628   269  6.2622   265  -6.1  100   -6.1  0     0     1009.1   NA       0.0000   9999     690   0     0    
2019/08/17  21:55:02  BASE  5.03916  267  6.2622   265  -6.1  100   -6.1  0     0     1009.0   NA       0.0000   9999     660   0     0    
2019/08/17  21:56:02  BASE  4.5864   267  6.2328   266  -6.1  100   -6.1  0     0     1009.0   NA       0.0000   9999     560   0     0    
2019/08/17  21:57:02  BASE  4.56876  272  6.2034   271  -6.1  100   -6.1  0     0     1009.0   NA       0.0000   9999     590   0     0    
2019/08/17  21:58:02  BASE  4.98624  275  6.2034   271  -6.1  100   -6.1  0     0     1009.0   NA       0.0000   9999     520   0     0    
2019/08/17  21:59:02  BASE  4.69812  275  6.2034   271  -6.1  100   -6.1  0     0     1009.0   NA       0.0000   9999     560   0     0    
2019/08/17  22:00:02  BASE  4.75692  276  6.2034   271  -6.1  100   -6.1  0     0     1008.9   NA       0.0000   9999     620   0     0    
2019/08/17  22:01:02  BASE  4.83336  279  6.2034   271  -6.1  100   -6.1  0     0     1008.9   NA       0.0000   9999     590   0     0    
2019/08/17  22:02:03  BASE  4.8804   279  6.2034   271  -6.1  100   -6.1  0     0     1008.9   NA       0.0000   9999     520   0     0    
2019/08/17  22:03:02  BASE  4.82748  275  6.2034   271  -6.1  100   -6.1  0     0     1008.9   NA       0.0000   9999     520   0     0    
2019/08/17  22:04:02  BASE  4.33944  269  6.2034   271  -6.1  100   -6.1  0     0     1008.9   NA       0.0000   9999     460   0     0    
2019/08/17  22:05:03  BASE  4.45704  267  6.05052  274  -6.1  100   -6.1  0     0     1009.0   NA       0.0000   9999     460   0     0    
2019/08/17  22:06:02  BASE  4.83336  266  6.05052  260  -6.1  100   -6.1  0     0     1009.0   NA       0.0000   9999     520   0     0    
2019/08/17  22:07:02  BASE  4.33356  264  6.05052  260  -6.1  100   -6.1  0     0     1009.0   NA       0.0000   9999     560   0     0    
2019/08/17  22:08:03  BASE  3.9984   265  6.05052  260  -6.1  100   -6.1  0     0     1009.0   NA       0.0000   9999     560   0     0    
2019/08/17  22:09:02  BASE  4.08072  264  6.05052  260  -6.1  100   -6.1  0     0     1009.0   NA       0.0000   9999     520   0     0    
2019/08/17  22:10:02  BASE  3.55152  263  6.05052  260  -6.1  100   -6.1  0     0     1009.0   NA       0.0000   9999     520   0     0    
2019/08/17  22:11:03  BASE  3.71616  264  6.05052  260  -6.1  100   -6.1  0     0     1009.0   NA       0.0000   9999     590   0     0    
2019/08/17  22:12:02  BASE  3.9984   265  6.05052  260  -6.1  100   -6.1  0     0     1009.0   NA       0.0000   9999     560   0     0    
2019/08/17  22:13:02  BASE  3.66912  268  6.05052  260  -6.1  100   -6.1  0     0     1009.0   NA       0.0000   9999     560   0     0    
2019/08/17  22:14:02  BASE  3.57504  266  6.05052  260  -6.0  100   -6.0  0     0     1009.1   NA       0.0000   9999     560   0     0    
2019/08/17  22:15:02  BASE  3.74556  268  6.05052  260  -6.0  100   -6.0  0     0     1009.1   NA       0.0000   9999     560   0     0    
2019/08/17  22:16:02  BASE  3.45156  268  5.3214   258  -6.0  100   -6.0  0     0     1009.1   NA       0.0000   9999     520   0     0    
2019/08/17  22:17:02  BASE  3.16932  263  5.3214   258  -6.0  100   -6.0  0     0     1009.1   NA       0.0000   9999     560   0     0    
2019/08/17  22:18:02  BASE  3.34572  269  5.3214   258  -6.0  100   -6.0  0     0     1009.0   NA       0.0000   9999     560   0     0    
2019/08/17  22:19:02  BASE  3.3516   277  5.08032  277  -6.0  100   -6.0  0     0     1009.0   NA       0.0000   9999     560   0     0    
2019/08/17  22:20:02  BASE  3.72204  280  5.08032  277  -6.0  100   -6.0  0     0     1009.0   NA       0.0000   9999     560   0     0    
2019/08/17  22:21:02  BASE  4.15128  275  5.2626   264  -6.0  100   -6.0  0     0     1009.0   NA       0.0000   9999     620   0     0    
2019/08/17  22:22:02  BASE  3.93372  273  5.2626   264  -6.0  100   -6.0  0     0     1008.9   NA       0.0000   9999     590   0     0    
2019/08/17  22:23:02  BASE  3.62208  278  5.2626   264  -6.0  100   -6.0  0     0     1008.9   NA       0.0000   9999     620   0     0    
2019/08/17  22:24:02  BASE  3.49272  277  5.2626   264  -6.0  100   -6.0  0     0     1008.9   NA       0.0000   9999     620   0     0    
2019/08/17  22:25:03  BASE  3.37512  269  5.2626   264  -5.9  100   -5.9  0     0     1008.9   NA       0.0000   9999     620   0     0    
2019/08/17  22:26:02  BASE  3.61032  265  5.2626   264  -5.9  100   -5.9  0     0     1008.9   NA       0.0000   9999     920   0     0    
2019/08/17  22:27:03  BASE  3.72792  269  5.2626   264  -5.9  100   -5.9  0     0     1008.9   NA       0.0000   9999     720   1210  0    
2019/08/17  22:28:02  BASE  3.83964  266  5.2626   264  -5.9  100   -5.9  0     0     1009.0   NA       0.0000   9999     690   1150  0    
2019/08/17  22:29:02  BASE  4.19244  264  5.2626   264  -5.9  100   -5.9  0     0     1009.0   NA       0.0000   9999     1150  0     0    
2019/08/17  22:30:02  BASE  4.10424  266  5.2626   264  -5.9  100   -5.9  0     0     1009.0   NA       0.0000   9999     1350  0     0    
2019/08/17  22:31:02  BASE  3.62796  262  5.2332   256  -5.9  100   -5.9  0     0     1009.1   NA       0.0000   9999     1440  0     0    
2019/08/17  22:32:03  BASE  3.675    263  5.2332   256  -5.9  100   -5.9  0     0     1009.1   NA       0.0000   9999     1480  3120  0    
2019/08/17  22:33:02  BASE  4.31004  263  5.62716  259  -5.9  100   -5.9  0     0     1009.1   NA       0.0000   9999     1670  2200  3020 
2019/08/17  22:34:02  BASE  4.59816  262  5.62716  259  -5.9  100   -5.9  0     0     1009.0   NA       0.0000   9999     1670  0     0    
2019/08/17  22:35:02  BASE  4.50996  262  5.62716  259  -5.9  100   -5.9  0     0     1009.1   NA       0.0000   9999     1210  0     0    
2019/08/17  22:36:02  BASE  4.2042   261  5.62716  259  -5.9  100   -5.9  0     0     1009.1   NA       0.0000   9999     1250  0     0    
2019/08/17  22:37:02  BASE  4.36296  258  5.62716  259  -5.8  100   -5.8  0     0     1009.1   NA       0.0000   9999     1050  0     0    
2019/08/17  22:38:03  BASE  4.21008  256  5.62716  259  -5.8  100   -5.8  0     0     1009.1   NA       0.0000   9999     820   0     0    
2019/08/17  22:39:02  BASE  3.969    254  5.62716  259  -5.8  100   -5.8  0     0     1009.1   NA       0.0000   9999     750   0     0    
2019/08/17  22:40:02  BASE  4.48056  252  5.62716  259  -5.8  100   -5.8  0     0     1009.1   NA       0.0000   9999     850   0     0    
2019/08/17  22:41:02  BASE  4.7922   253  5.62716  247  -5.8  100   -5.8  0     0     1009.1   NA       0.0000   9999     720   0     0    
2019/08/17  22:42:02  BASE  4.4688   251  5.62716  247  -5.8  100   -5.8  0     0     1009.1   NA       0.0000   9999     660   0     0    
2019/08/17  22:43:02  BASE  4.65108  250  5.83884  259  -5.8  100   -5.8  0     0     1009.1   NA       0.0000   9999     620   0     0    
2019/08/17  22:44:02  BASE  4.98036  250  5.83884  259  -5.8  100   -5.8  0     0     1009.1   NA       0.0000   9999     690   0     0    
2019/08/17  22:45:02  BASE  4.4982   248  5.83884  259  -5.8  100   -5.8  0     0     1009.1   NA       0.0000   9999     720   0     0    
2019/08/17  22:46:03  BASE  4.21596  249  5.83884  259  -5.8  100   -5.8  0     0     1009.0   NA       0.0000   9999     660   0     0    
2019/08/17  22:47:02  BASE  3.99252  252  5.83884  259  -5.8  100   -5.8  0     0     1009.0   NA       0.0000   9999     690   0     0    
2019/08/17  22:48:02  BASE  4.00428  253  5.83884  259  -5.8  100   -5.8  0     0     1009.0   NA       0.0000   9999     660   0     0    
2019/08/17  22:49:02  BASE  4.01604  258  5.83884  259  -5.8  100   -5.8  0     0     1009.0   NA       0.0000   9999     620   0     0    
2019/08/17  22:50:02  BASE  3.98664  256  5.83884  259  -5.8  100   -5.8  0     0     1009.0   NA       0.0000   9999     620   0     0    
2019/08/17  22:51:02  BASE  3.96312  256  5.83884  259  -5.8  100   -5.8  0     0     1009.0   NA       0.0000   9999     560   0     0    
2019/08/17  22:52:03  BASE  3.8808   259  5.83884  259  -5.8  100   -5.8  0     0     1009.0   NA       0.0000   9999     620   0     0    
2019/08/17  22:53:02  BASE  4.23948  256  5.3214   250  -5.8  100   -5.8  0     0     1009.0   NA       0.0000   9999     660   0     0    
2019/08/17  22:54:02  BASE  5.00388  250  5.78004  250  -5.8  100   -5.8  0     0     1009.0   NA       0.0000   9999     720   0     0    
2019/08/17  22:55:02  BASE  4.9098   252  5.78004  250  -5.8  100   -5.8  0     0     1009.0   NA       0.0000   9999     890   0     0    
2019/08/17  22:56:02  BASE  4.41588  252  5.78004  250  -5.8  100   -5.8  0     0     1009.0   NA       0.0000   9999     820   0     0    
2019/08/17  22:57:02  BASE  4.54524  250  5.78004  250  -5.8  100   -5.8  0     0     1009.0   NA       0.0000   9999     720   0     0    
2019/08/17  22:58:02  BASE  4.53348  248  5.78004  250  -5.8  100   -5.8  0     0     1009.1   NA       0.0000   9999     790   0     0    
2019/08/17  22:59:02  BASE  4.21008  247  5.78004  250  -5.8  100   -5.8  0     0     1009.1   NA       0.0000   9999     790   0     0    
2019/08/17  23:00:02  BASE  3.89256  248  5.78004  250  -5.8  100   -5.8  0     0     1009.1   NA       0.0000   9999     850   0     0    
2019/08/17  23:01:02  BASE  3.66912  250  5.78004  250  -5.8  100   -5.8  0     0     1009.1   NA       0.0000   9999     980   0     0    
2019/08/17  23:02:02  BASE  3.44568  252  5.78004  250  -5.8  100   -5.8  0     0     1009.0   NA       0.0000   9999     890   0     0    
2019/08/17  23:03:02  BASE  3.234    252  5.78004  250  -5.8  100   -5.8  0     0     1009.0   NA       0.0000   9999     920   0     0    
2019/08/17  23:04:02  BASE  3.1752   249  5.3214   246  -5.8  100   -5.8  0     0     1009.0   NA       0.0000   9999     850   0     0    
2019/08/17  23:05:03  BASE  3.45156  239  5.3214   246  -5.8  100   -5.8  0     0     1009.1   NA       0.0000   9999     820   0     0    
2019/08/17  23:06:03  BASE  3.69852  227  5.3214   246  -5.8  100   -5.8  0     0     1009.1   NA       0.0000   9999     820   0     0    
2019/08/17  23:07:02  BASE  3.37512  218  5.3214   246  -5.8  100   -5.8  0     0     1009.1   NA       0.0000   9999     520   0     0    
2019/08/17  23:08:03  BASE  3.08112  215  4.96272  228  -5.8  100   -5.8  0     0     1009.0   NA       0.0000   9999     890   0     0    
2019/08/17  23:09:02  BASE  3.25752  217  4.96272  228  -5.9  100   -5.9  0     0     1009.0   NA       0.0000   9999     750   0     0    
2019/08/17  23:10:02  BASE  3.44568  215  4.96272  228  -5.9  100   -5.9  0     0     1009.0   NA       0.0000   9999     690   0     0    
2019/08/17  23:11:03  BASE  3.57504  213  4.96272  228  -5.9  100   -5.9  0     0     1008.9   NA       0.0000   9999     950   0     0    
2019/08/17  23:12:02  BASE  3.26928  213  4.96272  228  -5.9  100   -5.9  0     0     1008.9   NA       0.0000   9999     490   0     0    
2019/08/17  23:13:02  BASE  3.12816  216  4.96272  228  -5.9  100   -5.9  0     0     1008.9   NA       0.0000   9999     690   0     0    
2019/08/17  23:14:02  BASE  3.07524  226  4.96272  228  -5.9  100   -5.9  0     0     1008.9   NA       0.0000   9999     720   0     0    
2019/08/17  23:15:02  BASE  2.62836  233  4.96272  228  -6.0  100   -6.0  0     0     1008.8   NA       0.0000   9999     790   0     0    
2019/08/17  23:16:02  BASE  2.28732  238  4.38648  209  -6.0  100   -6.0  0     0     1008.8   NA       0.0000   9999     720   0     0    
2019/08/17  23:17:02  BASE  1.79928  238  4.38648  209  -6.0  100   -6.0  0     0     1008.8   NA       0.0000   9999     750   0     0    
2019/08/17  23:18:02  BASE  1.41708  241  4.38648  209  -6.0  100   -6.0  0     0     1008.8   NA       0.0000   9999     890   0     0    
2019/08/17  23:19:02  BASE  1.4406   244  4.38648  209  -6.0  100   -6.0  0     0     1008.8   NA       0.0000   9999     980   0     0    
2019/08/17  23:20:02  BASE  1.69344  238  4.38648  209  -6.0  100   -6.0  0     0     1008.8   NA       0.0000   9999     1080  0     0    
2019/08/17  23:21:02  BASE  1.87572  231  3.59856  216  -6.0  100   -6.0  0     0     1008.7   NA       0.0000   9999     1120  0     0    
2019/08/17  23:22:02  BASE  2.04624  224  3.59856  216  -6.0  100   -6.0  0     0     1008.7   NA       0.0000   9999     1120  0     0    
2019/08/17  23:23:02  BASE  2.45784  220  3.1458   211  -6.0  100   -6.0  0     0     1008.7   NA       0.0000   9999     1120  0     0    
2019/08/17  23:24:03  BASE  2.74596  217  3.2046   220  -6.0  100   -6.0  0     0     1008.6   NA       0.0000   9999     1250  0     0    
2019/08/17  23:25:02  BASE  2.89884  219  3.26928  220  -6.0  100   -6.0  0     0     1008.6   NA       0.0000   9999     1150  0     0    
2019/08/17  23:26:02  BASE  3.0282   221  3.26928  220  -6.0  100   -6.0  0     0     1008.6   NA       0.0000   9999     1120  0     0    
2019/08/17  23:27:02  BASE  2.87532  217  3.26928  220  -6.0  100   -6.0  0     0     1008.7   NA       0.0000   9999     1120  0     0    
2019/08/17  23:28:02  BASE  2.56956  210  3.26928  220  -6.0  100   -6.0  0     0     1008.6   NA       0.0000   9999     1050  0     0    
2019/08/17  23:29:02  BASE  2.4402   211  3.26928  220  -6.0  100   -6.0  0     0     1008.6   NA       0.0000   9999     1180  0     0    
2019/08/17  23:30:02  BASE  2.34024  217  3.26928  220  -6.0  100   -6.0  0     0     1008.6   NA       0.0000   9999     1180  0     0    
2019/08/17  23:31:02  BASE  2.06976  220  3.26928  220  -6.0  100   -6.0  0     0     1008.6   NA       0.0000   9999     1120  0     0    
2019/08/17  23:32:03  BASE  1.86984  226  3.26928  220  -6.0  100   -6.0  0     0     1008.6   NA       0.0000   9999     1180  0     0    
2019/08/17  23:33:02  BASE  1.78752  228  3.26928  220  -6.0  100   -6.0  0     0     1008.6   NA       0.0000   9999     1150  0     0    
2019/08/17  23:34:02  BASE  1.99332  228  3.26928  220  -6.0  100   -6.0  0     0     1008.6   NA       0.0000   9999     1180  0     0    
2019/08/17  23:35:02  BASE  2.39904  225  3.2046   222  -6.0  100   -6.0  0     0     1008.6   NA       0.0000   9999     1180  0     0    
2019/08/17  23:36:02  BASE  2.61072  217  3.02232  206  -6.0  100   -6.0  0     0     1008.5   NA       0.0000   9999     1120  0     0    
2019/08/17  23:37:02  BASE  2.72244  221  2.93412  237  -6.0  100   -6.0  0     0     1008.5   NA       0.0000   9999     1080  0     0    
2019/08/17  23:38:03  BASE  2.76948  230  3.02232  231  -6.0  100   -6.0  0     0     1008.5   NA       0.0000   9999     1080  0     0    
2019/08/17  23:39:02  BASE  2.46372  235  3.02232  231  -6.0  100   -6.0  0     0     1008.5   NA       0.0000   9999     980   0     0    
2019/08/17  23:40:02  BASE  2.01096  240  3.02232  231  -6.0  100   -6.0  0     0     1008.5   NA       0.0000   9999     980   0     0    
2019/08/17  23:41:02  BASE  1.82868  241  3.02232  231  -6.0  100   -6.0  0     0     1008.5   NA       0.0000   9999     950   0     0    
2019/08/17  23:42:02  BASE  1.8522   237  3.02232  231  -6.0  100   -6.0  0     0     1008.6   NA       0.0000   9999     980   0     0    
2019/08/17  23:43:02  BASE  1.7934   235  3.02232  231  -6.0  100   -6.0  0     0     1008.6   NA       0.0000   9999     1050  0     0    
2019/08/17  23:44:02  BASE  2.02272  231  3.02232  231  -6.0  100   -6.0  0     0     1008.6   NA       0.0000   9999     1120  0     0    
2019/08/17  23:45:02  BASE  2.15208  225  3.02232  231  -6.0  100   -6.0  0     0     1008.6   NA       0.0000   9999     1150  0     0    
2019/08/17  23:46:03  BASE  2.01684  217  3.02232  231  -6.0  100   -6.0  0     0     1008.6   NA       0.0000   9999     1080  0     0    
2019/08/17  23:47:02  BASE  1.9992   214  3.02232  231  -6.0  100   -6.0  0     0     1008.6   NA       0.0000   9999     1050  0     0    
2019/08/17  23:48:02  BASE  1.86984  216  2.56956  231  -6.0  100   -6.0  0     0     1008.6   NA       0.0000   9999     1050  0     0    
2019/08/17  23:49:02  BASE  1.76988  215  2.54016  229  -6.0  100   -6.0  0     0     1008.6   NA       0.0000   9999     1080  0     0    
2019/08/17  23:50:02  BASE  1.63464  216  2.54016  229  -6.0  100   -6.0  0     0     1008.6   NA       0.0000   9999     1080  0     0    
2019/08/17  23:51:03  BASE  1.4406   221  2.54016  229  -6.0  100   -6.0  0     0     1008.6   NA       0.0000   9999     1080  0     0    
2019/08/17  23:52:03  BASE  1.24068  229  2.54016  229  -6.0  100   -6.0  0     0     1008.5   NA       0.0000   9999     1050  0     0    
2019/08/17  23:53:03  BASE  1.08192  239  2.54016  229  -6.0  100   -6.0  0     0     1008.4   NA       0.0000   9999     1020  0     0    
2019/08/17  23:54:02  BASE  1.04076  251  2.21088  204  -6.0  100   -6.0  0     0     1008.4   NA       0.0000   9999     1050  0     0    
2019/08/17  23:55:02  BASE  1.07016  257  2.21088  204  -6.0  100   -6.0  0     0     1008.4   NA       0.0000   9999     1020  0     0    
2019/08/17  23:56:02  BASE  1.04076  252  1.96392  216  -6.0  100   -6.0  0     0     1008.4   NA       0.0000   9999     950   0     0    
2019/08/17  23:57:02  BASE  1.09368  244  1.96392  216  -6.0  100   -6.0  0     0     1008.3   NA       0.0000   9999     1020  0     0    
2019/08/17  23:58:02  BASE  1.08192  246  1.81692  213  -6.0  100   -6.0  0     0     1008.3   NA       0.0000   9999     950   0     0    
2019/08/17  23:59:03  BASE  0.92904  265  1.81692  213  -6.1  100   -6.1  0     0     1008.2   NA       0.0000   9999     850   0     0